Wetterdaten: Sonntag, 14.10.2018
Datum Zeit Temp. A. Pool Temp. Temp. 5cm Feuchte A. Luftdruck Regen Wind Richtung Richtung Sonnenschein ET UV Solar Taupunkt Windchill Windben Empfang
14.10.2018 00:00 13,3 C 12,8 C 10,0 C 65 % 1018,2 hPa 0,0 l/m 8,6 km/h (2 Bft) O 101 0 min 0,000 mm 0,0 UV-I 0 W/m 6,9 C 12,0 C 12,9 km/h (3 Bft) 100,00 %
14.10.2018 00:02 13,3 C 12,8 C 10,0 C 64 % 1018,2 hPa 0,0 l/m 10,6 km/h (2 Bft) O 98 0 min 0,000 mm 0,0 UV-I 0 W/m 6,6 C 10,9 C 12,9 km/h (3 Bft) 100,00 %
14.10.2018 00:04 13,3 C 12,8 C 10,0 C 64 % 1018,2 hPa 0,0 l/m 9,4 km/h (2 Bft) O-NO 61 0 min 0,000 mm 0,0 UV-I 0 W/m 6,6 C 11,5 C 14,5 km/h (3 Bft) 100,00 %
14.10.2018 00:06 13,4 C 12,8 C 10,6 C 64 % 1018,2 hPa 0,0 l/m 10,0 km/h (2 Bft) O 87 0 min 0,000 mm 0,0 UV-I 0 W/m 6,7 C 11,4 C 14,5 km/h (3 Bft) 100,00 %
14.10.2018 00:08 13,4 C 12,8 C 10,6 C 64 % 1018,2 hPa 0,0 l/m 9,5 km/h (2 Bft) NO 56 0 min 0,000 mm 0,0 UV-I 0 W/m 6,7 C 11,6 C 14,5 km/h (3 Bft) 98,11 %
14.10.2018 00:10 13,5 C 12,8 C 10,6 C 63 % 1018,2 hPa 0,0 l/m 9,9 km/h (2 Bft) O 98 0 min 0,000 mm 0,0 UV-I 0 W/m 6,6 C 11,5 C 14,5 km/h (3 Bft) 97,37 %
14.10.2018 00:12 13,5 C 12,8 C 10,6 C 63 % 1018,2 hPa 0,0 l/m 9,6 km/h (2 Bft) O 86 0 min 0,000 mm 0,0 UV-I 0 W/m 6,6 C 11,7 C 14,5 km/h (3 Bft) 100,00 %
14.10.2018 00:14 13,5 C 12,8 C 10,6 C 63 % 1018,2 hPa 0,0 l/m 9,2 km/h (2 Bft) O 90 0 min 0,000 mm 0,0 UV-I 0 W/m 6,6 C 11,9 C 12,9 km/h (3 Bft) 97,87 %
14.10.2018 00:16 13,6 C 12,8 C 10,6 C 62 % 1018,2 hPa 0,0 l/m 10,5 km/h (2 Bft) O 99 0 min 0,000 mm 0,0 UV-I 0 W/m 6,5 C 11,3 C 14,5 km/h (3 Bft) 100,00 %
14.10.2018 00:18 13,6 C 12,8 C 10,6 C 62 % 1018,2 hPa 0,0 l/m 8,5 km/h (2 Bft) O 87 0 min 0,000 mm 0,0 UV-I 0 W/m 6,5 C 12,4 C 11,3 km/h (2 Bft) 100,00 %
14.10.2018 00:20 13,5 C 12,8 C 10,6 C 62 % 1018,2 hPa 0,0 l/m 9,6 km/h (2 Bft) O 84 0 min 0,000 mm 0,0 UV-I 0 W/m 6,4 C 11,7 C 12,9 km/h (3 Bft) 97,14 %
14.10.2018 00:22 13,5 C 12,8 C 10,6 C 62 % 1018,2 hPa 0,0 l/m 9,7 km/h (2 Bft) O 84 0 min 0,000 mm 0,0 UV-I 0 W/m 6,4 C 11,6 C 12,9 km/h (3 Bft) 96,23 %
14.10.2018 00:24 13,4 C 12,8 C 10,6 C 62 % 1018,2 hPa 0,0 l/m 9,1 km/h (2 Bft) O-NO 77 0 min 0,000 mm 0,0 UV-I 0 W/m 6,3 C 11,8 C 12,9 km/h (3 Bft) 97,37 %
14.10.2018 00:26 13,4 C 12,8 C 10,6 C 62 % 1018,3 hPa 0,0 l/m 8,4 km/h (2 Bft) O-NO 76 0 min 0,000 mm 0,0 UV-I 0 W/m 6,3 C 12,2 C 12,9 km/h (3 Bft) 96,00 %
14.10.2018 00:28 13,3 C 12,8 C 10,0 C 63 % 1018,2 hPa 0,0 l/m 9,1 km/h (2 Bft) O-NO 68 0 min 0,000 mm 0,0 UV-I 0 W/m 6,4 C 11,7 C 12,9 km/h (3 Bft) 98,11 %
14.10.2018 00:30 13,2 C 12,8 C 10,0 C 63 % 1018,2 hPa 0,0 l/m 9,9 km/h (2 Bft) O-NO 65 0 min 0,000 mm 0,0 UV-I 0 W/m 6,3 C 11,2 C 14,5 km/h (3 Bft) 97,87 %
14.10.2018 00:32 12,9 C 12,8 C 10,0 C 64 % 1018,2 hPa 0,0 l/m 8,3 km/h (2 Bft) O-NO 68 0 min 0,000 mm 0,0 UV-I 0 W/m 6,3 C 11,7 C 12,9 km/h (3 Bft) 97,87 %
14.10.2018 00:34 12,8 C 12,8 C 10,0 C 65 % 1018,2 hPa 0,0 l/m 7,9 km/h (2 Bft) O-NO 61 0 min 0,000 mm 0,0 UV-I 0 W/m 6,4 C 11,9 C 12,9 km/h (3 Bft) 97,56 %
14.10.2018 00:36 12,5 C 12,8 C 10,0 C 65 % 1018,2 hPa 0,0 l/m 8,2 km/h (2 Bft) NO 54 0 min 0,000 mm 0,0 UV-I 0 W/m 6,1 C 11,4 C 11,3 km/h (2 Bft) 98,00 %
14.10.2018 00:38 12,3 C 12,8 C 9,4 C 66 % 1018,2 hPa 0,0 l/m 7,5 km/h (2 Bft) O-NO 63 0 min 0,000 mm 0,0 UV-I 0 W/m 6,1 C 11,6 C 9,7 km/h (2 Bft) 98,00 %
14.10.2018 00:40 12,2 C 12,8 C 9,4 C 67 % 1018,2 hPa 0,0 l/m 8,2 km/h (2 Bft) O-NO 57 0 min 0,000 mm 0,0 UV-I 0 W/m 6,3 C 11,0 C 12,9 km/h (3 Bft) 98,00 %
14.10.2018 00:42 12,1 C 12,8 C 9,4 C 67 % 1018,1 hPa 0,0 l/m 6,9 km/h (2 Bft) O-NO 65 0 min 0,000 mm 0,0 UV-I 0 W/m 6,2 C 11,8 C 8,0 km/h (2 Bft) 97,44 %
14.10.2018 00:44 12,0 C 12,8 C 8,9 C 67 % 1018,2 hPa 0,0 l/m 6,0 km/h (2 Bft) O-NO 59 0 min 0,000 mm 0,0 UV-I 0 W/m 6,1 C 12,0 C 8,0 km/h (2 Bft) 98,00 %
14.10.2018 00:46 12,1 C 12,8 C 8,9 C 67 % 1018,2 hPa 0,0 l/m 5,9 km/h (2 Bft) O-NO 58 0 min 0,000 mm 0,0 UV-I 0 W/m 6,2 C 12,1 C 8,0 km/h (2 Bft) 100,00 %
14.10.2018 00:48 12,0 C 12,8 C 8,3 C 67 % 1018,2 hPa 0,0 l/m 6,3 km/h (2 Bft) NO 53 0 min 0,000 mm 0,0 UV-I 0 W/m 6,1 C 12,0 C 8,0 km/h (2 Bft) 100,00 %
14.10.2018 00:50 12,0 C 12,8 C 8,3 C 68 % 1018,1 hPa 0,0 l/m 7,0 km/h (2 Bft) O-NO 74 0 min 0,000 mm 0,0 UV-I 0 W/m 6,3 C 11,6 C 9,7 km/h (2 Bft) 100,00 %
14.10.2018 00:52 12,2 C 12,8 C 8,9 C 67 % 1018,1 hPa 0,0 l/m 6,2 km/h (2 Bft) O-NO 64 0 min 0,000 mm 0,0 UV-I 0 W/m 6,3 C 12,2 C 8,0 km/h (2 Bft) 100,00 %
14.10.2018 00:54 12,3 C 12,8 C 8,9 C 67 % 1018,1 hPa 0,0 l/m 5,4 km/h (1 Bft) O-NO 72 0 min 0,000 mm 0,0 UV-I 0 W/m 6,4 C 12,3 C 8,0 km/h (2 Bft) 98,21 %
14.10.2018 00:56 12,3 C 12,8 C 8,3 C 66 % 1018,1 hPa 0,0 l/m 7,9 km/h (2 Bft) O 88 0 min 0,000 mm 0,0 UV-I 0 W/m 6,1 C 11,3 C 11,3 km/h (2 Bft) 98,00 %
14.10.2018 00:58 12,3 C 12,8 C 8,9 C 66 % 1018,2 hPa 0,0 l/m 8,2 km/h (2 Bft) O-NO 67 0 min 0,000 mm 0,0 UV-I 0 W/m 6,1 C 11,1 C 12,9 km/h (3 Bft) 98,00 %
14.10.2018 01:00 12,4 C 12,8 C 8,9 C 66 % 1018,2 hPa 0,0 l/m 7,4 km/h (2 Bft) O-NO 75 0 min 0,051 mm 0,0 UV-I 0 W/m 6,2 C 11,7 C 12,9 km/h (3 Bft) 97,56 %
14.10.2018 01:02 12,4 C 12,8 C 9,4 C 66 % 1018,2 hPa 0,0 l/m 8,2 km/h (2 Bft) O-NO 61 0 min 0,000 mm 0,0 UV-I 0 W/m 6,2 C 11,3 C 12,9 km/h (3 Bft) 98,11 %
14.10.2018 01:04 12,4 C 12,8 C 9,4 C 66 % 1018,1 hPa 0,0 l/m 9,7 km/h (2 Bft) O 81 0 min 0,000 mm 0,0 UV-I 0 W/m 6,2 C 10,4 C 12,9 km/h (3 Bft) 96,00 %
14.10.2018 01:06 12,5 C 12,8 C 9,4 C 66 % 1018,2 hPa 0,0 l/m 8,7 km/h (2 Bft) O-NO 69 0 min 0,000 mm 0,0 UV-I 0 W/m 6,3 C 11,1 C 12,9 km/h (3 Bft) 97,56 %
14.10.2018 01:08 12,6 C 12,8 C 9,4 C 66 % 1018,1 hPa 0,0 l/m 8,7 km/h (2 Bft) O-NO 73 0 min 0,000 mm 0,0 UV-I 0 W/m 6,4 C 11,2 C 14,5 km/h (3 Bft) 96,23 %
14.10.2018 01:10 12,6 C 12,8 C 9,4 C 66 % 1018,0 hPa 0,0 l/m 9,1 km/h (2 Bft) O-NO 78 0 min 0,000 mm 0,0 UV-I 0 W/m 6,4 C 10,9 C 12,9 km/h (3 Bft) 95,74 %
14.10.2018 01:12 12,6 C 12,8 C 9,4 C 66 % 1018,1 hPa 0,0 l/m 8,9 km/h (2 Bft) O-NO 67 0 min 0,000 mm 0,0 UV-I 0 W/m 6,4 C 11,1 C 12,9 km/h (3 Bft) 97,87 %
14.10.2018 01:14 12,6 C 12,8 C 9,4 C 66 % 1018,1 hPa 0,0 l/m 11,0 km/h (2 Bft) O-NO 70 0 min 0,000 mm 0,0 UV-I 0 W/m 6,4 C 10,0 C 14,5 km/h (3 Bft) 97,37 %
14.10.2018 01:16 12,6 C 12,8 C 10,0 C 66 % 1018,0 hPa 0,0 l/m 12,6 km/h (3 Bft) O 84 0 min 0,000 mm 0,0 UV-I 0 W/m 6,4 C 9,2 C 14,5 km/h (3 Bft) 97,87 %
14.10.2018 01:18 12,6 C 12,8 C 10,0 C 66 % 1018,0 hPa 0,0 l/m 11,4 km/h (2 Bft) O 84 0 min 0,000 mm 0,0 UV-I 0 W/m 6,4 C 9,8 C 14,5 km/h (3 Bft) 97,92 %
14.10.2018 01:20 12,5 C 12,8 C 10,0 C 66 % 1018,1 hPa 0,0 l/m 11,8 km/h (2 Bft) O-NO 73 0 min 0,000 mm 0,0 UV-I 0 W/m 6,3 C 9,5 C 16,1 km/h (3 Bft) 97,22 %
14.10.2018 01:22 12,5 C 12,8 C 10,0 C 66 % 1018,0 hPa 0,0 l/m 8,9 km/h (2 Bft) O-NO 61 0 min 0,000 mm 0,0 UV-I 0 W/m 6,3 C 11,0 C 12,9 km/h (3 Bft) 98,39 %
14.10.2018 01:24 12,4 C 12,8 C 10,0 C 66 % 1017,9 hPa 0,0 l/m 6,5 km/h (2 Bft) O-NO 67 0 min 0,000 mm 0,0 UV-I 0 W/m 6,2 C 12,4 C 11,3 km/h (2 Bft) 98,00 %
14.10.2018 01:26 12,1 C 12,8 C 9,4 C 67 % 1018,0 hPa 0,0 l/m 6,4 km/h (2 Bft) O-NO 71 0 min 0,000 mm 0,0 UV-I 0 W/m 6,2 C 12,1 C 8,0 km/h (2 Bft) 92,31 %
14.10.2018 01:28 11,8 C 12,8 C 9,4 C 68 % 1017,9 hPa 0,0 l/m 6,6 km/h (2 Bft) O-NO 69 0 min 0,000 mm 0,0 UV-I 0 W/m 6,1 C 11,7 C 8,0 km/h (2 Bft) 94,12 %
14.10.2018 01:30 11,6 C 12,8 C 8,9 C 69 % 1017,9 hPa 0,0 l/m 7,5 km/h (2 Bft) O 82 0 min 0,000 mm 0,0 UV-I 0 W/m 6,1 C 10,9 C 12,9 km/h (3 Bft) 94,74 %
14.10.2018 01:32 11,5 C 12,8 C 8,9 C 70 % 1017,9 hPa 0,0 l/m 7,9 km/h (2 Bft) NO 49 0 min 0,000 mm 0,0 UV-I 0 W/m 6,2 C 10,5 C 11,3 km/h (2 Bft) 94,00 %
14.10.2018 01:34 11,6 C 12,8 C 8,9 C 70 % 1018,0 hPa 0,0 l/m 8,6 km/h (2 Bft) O 81 0 min 0,000 mm 0,0 UV-I 0 W/m 6,3 C 10,2 C 12,9 km/h (3 Bft) 96,00 %
14.10.2018 01:36 11,8 C 12,8 C 8,9 C 70 % 1018,0 hPa 0,0 l/m 10,1 km/h (2 Bft) O-NO 77 0 min 0,000 mm 0,0 UV-I 0 W/m 6,5 C 9,5 C 14,5 km/h (3 Bft) 97,37 %
14.10.2018 01:38 12,0 C 12,8 C 9,4 C 69 % 1018,0 hPa 0,0 l/m 11,3 km/h (2 Bft) O-NO 76 0 min 0,000 mm 0,0 UV-I 0 W/m 6,5 C 9,1 C 14,5 km/h (3 Bft) 94,34 %
14.10.2018 01:40 12,1 C 12,8 C 9,4 C 68 % 1017,9 hPa 0,0 l/m 10,3 km/h (2 Bft) O-NO 74 0 min 0,000 mm 0,0 UV-I 0 W/m 6,4 C 9,8 C 12,9 km/h (3 Bft) 92,00 %
14.10.2018 01:42 12,1 C 12,8 C 9,4 C 68 % 1017,9 hPa 0,0 l/m 10,4 km/h (2 Bft) O-SO 103 0 min 0,000 mm 0,0 UV-I 0 W/m 6,4 C 9,7 C 16,1 km/h (3 Bft) 92,68 %
14.10.2018 01:44 12,2 C 12,8 C 9,4 C 68 % 1017,9 hPa 0,0 l/m 11,4 km/h (2 Bft) O 86 0 min 0,000 mm 0,0 UV-I 0 W/m 6,5 C 9,3 C 16,1 km/h (3 Bft) 94,00 %
14.10.2018 01:46 12,2 C 12,8 C 9,4 C 68 % 1017,8 hPa 0,0 l/m 12,7 km/h (3 Bft) O 90 0 min 0,000 mm 0,0 UV-I 0 W/m 6,5 C 8,7 C 16,1 km/h (3 Bft) 93,75 %
14.10.2018 01:48 12,3 C 12,8 C 10,0 C 68 % 1017,8 hPa 0,0 l/m 13,7 km/h (3 Bft) O-SO 109 0 min 0,000 mm 0,0 UV-I 0 W/m 6,6 C 8,4 C 17,7 km/h (3 Bft) 93,62 %
14.10.2018 01:50 12,4 C 12,8 C 10,0 C 67 % 1017,8 hPa 0,0 l/m 13,0 km/h (3 Bft) O 88 0 min 0,000 mm 0,0 UV-I 0 W/m 6,4 C 8,8 C 17,7 km/h (3 Bft) 93,62 %
14.10.2018 01:52 12,6 C 12,8 C 10,0 C 67 % 1017,8 hPa 0,0 l/m 13,8 km/h (3 Bft) O 81 0 min 0,000 mm 0,0 UV-I 0 W/m 6,6 C 8,7 C 19,3 km/h (3 Bft) 84,21 %
14.10.2018 01:54 12,6 C 12,8 C 10,0 C 67 % 1017,8 hPa 0,0 l/m 11,4 km/h (2 Bft) O 82 0 min 0,000 mm 0,0 UV-I 0 W/m 6,6 C 9,8 C 16,1 km/h (3 Bft) 91,07 %
14.10.2018 01:56 12,6 C 12,8 C 10,6 C 66 % 1017,8 hPa 0,0 l/m 10,6 km/h (2 Bft) O 90 0 min 0,000 mm 0,0 UV-I 0 W/m 6,4 C 10,2 C 14,5 km/h (3 Bft) 94,87 %
14.10.2018 01:58 12,6 C 12,8 C 10,0 C 66 % 1017,8 hPa 0,0 l/m 9,8 km/h (2 Bft) O-NO 69 0 min 0,000 mm 0,0 UV-I 0 W/m 6,4 C 10,6 C 12,9 km/h (3 Bft) 95,74 %
14.10.2018 02:00 12,6 C 12,8 C 10,0 C 66 % 1017,8 hPa 0,0 l/m 10,0 km/h (2 Bft) O-NO 75 0 min 0,051 mm 0,0 UV-I 0 W/m 6,4 C 10,5 C 16,1 km/h (3 Bft) 97,87 %
14.10.2018 02:02 12,6 C 12,8 C 10,0 C 67 % 1017,9 hPa 0,0 l/m 11,0 km/h (2 Bft) O 90 0 min 0,000 mm 0,0 UV-I 0 W/m 6,6 C 10,0 C 16,1 km/h (3 Bft) 98,00 %
14.10.2018 02:04 12,5 C 12,8 C 10,0 C 67 % 1017,9 hPa 0,0 l/m 11,3 km/h (2 Bft) O 84 0 min 0,000 mm 0,0 UV-I 0 W/m 6,5 C 9,7 C 16,1 km/h (3 Bft) 98,00 %
14.10.2018 02:06 12,6 C 12,8 C 10,0 C 67 % 1017,9 hPa 0,0 l/m 10,7 km/h (2 Bft) O 96 0 min 0,000 mm 0,0 UV-I 0 W/m 6,6 C 10,1 C 14,5 km/h (3 Bft) 97,56 %
14.10.2018 02:08 12,6 C 12,8 C 10,0 C 67 % 1017,8 hPa 0,0 l/m 13,3 km/h (3 Bft) O-NO 65 0 min 0,000 mm 0,0 UV-I 0 W/m 6,6 C 9,0 C 17,7 km/h (3 Bft) 98,21 %
14.10.2018 02:10 12,6 C 12,8 C 10,0 C 67 % 1017,9 hPa 0,0 l/m 11,2 km/h (2 Bft) O-NO 57 0 min 0,000 mm 0,0 UV-I 0 W/m 6,6 C 9,9 C 16,1 km/h (3 Bft) 100,00 %
14.10.2018 02:12 12,7 C 12,8 C 10,0 C 67 % 1017,8 hPa 0,0 l/m 10,5 km/h (2 Bft) O 87 0 min 0,000 mm 0,0 UV-I 0 W/m 6,7 C 10,3 C 16,1 km/h (3 Bft) 100,00 %
14.10.2018 02:14 12,6 C 12,8 C 10,0 C 67 % 1017,9 hPa 0,0 l/m 10,6 km/h (2 Bft) O 80 0 min 0,000 mm 0,0 UV-I 0 W/m 6,6 C 10,2 C 14,5 km/h (3 Bft) 98,00 %
14.10.2018 02:16 12,6 C 12,8 C 10,0 C 67 % 1017,9 hPa 0,0 l/m 10,6 km/h (2 Bft) O 79 0 min 0,000 mm 0,0 UV-I 0 W/m 6,6 C 10,2 C 16,1 km/h (3 Bft) 100,00 %
14.10.2018 02:18 12,6 C 12,8 C 10,0 C 67 % 1017,8 hPa 0,0 l/m 10,2 km/h (2 Bft) O 90 0 min 0,000 mm 0,0 UV-I 0 W/m 6,6 C 10,4 C 12,9 km/h (3 Bft) 100,00 %
14.10.2018 02:20 12,6 C 12,8 C 10,0 C 67 % 1017,9 hPa 0,0 l/m 10,8 km/h (2 Bft) O 98 0 min 0,000 mm 0,0 UV-I 0 W/m 6,6 C 10,1 C 14,5 km/h (3 Bft) 100,00 %
14.10.2018 02:22 12,6 C 12,8 C 10,0 C 67 % 1017,9 hPa 0,0 l/m 9,2 km/h (2 Bft) O-NO 63 0 min 0,000 mm 0,0 UV-I 0 W/m 6,6 C 10,9 C 12,9 km/h (3 Bft) 100,00 %
14.10.2018 02:24 12,7 C 12,8 C 10,0 C 67 % 1017,8 hPa 0,0 l/m 11,2 km/h (2 Bft) O 94 0 min 0,000 mm 0,0 UV-I 0 W/m 6,7 C 10,0 C 16,1 km/h (3 Bft) 100,00 %
14.10.2018 02:26 12,7 C 12,8 C 10,6 C 67 % 1017,8 hPa 0,0 l/m 10,3 km/h (2 Bft) O-NO 69 0 min 0,000 mm 0,0 UV-I 0 W/m 6,7 C 10,4 C 16,1 km/h (3 Bft) 100,00 %
14.10.2018 02:28 12,7 C 12,8 C 10,0 C 67 % 1017,8 hPa 0,0 l/m 10,3 km/h (2 Bft) O 93 0 min 0,000 mm 0,0 UV-I 0 W/m 6,7 C 10,4 C 14,5 km/h (3 Bft) 100,00 %
14.10.2018 02:30 12,7 C 12,8 C 10,0 C 67 % 1017,8 hPa 0,0 l/m 8,7 km/h (2 Bft) O 99 0 min 0,000 mm 0,0 UV-I 0 W/m 6,7 C 11,3 C 12,9 km/h (3 Bft) 100,00 %
14.10.2018 02:32 12,6 C 12,8 C 10,0 C 67 % 1017,8 hPa 0,0 l/m 9,6 km/h (2 Bft) O 80 0 min 0,000 mm 0,0 UV-I 0 W/m 6,6 C 10,7 C 14,5 km/h (3 Bft) 100,00 %
14.10.2018 02:34 12,6 C 12,8 C 10,0 C 67 % 1017,8 hPa 0,0 l/m 8,9 km/h (2 Bft) O 101 0 min 0,000 mm 0,0 UV-I 0 W/m 6,6 C 11,1 C 12,9 km/h (3 Bft) 100,00 %
14.10.2018 02:36 12,6 C 12,8 C 10,0 C 67 % 1017,8 hPa 0,0 l/m 10,0 km/h (2 Bft) O-NO 74 0 min 0,000 mm 0,0 UV-I 0 W/m 6,6 C 10,5 C 14,5 km/h (3 Bft) 100,00 %
14.10.2018 02:38 12,6 C 12,8 C 10,0 C 67 % 1017,8 hPa 0,0 l/m 11,7 km/h (2 Bft) O-NO 69 0 min 0,000 mm 0,0 UV-I 0 W/m 6,6 C 9,6 C 16,1 km/h (3 Bft) 100,00 %
14.10.2018 02:40 12,6 C 12,8 C 10,0 C 67 % 1017,8 hPa 0,0 l/m 12,8 km/h (3 Bft) O-NO 75 0 min 0,000 mm 0,0 UV-I 0 W/m 6,6 C 9,2 C 17,7 km/h (3 Bft) 100,00 %
14.10.2018 02:42 12,6 C 12,8 C 10,0 C 67 % 1017,8 hPa 0,0 l/m 10,4 km/h (2 Bft) O 84 0 min 0,000 mm 0,0 UV-I 0 W/m 6,6 C 10,3 C 14,5 km/h (3 Bft) 100,00 %
14.10.2018 02:44 12,5 C 12,8 C 10,0 C 68 % 1017,8 hPa 0,0 l/m 11,6 km/h (2 Bft) O 90 0 min 0,000 mm 0,0 UV-I 0 W/m 6,8 C 9,6 C 14,5 km/h (3 Bft) 98,28 %
14.10.2018 02:46 12,4 C 12,8 C 10,0 C 68 % 1017,8 hPa 0,0 l/m 10,9 km/h (2 Bft) O 79 0 min 0,000 mm 0,0 UV-I 0 W/m 6,7 C 9,8 C 14,5 km/h (3 Bft) 98,00 %
14.10.2018 02:48 12,3 C 12,8 C 10,0 C 69 % 1017,8 hPa 0,0 l/m 9,5 km/h (2 Bft) O 90 0 min 0,000 mm 0,0 UV-I 0 W/m 6,8 C 10,4 C 12,9 km/h (3 Bft) 100,00 %
14.10.2018 02:50 12,2 C 12,8 C 10,0 C 69 % 1017,7 hPa 0,0 l/m 8,9 km/h (2 Bft) O-NO 76 0 min 0,000 mm 0,0 UV-I 0 W/m 6,7 C 10,6 C 14,5 km/h (3 Bft) 100,00 %
14.10.2018 02:52 12,2 C 12,8 C 10,0 C 69 % 1017,6 hPa 0,0 l/m 11,1 km/h (2 Bft) O-NO 78 0 min 0,000 mm 0,0 UV-I 0 W/m 6,7 C 9,5 C 14,5 km/h (3 Bft) 100,00 %
14.10.2018 02:54 12,3 C 12,8 C 10,0 C 69 % 1017,6 hPa 0,0 l/m 11,3 km/h (2 Bft) O-NO 69 0 min 0,000 mm 0,0 UV-I 0 W/m 6,8 C 9,5 C 14,5 km/h (3 Bft) 100,00 %
14.10.2018 02:56 12,3 C 12,8 C 10,0 C 69 % 1017,6 hPa 0,0 l/m 11,7 km/h (2 Bft) O-NO 73 0 min 0,000 mm 0,0 UV-I 0 W/m 6,8 C 9,3 C 14,5 km/h (3 Bft) 100,00 %
14.10.2018 02:58 12,3 C 12,8 C 10,0 C 69 % 1017,6 hPa 0,0 l/m 11,2 km/h (2 Bft) O 82 0 min 0,000 mm 0,0 UV-I 0 W/m 6,8 C 9,5 C 14,5 km/h (3 Bft) 98,11 %
14.10.2018 03:00 12,2 C 12,8 C 10,0 C 70 % 1017,6 hPa 0,0 l/m 9,7 km/h (2 Bft) O-NO 73 0 min 0,050 mm 0,0 UV-I 0 W/m 6,9 C 10,2 C 14,5 km/h (3 Bft) 100,00 %
14.10.2018 03:02 12,2 C 12,8 C 10,0 C 70 % 1017,6 hPa 0,0 l/m 11,6 km/h (2 Bft) O 82 0 min 0,000 mm 0,0 UV-I 0 W/m 6,9 C 9,2 C 16,1 km/h (3 Bft) 97,56 %
14.10.2018 03:04 12,2 C 12,8 C 10,0 C 70 % 1017,6 hPa 0,0 l/m 12,3 km/h (3 Bft) O 87 0 min 0,000 mm 0,0 UV-I 0 W/m 6,9 C 8,9 C 17,7 km/h (3 Bft) 96,00 %
14.10.2018 03:06 12,3 C 12,8 C 10,0 C 70 % 1017,6 hPa 0,0 l/m 12,6 km/h (3 Bft) O 90 0 min 0,000 mm 0,0 UV-I 0 W/m 7,0 C 8,9 C 17,7 km/h (3 Bft) 95,12 %
14.10.2018 03:08 12,3 C 12,8 C 10,0 C 69 % 1017,6 hPa 0,0 l/m 12,9 km/h (3 Bft) O 97 0 min 0,000 mm 0,0 UV-I 0 W/m 6,8 C 8,8 C 16,1 km/h (3 Bft) 96,23 %
14.10.2018 03:10 12,4 C 12,8 C 10,0 C 69 % 1017,5 hPa 0,0 l/m 13,1 km/h (3 Bft) O 79 0 min 0,000 mm 0,0 UV-I 0 W/m 6,9 C 8,8 C 16,1 km/h (3 Bft) 98,00 %
14.10.2018 03:12 12,5 C 12,8 C 10,0 C 69 % 1017,5 hPa 0,0 l/m 12,2 km/h (2 Bft) O 100 0 min 0,000 mm 0,0 UV-I 0 W/m 7,0 C 9,3 C 16,1 km/h (3 Bft) 97,62 %
14.10.2018 03:14 12,6 C 12,8 C 10,0 C 68 % 1017,5 hPa 0,0 l/m 12,6 km/h (3 Bft) O 90 0 min 0,000 mm 0,0 UV-I 0 W/m 6,9 C 9,2 C 16,1 km/h (3 Bft) 97,87 %
14.10.2018 03:16 12,6 C 12,8 C 10,0 C 68 % 1017,5 hPa 0,0 l/m 11,9 km/h (2 Bft) O 88 0 min 0,000 mm 0,0 UV-I 0 W/m 6,9 C 9,6 C 16,1 km/h (3 Bft) 98,08 %
14.10.2018 03:18 12,6 C 12,8 C 10,0 C 68 % 1017,5 hPa 0,0 l/m 12,7 km/h (3 Bft) O-SO 113 0 min 0,000 mm 0,0 UV-I 0 W/m 6,9 C 9,2 C 16,1 km/h (3 Bft) 97,22 %
14.10.2018 03:20 12,7 C 12,8 C 10,0 C 68 % 1017,5 hPa 0,0 l/m 11,4 km/h (2 Bft) O 86 0 min 0,000 mm 0,0 UV-I 0 W/m 6,9 C 9,9 C 16,1 km/h (3 Bft) 98,00 %
14.10.2018 03:22 12,7 C 12,8 C 10,0 C 68 % 1017,5 hPa 0,0 l/m 10,8 km/h (2 Bft) O 86 0 min 0,000 mm 0,0 UV-I 0 W/m 6,9 C 10,2 C 14,5 km/h (3 Bft) 98,11 %
14.10.2018 03:24 12,7 C 12,8 C 10,0 C 67 % 1017,5 hPa 0,0 l/m 9,8 km/h (2 Bft) O-SO 102 0 min 0,000 mm 0,0 UV-I 0 W/m 6,7 C 10,7 C 14,5 km/h (3 Bft) 97,87 %
14.10.2018 03:26 12,7 C 12,8 C 10,0 C 67 % 1017,5 hPa 0,0 l/m 9,2 km/h (2 Bft) O 90 0 min 0,000 mm 0,0 UV-I 0 W/m 6,7 C 11,0 C 14,5 km/h (3 Bft) 97,37 %
14.10.2018 03:28 12,7 C 12,8 C 10,0 C 67 % 1017,5 hPa 0,0 l/m 5,9 km/h (2 Bft) O-NO 64 0 min 0,000 mm 0,0 UV-I 0 W/m 6,7 C 12,7 C 9,7 km/h (2 Bft) 97,87 %
14.10.2018 03:30 12,3 C 12,8 C 9,4 C 68 % 1017,6 hPa 0,0 l/m 7,1 km/h (2 Bft) O-NO 73 0 min 0,000 mm 0,0 UV-I 0 W/m 6,6 C 11,8 C 8,0 km/h (2 Bft) 97,87 %
14.10.2018 03:32 11,8 C 12,8 C 9,4 C 70 % 1017,5 hPa 0,0 l/m 5,9 km/h (2 Bft) O-NO 69 0 min 0,000 mm 0,0 UV-I 0 W/m 6,5 C 11,8 C 11,3 km/h (2 Bft) 98,00 %
14.10.2018 03:34 11,6 C 12,8 C 8,9 C 71 % 1017,5 hPa 0,0 l/m 5,8 km/h (2 Bft) O-NO 70 0 min 0,000 mm 0,0 UV-I 0 W/m 6,5 C 11,6 C 8,0 km/h (2 Bft) 98,11 %
14.10.2018 03:36 11,6 C 12,8 C 8,9 C 72 % 1017,4 hPa 0,0 l/m 6,1 km/h (2 Bft) O 80 0 min 0,000 mm 0,0 UV-I 0 W/m 6,7 C 11,6 C 8,0 km/h (2 Bft) 95,74 %
14.10.2018 03:38 11,7 C 12,8 C 8,9 C 71 % 1017,4 hPa 0,0 l/m 7,7 km/h (2 Bft) O-NO 77 0 min 0,000 mm 0,0 UV-I 0 W/m 6,6 C 10,8 C 11,3 km/h (2 Bft) 95,74 %
14.10.2018 03:41 12,1 C 12,8 C 8,9 C 70 % 1017,4 hPa 0,0 l/m 6,5 km/h (2 Bft) O-NO 72 0 min 0,000 mm 0,0 UV-I 0 W/m 6,8 C 12,1 C 11,3 km/h (2 Bft) 98,39 %
14.10.2018 03:42 12,1 C 12,8 C 8,9 C 70 % 1017,4 hPa 0,0 l/m 6,9 km/h (2 Bft) O-NO 63 0 min 0,000 mm 0,0 UV-I 0 W/m 6,8 C 11,8 C 9,7 km/h (2 Bft) 95,65 %
14.10.2018 03:46 12,1 C 12,8 C 8,9 C 70 % 1017,4 hPa 0,0 l/m 6,4 km/h (2 Bft) O 97 0 min 0,000 mm 0,0 UV-I 0 W/m 6,8 C 12,1 C 11,3 km/h (2 Bft) 97,09 %
14.10.2018 03:48 12,1 C 12,8 C 8,9 C 70 % 1017,4 hPa 0,0 l/m 8,4 km/h (2 Bft) O-SO 103 0 min 0,000 mm 0,0 UV-I 0 W/m 6,8 C 10,8 C 12,9 km/h (3 Bft) 97,56 %
14.10.2018 03:50 12,1 C 12,8 C 8,9 C 70 % 1017,3 hPa 0,0 l/m 10,2 km/h (2 Bft) O 84 0 min 0,000 mm 0,0 UV-I 0 W/m 6,8 C 9,8 C 12,9 km/h (3 Bft) 98,00 %
14.10.2018 03:52 12,2 C 12,8 C 8,9 C 70 % 1017,3 hPa 0,0 l/m 10,7 km/h (2 Bft) O 82 0 min 0,000 mm 0,0 UV-I 0 W/m 6,9 C 9,7 C 16,1 km/h (3 Bft) 95,24 %
14.10.2018 03:54 12,4 C 12,8 C 9,4 C 69 % 1017,3 hPa 0,0 l/m 10,6 km/h (2 Bft) O 96 0 min 0,000 mm 0,0 UV-I 0 W/m 6,9 C 9,9 C 16,1 km/h (3 Bft) 97,73 %
14.10.2018 03:56 12,6 C 12,8 C 9,4 C 68 % 1017,3 hPa 0,0 l/m 12,0 km/h (2 Bft) O 86 0 min 0,000 mm 0,0 UV-I 0 W/m 6,9 C 9,5 C 16,1 km/h (3 Bft) 98,00 %
14.10.2018 03:58 12,7 C 12,8 C 9,4 C 68 % 1017,3 hPa 0,0 l/m 11,9 km/h (2 Bft) O-SO 118 0 min 0,000 mm 0,0 UV-I 0 W/m 6,9 C 9,7 C 17,7 km/h (3 Bft) 96,00 %
14.10.2018 04:00 12,8 C 12,8 C 9,4 C 67 % 1017,3 hPa 0,0 l/m 13,4 km/h (3 Bft) O 101 0 min 0,051 mm 0,0 UV-I 0 W/m 6,8 C 9,1 C 19,3 km/h (3 Bft) 97,56 %
14.10.2018 04:02 13,0 C 12,8 C 10,0 C 67 % 1017,3 hPa 0,0 l/m 15,3 km/h (3 Bft) O-SO 106 0 min 0,000 mm 0,0 UV-I 0 W/m 7,0 C 8,7 C 19,3 km/h (3 Bft) 100,00 %
14.10.2018 04:04 13,1 C 12,8 C 10,0 C 66 % 1017,2 hPa 0,0 l/m 12,3 km/h (3 Bft) O 98 0 min 0,000 mm 0,0 UV-I 0 W/m 6,9 C 10,0 C 16,1 km/h (3 Bft) 100,00 %
14.10.2018 04:06 13,1 C 12,8 C 10,0 C 66 % 1017,3 hPa 0,0 l/m 12,4 km/h (3 Bft) O-SO 119 0 min 0,000 mm 0,0 UV-I 0 W/m 6,9 C 9,9 C 17,7 km/h (3 Bft) 100,00 %
14.10.2018 04:08 13,1 C 12,8 C 10,6 C 66 % 1017,3 hPa 0,0 l/m 13,0 km/h (3 Bft) O-SO 104 0 min 0,000 mm 0,0 UV-I 0 W/m 6,9 C 9,7 C 17,7 km/h (3 Bft) 100,00 %
14.10.2018 04:10 13,1 C 12,8 C 10,6 C 66 % 1017,2 hPa 0,0 l/m 13,4 km/h (3 Bft) O-SO 102 0 min 0,000 mm 0,0 UV-I 0 W/m 6,9 C 9,5 C 19,3 km/h (3 Bft) 100,00 %
14.10.2018 04:12 13,1 C 12,8 C 10,6 C 66 % 1017,3 hPa 0,0 l/m 13,5 km/h (3 Bft) O 91 0 min 0,000 mm 0,0 UV-I 0 W/m 6,9 C 9,5 C 19,3 km/h (3 Bft) 100,00 %
14.10.2018 04:14 13,2 C 12,8 C 10,6 C 66 % 1017,2 hPa 0,0 l/m 11,6 km/h (2 Bft) O 84 0 min 0,000 mm 0,0 UV-I 0 W/m 7,0 C 10,4 C 16,1 km/h (3 Bft) 100,00 %
14.10.2018 04:16 13,2 C 12,8 C 10,6 C 65 % 1017,2 hPa 0,0 l/m 12,8 km/h (3 Bft) O 90 0 min 0,000 mm 0,0 UV-I 0 W/m 6,8 C 9,9 C 16,1 km/h (3 Bft) 100,00 %
14.10.2018 04:18 13,3 C 12,8 C 10,6 C 65 % 1017,2 hPa 0,0 l/m 10,8 km/h (2 Bft) O 84 0 min 0,000 mm 0,0 UV-I 0 W/m 6,9 C 10,9 C 17,7 km/h (3 Bft) 100,00 %
14.10.2018 04:20 13,3 C 12,8 C 10,6 C 65 % 1017,2 hPa 0,0 l/m 13,1 km/h (3 Bft) O-SO 107 0 min 0,000 mm 0,0 UV-I 0 W/m 6,9 C 9,9 C 17,7 km/h (3 Bft) 100,00 %
14.10.2018 04:22 13,3 C 12,8 C 10,6 C 65 % 1017,2 hPa 0,0 l/m 10,2 km/h (2 Bft) O 90 0 min 0,000 mm 0,0 UV-I 0 W/m 6,9 C 11,1 C 14,5 km/h (3 Bft) 100,00 %
14.10.2018 04:24 13,2 C 12,8 C 10,6 C 65 % 1017,2 hPa 0,0 l/m 9,4 km/h (2 Bft) O 94 0 min 0,000 mm 0,0 UV-I 0 W/m 6,8 C 11,4 C 12,9 km/h (3 Bft) 100,00 %
14.10.2018 04:26 13,2 C 12,8 C 10,6 C 65 % 1017,2 hPa 0,0 l/m 8,0 km/h (2 Bft) O-NO 69 0 min 0,000 mm 0,0 UV-I 0 W/m 6,8 C 12,2 C 12,9 km/h (3 Bft) 97,62 %
14.10.2018 04:28 12,9 C 12,8 C 10,0 C 66 % 1017,2 hPa 0,0 l/m 7,1 km/h (2 Bft) O-NO 78 0 min 0,000 mm 0,0 UV-I 0 W/m 6,7 C 12,5 C 12,9 km/h (3 Bft) 96,36 %
14.10.2018 04:30 12,7 C 12,8 C 10,0 C 67 % 1017,1 hPa 0,0 l/m 6,4 km/h (2 Bft) O-NO 66 0 min 0,000 mm 0,0 UV-I 0 W/m 6,7 C 12,7 C 11,3 km/h (2 Bft) 95,74 %
14.10.2018 04:32 12,6 C 12,8 C 9,4 C 67 % 1017,1 hPa 0,0 l/m 7,6 km/h (2 Bft) O 91 0 min 0,000 mm 0,0 UV-I 0 W/m 6,6 C 11,8 C 12,9 km/h (3 Bft) 97,44 %
14.10.2018 04:34 12,6 C 12,8 C 9,4 C 67 % 1017,1 hPa 0,0 l/m 7,9 km/h (2 Bft) O 91 0 min 0,000 mm 0,0 UV-I 0 W/m 6,6 C 11,6 C 12,9 km/h (3 Bft) 95,74 %
14.10.2018 04:36 12,7 C 12,8 C 10,0 C 67 % 1017,1 hPa 0,0 l/m 8,4 km/h (2 Bft) O 93 0 min 0,000 mm 0,0 UV-I 0 W/m 6,7 C 11,5 C 11,3 km/h (2 Bft) 97,73 %
14.10.2018 04:38 12,7 C 12,8 C 9,4 C 67 % 1017,2 hPa 0,0 l/m 10,2 km/h (2 Bft) O-SO 102 0 min 0,000 mm 0,0 UV-I 0 W/m 6,7 C 10,5 C 14,5 km/h (3 Bft) 96,43 %
14.10.2018 04:40 12,7 C 12,8 C 9,4 C 67 % 1017,1 hPa 0,0 l/m 10,6 km/h (2 Bft) SO 126 0 min 0,000 mm 0,0 UV-I 0 W/m 6,7 C 10,3 C 14,5 km/h (3 Bft) 100,00 %
14.10.2018 04:42 12,8 C 12,8 C 9,4 C 66 % 1017,1 hPa 0,0 l/m 8,7 km/h (2 Bft) O 82 0 min 0,000 mm 0,0 UV-I 0 W/m 6,6 C 11,4 C 12,9 km/h (3 Bft) 97,06 %
14.10.2018 04:44 13,1 C 12,8 C 9,4 C 65 % 1017,1 hPa 0,0 l/m 8,0 km/h (2 Bft) O 81 0 min 0,000 mm 0,0 UV-I 0 W/m 6,7 C 12,1 C 14,5 km/h (3 Bft) 97,87 %
14.10.2018 04:46 13,1 C 12,8 C 9,4 C 65 % 1017,1 hPa 0,0 l/m 11,6 km/h (2 Bft) O 83 0 min 0,000 mm 0,0 UV-I 0 W/m 6,7 C 10,3 C 12,9 km/h (3 Bft) 97,87 %
14.10.2018 04:48 13,1 C 12,8 C 10,0 C 65 % 1017,1 hPa 0,0 l/m 7,0 km/h (2 Bft) O-NO 57 0 min 0,000 mm 0,0 UV-I 0 W/m 6,7 C 12,7 C 12,9 km/h (3 Bft) 100,00 %
14.10.2018 04:50 12,6 C 12,8 C 9,4 C 65 % 1017,2 hPa 0,0 l/m 6,3 km/h (2 Bft) O-NO 67 0 min 0,000 mm 0,0 UV-I 0 W/m 6,2 C 12,6 C 8,0 km/h (2 Bft) 100,00 %
14.10.2018 04:52 12,3 C 12,8 C 9,4 C 67 % 1017,2 hPa 0,0 l/m 5,9 km/h (2 Bft) O-NO 72 0 min 0,000 mm 0,0 UV-I 0 W/m 6,4 C 12,3 C 8,0 km/h (2 Bft) 100,00 %
14.10.2018 04:54 12,2 C 12,8 C 8,9 C 68 % 1017,2 hPa 0,0 l/m 5,4 km/h (1 Bft) O 80 0 min 0,000 mm 0,0 UV-I 0 W/m 6,5 C 12,2 C 6,4 km/h (2 Bft) 100,00 %
14.10.2018 04:56 12,3 C 12,8 C 8,9 C 68 % 1017,2 hPa 0,0 l/m 6,1 km/h (2 Bft) O-NO 67 0 min 0,000 mm 0,0 UV-I 0 W/m 6,6 C 12,3 C 8,0 km/h (2 Bft) 100,00 %
14.10.2018 04:58 12,4 C 12,8 C 8,9 C 67 % 1017,2 hPa 0,0 l/m 5,9 km/h (2 Bft) O-NO 77 0 min 0,000 mm 0,0 UV-I 0 W/m 6,4 C 12,4 C 8,0 km/h (2 Bft) 100,00 %
14.10.2018 05:00 12,5 C 12,8 C 8,3 C 67 % 1017,1 hPa 0,0 l/m 6,5 km/h (2 Bft) O-NO 59 0 min 0,051 mm 0,0 UV-I 0 W/m 6,5 C 12,5 C 9,7 km/h (2 Bft) 100,00 %
14.10.2018 05:02 12,6 C 12,8 C 8,3 C 67 % 1017,2 hPa 0,0 l/m 6,9 km/h (2 Bft) O-NO 77 0 min 0,000 mm 0,0 UV-I 0 W/m 6,6 C 12,3 C 11,3 km/h (2 Bft) 100,00 %
14.10.2018 05:04 12,6 C 12,8 C 8,9 C 67 % 1017,1 hPa 0,0 l/m 6,4 km/h (2 Bft) O-NO 65 0 min 0,000 mm 0,0 UV-I 0 W/m 6,6 C 12,6 C 8,0 km/h (2 Bft) 97,73 %
14.10.2018 05:06 12,7 C 12,8 C 8,9 C 66 % 1017,2 hPa 0,0 l/m 7,1 km/h (2 Bft) O-NO 74 0 min 0,000 mm 0,0 UV-I 0 W/m 6,5 C 12,3 C 11,3 km/h (2 Bft) 96,00 %
14.10.2018 05:08 12,7 C 12,8 C 8,9 C 66 % 1017,2 hPa 0,0 l/m 7,8 km/h (2 Bft) O-SO 102 0 min 0,000 mm 0,0 UV-I 0 W/m 6,5 C 11,8 C 12,9 km/h (3 Bft) 97,56 %
14.10.2018 05:10 12,5 C 12,8 C 8,9 C 66 % 1017,1 hPa 0,0 l/m 7,4 km/h (2 Bft) O 98 0 min 0,000 mm 0,0 UV-I 0 W/m 6,3 C 11,9 C 9,7 km/h (2 Bft) 98,21 %
14.10.2018 05:12 12,6 C 12,8 C 8,3 C 67 % 1017,1 hPa 0,0 l/m 7,6 km/h (2 Bft) O 91 0 min 0,000 mm 0,0 UV-I 0 W/m 6,6 C 11,8 C 11,3 km/h (2 Bft) 97,87 %
14.10.2018 05:14 12,7 C 12,8 C 8,9 C 66 % 1017,2 hPa 0,0 l/m 8,5 km/h (2 Bft) O 101 0 min 0,000 mm 0,0 UV-I 0 W/m 6,5 C 11,4 C 12,9 km/h (3 Bft) 95,74 %
14.10.2018 05:16 12,8 C 12,8 C 8,9 C 65 % 1017,1 hPa 0,0 l/m 6,1 km/h (2 Bft) O-NO 66 0 min 0,000 mm 0,0 UV-I 0 W/m 6,4 C 12,8 C 11,3 km/h (2 Bft) 97,56 %
14.10.2018 05:18 12,9 C 12,8 C 9,4 C 65 % 1017,1 hPa 0,0 l/m 7,7 km/h (2 Bft) O-NO 63 0 min 0,000 mm 0,0 UV-I 0 W/m 6,5 C 12,1 C 12,9 km/h (3 Bft) 98,00 %
14.10.2018 05:20 12,7 C 12,8 C 8,9 C 66 % 1017,2 hPa 0,0 l/m 5,9 km/h (2 Bft) O-NO 64 0 min 0,000 mm 0,0 UV-I 0 W/m 6,5 C 12,7 C 8,0 km/h (2 Bft) 97,73 %
14.10.2018 05:22 12,2 C 12,8 C 8,9 C 67 % 1017,2 hPa 0,0 l/m 6,8 km/h (2 Bft) NO 47 0 min 0,000 mm 0,0 UV-I 0 W/m 6,3 C 11,9 C 9,7 km/h (2 Bft) 98,11 %
14.10.2018 05:24 11,9 C 12,8 C 8,9 C 68 % 1017,2 hPa 0,0 l/m 6,0 km/h (2 Bft) O-NO 57 0 min 0,000 mm 0,0 UV-I 0 W/m 6,2 C 11,9 C 8,0 km/h (2 Bft) 95,74 %
14.10.2018 05:26 11,8 C 12,8 C 8,9 C 69 % 1017,2 hPa 0,0 l/m 7,3 km/h (2 Bft) O-NO 67 0 min 0,000 mm 0,0 UV-I 0 W/m 6,3 C 11,2 C 9,7 km/h (2 Bft) 97,87 %
14.10.2018 05:28 11,8 C 12,8 C 8,3 C 69 % 1017,1 hPa 0,0 l/m 6,5 km/h (2 Bft) O-NO 77 0 min 0,000 mm 0,0 UV-I 0 W/m 6,3 C 11,8 C 8,0 km/h (2 Bft) 92,11 %
14.10.2018 05:30 11,8 C 12,8 C 8,3 C 69 % 1017,1 hPa 0,0 l/m 6,9 km/h (2 Bft) O-NO 74 0 min 0,000 mm 0,0 UV-I 0 W/m 6,3 C 11,5 C 9,7 km/h (2 Bft) 96,00 %
14.10.2018 05:32 11,9 C 12,8 C 8,3 C 69 % 1017,1 hPa 0,0 l/m 8,0 km/h (2 Bft) O-NO 66 0 min 0,000 mm 0,0 UV-I 0 W/m 6,4 C 10,8 C 11,3 km/h (2 Bft) 95,74 %
14.10.2018 05:34 11,9 C 12,8 C 8,9 C 68 % 1017,1 hPa 0,0 l/m 6,9 km/h (2 Bft) O-NO 68 0 min 0,000 mm 0,0 UV-I 0 W/m 6,2 C 11,6 C 11,3 km/h (2 Bft) 96,23 %
14.10.2018 05:36 11,9 C 12,8 C 8,9 C 68 % 1017,0 hPa 0,0 l/m 9,5 km/h (2 Bft) O-SO 105 0 min 0,000 mm 0,0 UV-I 0 W/m 6,2 C 10,0 C 12,9 km/h (3 Bft) 94,29 %
14.10.2018 05:38 11,9 C 12,8 C 8,9 C 68 % 1017,0 hPa 0,0 l/m 10,9 km/h (2 Bft) O 95 0 min 0,000 mm 0,0 UV-I 0 W/m 6,2 C 9,2 C 12,9 km/h (3 Bft) 96,61 %
14.10.2018 05:40 11,9 C 12,8 C 8,9 C 69 % 1017,0 hPa 0,0 l/m 8,9 km/h (2 Bft) O 86 0 min 0,000 mm 0,0 UV-I 0 W/m 6,4 C 10,3 C 12,9 km/h (3 Bft) 91,67 %
14.10.2018 05:42 12,1 C 12,8 C 8,9 C 68 % 1017,0 hPa 0,0 l/m 7,8 km/h (2 Bft) O-NO 65 0 min 0,000 mm 0,0 UV-I 0 W/m 6,4 C 11,2 C 11,3 km/h (2 Bft) 95,31 %
14.10.2018 05:44 12,2 C 12,8 C 8,9 C 68 % 1017,0 hPa 0,0 l/m 6,8 km/h (2 Bft) O-NO 59 0 min 0,000 mm 0,0 UV-I 0 W/m 6,5 C 11,9 C 11,3 km/h (2 Bft) 97,22 %
14.10.2018 05:46 12,2 C 12,8 C 8,9 C 67 % 1017,1 hPa 0,0 l/m 6,3 km/h (2 Bft) O-NO 71 0 min 0,000 mm 0,0 UV-I 0 W/m 6,3 C 12,2 C 11,3 km/h (2 Bft) 92,00 %
14.10.2018 05:48 12,3 C 12,8 C 8,9 C 67 % 1017,1 hPa 0,0 l/m 6,7 km/h (2 Bft) O-NO 74 0 min 0,000 mm 0,0 UV-I 0 W/m 6,4 C 12,1 C 8,0 km/h (2 Bft) 96,23 %
14.10.2018 05:50 12,2 C 12,8 C 8,9 C 67 % 1017,0 hPa 0,0 l/m 6,9 km/h (2 Bft) O-NO 73 0 min 0,000 mm 0,0 UV-I 0 W/m 6,3 C 11,9 C 11,3 km/h (2 Bft) 90,57 %
14.10.2018 05:52 12,1 C 12,8 C 8,9 C 67 % 1017,0 hPa 0,0 l/m 6,8 km/h (2 Bft) O-NO 63 0 min 0,000 mm 0,0 UV-I 0 W/m 6,2 C 11,8 C 11,3 km/h (2 Bft) 92,68 %
14.10.2018 05:54 12,1 C 12,8 C 8,9 C 68 % 1017,0 hPa 0,0 l/m 7,0 km/h (2 Bft) O-NO 69 0 min 0,000 mm 0,0 UV-I 0 W/m 6,4 C 11,7 C 9,7 km/h (2 Bft) 94,00 %
14.10.2018 05:56 12,0 C 12,8 C 8,9 C 68 % 1017,0 hPa 0,0 l/m 6,0 km/h (2 Bft) O-NO 76 0 min 0,000 mm 0,0 UV-I 0 W/m 6,3 C 12,0 C 8,0 km/h (2 Bft) 92,11 %
14.10.2018 05:58 11,9 C 12,8 C 8,9 C 68 % 1017,0 hPa 0,0 l/m 6,7 km/h (2 Bft) O-NO 69 0 min 0,000 mm 0,0 UV-I 0 W/m 6,2 C 11,7 C 9,7 km/h (2 Bft) 94,00 %
14.10.2018 06:00 11,9 C 12,8 C 8,9 C 68 % 1017,0 hPa 0,0 l/m 5,9 km/h (2 Bft) O 79 0 min 0,025 mm 0,0 UV-I 0 W/m 6,2 C 11,9 C 8,0 km/h (2 Bft) 91,49 %
14.10.2018 06:02 11,9 C 12,8 C 8,9 C 68 % 1017,0 hPa 0,0 l/m 5,3 km/h (1 Bft) O-NO 63 0 min 0,000 mm 0,0 UV-I 0 W/m 6,2 C 11,9 C 6,4 km/h (2 Bft) 94,00 %
14.10.2018 06:04 11,8 C 12,8 C 8,3 C 68 % 1017,0 hPa 0,0 l/m 4,5 km/h (1 Bft) O-NO 67 0 min 0,000 mm 0,0 UV-I 0 W/m 6,1 C 11,8 C 6,4 km/h (2 Bft) 94,00 %
14.10.2018 06:06 11,7 C 12,8 C 7,8 C 69 % 1016,9 hPa 0,0 l/m 4,3 km/h (1 Bft) O-NO 77 0 min 0,000 mm 0,0 UV-I 0 W/m 6,2 C 11,7 C 6,4 km/h (2 Bft) 94,00 %
14.10.2018 06:08 11,7 C 12,8 C 7,8 C 69 % 1016,8 hPa 0,0 l/m 4,0 km/h (1 Bft) NO 49 0 min 0,000 mm 0,0 UV-I 0 W/m 6,2 C 11,7 C 6,4 km/h (2 Bft) 91,43 %
14.10.2018 06:10 11,6 C 12,8 C 7,8 C 69 % 1016,8 hPa 0,0 l/m 3,9 km/h (1 Bft) O-NO 62 0 min 0,000 mm 0,0 UV-I 0 W/m 6,1 C 11,6 C 6,4 km/h (2 Bft) 95,45 %
14.10.2018 06:12 11,5 C 12,8 C 7,8 C 69 % 1016,9 hPa 0,0 l/m 4,9 km/h (1 Bft) O-NO 57 0 min 0,000 mm 0,0 UV-I 0 W/m 6,0 C 11,5 C 8,0 km/h (2 Bft) 96,55 %
14.10.2018 06:14 11,4 C 12,8 C 7,8 C 70 % 1016,9 hPa 0,0 l/m 5,1 km/h (1 Bft) O-NO 65 0 min 0,000 mm 0,0 UV-I 0 W/m 6,1 C 11,4 C 8,0 km/h (2 Bft) 100,00 %
14.10.2018 06:16 11,4 C 12,8 C 7,2 C 70 % 1016,8 hPa 0,0 l/m 5,5 km/h (1 Bft) O-NO 65 0 min 0,000 mm 0,0 UV-I 0 W/m 6,1 C 11,4 C 8,0 km/h (2 Bft) 100,00 %
14.10.2018 06:18 11,4 C 12,8 C 7,2 C 70 % 1016,8 hPa 0,0 l/m 5,4 km/h (1 Bft) O-NO 59 0 min 0,000 mm 0,0 UV-I 0 W/m 6,1 C 11,4 C 6,4 km/h (2 Bft) 100,00 %
14.10.2018 06:20 11,4 C 12,8 C 7,8 C 69 % 1016,8 hPa 0,0 l/m 6,1 km/h (2 Bft) O-NO 60 0 min 0,000 mm 0,0 UV-I 0 W/m 5,9 C 11,4 C 8,0 km/h (2 Bft) 100,00 %
14.10.2018 06:22 11,3 C 12,8 C 7,8 C 70 % 1016,8 hPa 0,0 l/m 5,8 km/h (2 Bft) O-NO 71 0 min 0,000 mm 0,0 UV-I 0 W/m 6,0 C 11,3 C 8,0 km/h (2 Bft) 97,92 %
14.10.2018 06:24 11,3 C 12,8 C 7,2 C 70 % 1016,8 hPa 0,0 l/m 5,9 km/h (2 Bft) O-NO 76 0 min 0,000 mm 0,0 UV-I 0 W/m 6,0 C 11,3 C 8,0 km/h (2 Bft) 100,00 %
14.10.2018 06:26 11,3 C 12,8 C 7,8 C 70 % 1016,8 hPa 0,0 l/m 7,5 km/h (2 Bft) O 84 0 min 0,000 mm 0,0 UV-I 0 W/m 6,0 C 10,5 C 11,3 km/h (2 Bft) 100,00 %
14.10.2018 06:28 11,3 C 12,8 C 7,8 C 70 % 1016,8 hPa 0,0 l/m 5,9 km/h (2 Bft) O-NO 76 0 min 0,000 mm 0,0 UV-I 0 W/m 6,0 C 11,3 C 8,0 km/h (2 Bft) 100,00 %
14.10.2018 06:30 11,3 C 12,8 C 7,8 C 70 % 1016,8 hPa 0,0 l/m 5,3 km/h (1 Bft) O-NO 61 0 min 0,000 mm 0,0 UV-I 0 W/m 6,0 C 11,3 C 8,0 km/h (2 Bft) 98,11 %
14.10.2018 06:32 11,3 C 12,8 C 7,2 C 70 % 1016,8 hPa 0,0 l/m 5,5 km/h (1 Bft) O-NO 76 0 min 0,000 mm 0,0 UV-I 0 W/m 6,0 C 11,3 C 11,3 km/h (2 Bft) 100,00 %
14.10.2018 06:34 11,2 C 12,8 C 7,2 C 70 % 1016,8 hPa 0,0 l/m 5,5 km/h (1 Bft) O 86 0 min 0,000 mm 0,0 UV-I 0 W/m 5,9 C 11,2 C 8,0 km/h (2 Bft) 100,00 %
14.10.2018 06:36 11,2 C 12,8 C 7,8 C 71 % 1016,8 hPa 0,0 l/m 6,1 km/h (2 Bft) O-NO 61 0 min 0,000 mm 0,0 UV-I 0 W/m 6,1 C 11,2 C 8,0 km/h (2 Bft) 100,00 %
14.10.2018 06:38 11,1 C 12,8 C 7,2 C 71 % 1016,7 hPa 0,0 l/m 6,3 km/h (2 Bft) O-NO 67 0 min 0,000 mm 0,0 UV-I 0 W/m 6,0 C 11,1 C 8,0 km/h (2 Bft) 100,00 %
14.10.2018 06:40 11,2 C 12,8 C 7,8 C 71 % 1016,7 hPa 0,0 l/m 7,7 km/h (2 Bft) O-NO 74 0 min 0,000 mm 0,0 UV-I 0 W/m 6,1 C 10,3 C 11,3 km/h (2 Bft) 100,00 %
14.10.2018 06:42 11,3 C 12,8 C 7,8 C 70 % 1016,7 hPa 0,0 l/m 8,4 km/h (2 Bft) O 93 0 min 0,000 mm 0,0 UV-I 0 W/m 6,0 C 10,0 C 12,9 km/h (3 Bft) 100,00 %
14.10.2018 06:44 11,4 C 12,8 C 7,8 C 70 % 1016,7 hPa 0,0 l/m 7,6 km/h (2 Bft) O-NO 67 0 min 0,000 mm 0,0 UV-I 0 W/m 6,1 C 10,6 C 11,3 km/h (2 Bft) 100,00 %
14.10.2018 06:46 11,3 C 12,8 C 7,8 C 70 % 1016,7 hPa 0,0 l/m 7,6 km/h (2 Bft) O-NO 76 0 min 0,000 mm 0,0 UV-I 0 W/m 6,0 C 10,5 C 14,5 km/h (3 Bft) 100,00 %
14.10.2018 06:48 11,3 C 12,8 C 8,3 C 70 % 1016,7 hPa 0,0 l/m 9,9 km/h (2 Bft) O 90 0 min 0,000 mm 0,0 UV-I 0 W/m 6,0 C 9,1 C 14,5 km/h (3 Bft) 100,00 %
14.10.2018 06:50 11,2 C 12,8 C 8,3 C 71 % 1016,7 hPa 0,0 l/m 9,3 km/h (2 Bft) O-SO 103 0 min 0,000 mm 0,0 UV-I 0 W/m 6,1 C 9,3 C 12,9 km/h (3 Bft) 100,00 %
14.10.2018 06:52 11,2 C 12,8 C 8,3 C 71 % 1016,7 hPa 0,0 l/m 9,0 km/h (2 Bft) O 92 0 min 0,000 mm 0,0 UV-I 0 W/m 6,1 C 9,5 C 12,9 km/h (3 Bft) 100,00 %
14.10.2018 06:54 11,3 C 12,8 C 8,3 C 71 % 1016,6 hPa 0,0 l/m 9,7 km/h (2 Bft) O 87 0 min 0,000 mm 0,0 UV-I 0 W/m 6,2 C 9,2 C 14,5 km/h (3 Bft) 100,00 %
14.10.2018 06:56 11,4 C 12,8 C 8,3 C 71 % 1016,6 hPa 0,0 l/m 10,5 km/h (2 Bft) O 98 0 min 0,000 mm 0,0 UV-I 0 W/m 6,3 C 8,9 C 14,5 km/h (3 Bft) 100,00 %
14.10.2018 06:58 11,4 C 12,8 C 8,3 C 70 % 1016,6 hPa 0,0 l/m 7,5 km/h (2 Bft) O 89 0 min 0,000 mm 0,0 UV-I 0 W/m 6,1 C 10,7 C 11,3 km/h (2 Bft) 100,00 %
14.10.2018 07:00 11,4 C 12,8 C 8,3 C 70 % 1016,6 hPa 0,0 l/m 8,0 km/h (2 Bft) O 85 0 min 0,000 mm 0,0 UV-I 0 W/m 6,1 C 10,3 C 11,3 km/h (2 Bft) 100,00 %
14.10.2018 07:02 11,4 C 12,8 C 8,3 C 70 % 1016,6 hPa 0,0 l/m 5,6 km/h (1 Bft) O-NO 72 0 min 0,026 mm 0,0 UV-I 0 W/m 6,1 C 11,4 C 8,0 km/h (2 Bft) 100,00 %
14.10.2018 07:04 11,2 C 12,8 C 7,8 C 70 % 1016,7 hPa 0,0 l/m 6,0 km/h (2 Bft) O-NO 72 0 min 0,000 mm 0,0 UV-I 0 W/m 5,9 C 11,2 C 8,0 km/h (2 Bft) 100,00 %
14.10.2018 07:06 11,0 C 12,8 C 7,8 C 71 % 1016,7 hPa 0,0 l/m 5,6 km/h (1 Bft) O-NO 78 0 min 0,000 mm 0,0 UV-I 0 W/m 5,9 C 11,0 C 8,0 km/h (2 Bft) 97,87 %
14.10.2018 07:08 10,9 C 12,8 C 7,2 C 72 % 1016,7 hPa 0,0 l/m 5,3 km/h (1 Bft) O-NO 71 0 min 0,000 mm 0,0 UV-I 4 W/m 6,1 C 10,9 C 8,0 km/h (2 Bft) 98,00 %
14.10.2018 07:10 10,9 C 12,8 C 7,2 C 73 % 1016,7 hPa 0,0 l/m 5,1 km/h (1 Bft) O-NO 76 0 min 0,000 mm 0,0 UV-I 5 W/m 6,3 C 10,9 C 6,4 km/h (2 Bft) 96,23 %
14.10.2018 07:12 10,9 C 12,8 C 7,2 C 73 % 1016,6 hPa 0,0 l/m 4,5 km/h (1 Bft) O-NO 73 0 min 0,000 mm 0,0 UV-I 5 W/m 6,3 C 10,9 C 6,4 km/h (2 Bft) 100,00 %
14.10.2018 07:14 10,9 C 12,8 C 6,7 C 73 % 1016,6 hPa 0,0 l/m 6,2 km/h (2 Bft) O 80 0 min 0,000 mm 0,0 UV-I 5 W/m 6,3 C 10,9 C 9,7 km/h (2 Bft) 96,23 %
14.10.2018 07:16 10,9 C 12,8 C 6,7 C 73 % 1016,6 hPa 0,0 l/m 5,7 km/h (1 Bft) O 86 0 min 0,000 mm 0,0 UV-I 7 W/m 6,3 C 10,9 C 9,7 km/h (2 Bft) 100,00 %
14.10.2018 07:18 10,9 C 12,8 C 6,7 C 73 % 1016,6 hPa 0,0 l/m 4,0 km/h (1 Bft) O 93 0 min 0,000 mm 0,0 UV-I 7 W/m 6,3 C 10,9 C 6,4 km/h (2 Bft) 94,34 %
14.10.2018 07:20 10,9 C 12,8 C 6,7 C 73 % 1016,6 hPa 0,0 l/m 5,6 km/h (1 Bft) O-NO 78 0 min 0,000 mm 0,0 UV-I 8 W/m 6,3 C 10,9 C 8,0 km/h (2 Bft) 97,56 %
14.10.2018 07:22 11,0 C 12,8 C 7,2 C 73 % 1016,6 hPa 0,0 l/m 5,9 km/h (2 Bft) O-NO 62 0 min 0,000 mm 0,0 UV-I 9 W/m 6,4 C 11,0 C 8,0 km/h (2 Bft) 98,21 %
14.10.2018 07:24 11,1 C 12,8 C 7,2 C 72 % 1016,6 hPa 0,0 l/m 5,2 km/h (1 Bft) O 89 0 min 0,000 mm 0,0 UV-I 10 W/m 6,2 C 11,1 C 8,0 km/h (2 Bft) 98,00 %
14.10.2018 07:26 11,1 C 12,8 C 7,2 C 72 % 1016,6 hPa 0,0 l/m 5,6 km/h (1 Bft) O-NO 74 0 min 0,000 mm 0,0 UV-I 11 W/m 6,2 C 11,1 C 8,0 km/h (2 Bft) 97,87 %
14.10.2018 07:28 11,1 C 12,8 C 7,2 C 72 % 1016,5 hPa 0,0 l/m 5,4 km/h (1 Bft) O-NO 59 0 min 0,000 mm 0,0 UV-I 12 W/m 6,2 C 11,1 C 6,4 km/h (2 Bft) 97,87 %
14.10.2018 07:30 11,1 C 12,8 C 7,2 C 72 % 1016,5 hPa 0,0 l/m 5,9 km/h (2 Bft) O-NO 78 0 min 0,000 mm 0,0 UV-I 12 W/m 6,2 C 11,1 C 9,7 km/h (2 Bft) 100,00 %
14.10.2018 07:32 11,1 C 12,8 C 7,8 C 72 % 1016,5 hPa 0,0 l/m 6,2 km/h (2 Bft) O-NO 72 2 min 0,000 mm 0,0 UV-I 14 W/m 6,2 C 11,1 C 8,0 km/h (2 Bft) 100,00 %
14.10.2018 07:34 11,1 C 12,8 C 7,8 C 72 % 1016,5 hPa 0,0 l/m 5,2 km/h (1 Bft) O-NO 78 2 min 0,000 mm 0,0 UV-I 15 W/m 6,2 C 11,1 C 6,4 km/h (2 Bft) 97,87 %
14.10.2018 07:36 11,1 C 12,8 C 8,3 C 72 % 1016,4 hPa 0,0 l/m 6,7 km/h (2 Bft) O-NO 60 2 min 0,000 mm 0,0 UV-I 16 W/m 6,2 C 10,9 C 9,7 km/h (2 Bft) 100,00 %
14.10.2018 07:38 11,1 C 12,8 C 8,3 C 72 % 1016,4 hPa 0,0 l/m 5,8 km/h (2 Bft) O 81 0 min 0,000 mm 0,0 UV-I 18 W/m 6,2 C 11,1 C 8,0 km/h (2 Bft) 97,87 %
14.10.2018 07:40 11,1 C 12,8 C 8,3 C 72 % 1016,4 hPa 0,0 l/m 7,9 km/h (2 Bft) O-NO 67 0 min 0,000 mm 0,0 UV-I 19 W/m 6,2 C 10,1 C 11,3 km/h (2 Bft) 97,62 %
14.10.2018 07:42 11,1 C 12,8 C 8,3 C 72 % 1016,4 hPa 0,0 l/m 6,7 km/h (2 Bft) O-NO 69 0 min 0,000 mm 0,0 UV-I 19 W/m 6,2 C 10,9 C 11,3 km/h (2 Bft) 95,74 %
14.10.2018 07:44 11,2 C 12,8 C 8,9 C 72 % 1016,4 hPa 0,0 l/m 7,1 km/h (2 Bft) O-NO 63 0 min 0,000 mm 0,0 UV-I 21 W/m 6,3 C 10,7 C 11,3 km/h (2 Bft) 100,00 %
14.10.2018 07:46 11,2 C 12,8 C 8,9 C 72 % 1016,4 hPa 0,0 l/m 6,6 km/h (2 Bft) O-NO 61 0 min 0,000 mm 0,0 UV-I 22 W/m 6,3 C 11,1 C 9,7 km/h (2 Bft) 94,64 %
14.10.2018 07:48 11,2 C 12,8 C 8,9 C 72 % 1016,4 hPa 0,0 l/m 6,3 km/h (2 Bft) O-NO 61 0 min 0,000 mm 0,0 UV-I 24 W/m 6,3 C 11,2 C 11,3 km/h (2 Bft) 93,62 %
14.10.2018 07:50 11,2 C 12,8 C 8,9 C 72 % 1016,4 hPa 0,0 l/m 8,0 km/h (2 Bft) O-NO 69 0 min 0,000 mm 0,0 UV-I 35 W/m 6,3 C 10,1 C 12,9 km/h (3 Bft) 92,11 %
14.10.2018 07:52 11,2 C 12,8 C 9,4 C 72 % 1016,4 hPa 0,0 l/m 7,8 km/h (2 Bft) O-NO 69 2 min 0,000 mm 0,0 UV-I 46 W/m 6,3 C 10,2 C 12,9 km/h (3 Bft) 96,23 %
14.10.2018 07:54 11,2 C 12,8 C 9,4 C 72 % 1016,4 hPa 0,0 l/m 7,3 km/h (2 Bft) O-NO 67 2 min 0,000 mm 0,0 UV-I 51 W/m 6,3 C 10,6 C 12,9 km/h (3 Bft) 98,00 %
14.10.2018 07:56 11,2 C 12,8 C 9,4 C 73 % 1016,4 hPa 0,0 l/m 7,4 km/h (2 Bft) O-NO 61 2 min 0,000 mm 0,0 UV-I 55 W/m 6,5 C 10,5 C 11,3 km/h (2 Bft) 98,00 %
14.10.2018 07:58 11,2 C 12,8 C 9,4 C 73 % 1016,4 hPa 0,0 l/m 6,7 km/h (2 Bft) O 82 2 min 0,000 mm 0,0 UV-I 59 W/m 6,5 C 11,0 C 11,3 km/h (2 Bft) 95,12 %
14.10.2018 08:00 11,3 C 12,8 C 9,4 C 73 % 1016,4 hPa 0,0 l/m 7,0 km/h (2 Bft) O-NO 70 2 min 0,025 mm 0,0 UV-I 64 W/m 6,6 C 10,9 C 11,3 km/h (2 Bft) 96,23 %
14.10.2018 08:02 11,3 C 12,8 C 9,4 C 73 % 1016,4 hPa 0,0 l/m 7,8 km/h (2 Bft) O-NO 70 2 min 0,000 mm 0,0 UV-I 68 W/m 6,6 C 10,3 C 12,9 km/h (3 Bft) 97,37 %
14.10.2018 08:04 11,3 C 12,8 C 9,4 C 73 % 1016,4 hPa 0,0 l/m 7,3 km/h (2 Bft) O-NO 65 2 min 0,000 mm 0,0 UV-I 72 W/m 6,6 C 10,7 C 11,3 km/h (2 Bft) 95,74 %
14.10.2018 08:06 11,3 C 12,8 C 9,4 C 73 % 1016,4 hPa 0,0 l/m 7,2 km/h (2 Bft) O-NO 65 2 min 0,000 mm 0,0 UV-I 77 W/m 6,6 C 10,8 C 9,7 km/h (2 Bft) 96,23 %
14.10.2018 08:08 11,3 C 12,8 C 9,4 C 73 % 1016,4 hPa 0,0 l/m 7,1 km/h (2 Bft) NO 40 2 min 0,000 mm 0,0 UV-I 82 W/m 6,6 C 10,8 C 11,3 km/h (2 Bft) 97,14 %
14.10.2018 08:10 11,3 C 12,8 C 8,9 C 73 % 1016,4 hPa 0,0 l/m 7,1 km/h (2 Bft) O-NO 61 2 min 0,000 mm 0,0 UV-I 84 W/m 6,6 C 10,8 C 9,7 km/h (2 Bft) 98,00 %
14.10.2018 08:12 11,3 C 12,8 C 8,9 C 73 % 1016,4 hPa 0,0 l/m 6,7 km/h (2 Bft) O-NO 65 2 min 0,000 mm 0,0 UV-I 89 W/m 6,6 C 11,1 C 11,3 km/h (2 Bft) 100,00 %
14.10.2018 08:14 11,4 C 12,8 C 9,4 C 73 % 1016,4 hPa 0,0 l/m 6,2 km/h (2 Bft) O 79 2 min 0,000 mm 0,0 UV-I 94 W/m 6,7 C 11,4 C 11,3 km/h (2 Bft) 100,00 %
14.10.2018 08:16 11,5 C 12,8 C 9,4 C 73 % 1016,5 hPa 0,0 l/m 5,4 km/h (1 Bft) O 80 2 min 0,000 mm 0,0 UV-I 98 W/m 6,8 C 11,5 C 8,0 km/h (2 Bft) 95,74 %
14.10.2018 08:18 11,7 C 12,8 C 9,4 C 73 % 1016,5 hPa 0,0 l/m 6,3 km/h (2 Bft) O-SO 102 2 min 0,000 mm 0,0 UV-I 102 W/m 7,0 C 11,7 C 14,5 km/h (3 Bft) 100,00 %
14.10.2018 08:20 11,8 C 12,8 C 9,4 C 72 % 1016,5 hPa 0,0 l/m 7,3 km/h (2 Bft) O-NO 73 2 min 0,000 mm 0,0 UV-I 107 W/m 6,9 C 11,2 C 11,3 km/h (2 Bft) 98,21 %
14.10.2018 08:22 11,8 C 12,8 C 10,0 C 73 % 1016,5 hPa 0,0 l/m 8,2 km/h (2 Bft) O-NO 76 2 min 0,000 mm 0,0 UV-I 112 W/m 7,1 C 10,6 C 12,9 km/h (3 Bft) 100,00 %
14.10.2018 08:25 11,9 C 12,8 C 10,0 C 73 % 1016,5 hPa 0,0 l/m 7,7 km/h (2 Bft) O-NO 58 3 min 0,000 mm 0,0 UV-I 118 W/m 7,2 C 11,0 C 11,3 km/h (2 Bft) 95,08 %
14.10.2018 08:26 11,9 C 12,8 C 10,0 C 72 % 1016,5 hPa 0,0 l/m 8,4 km/h (2 Bft) NO 48 1 min 0,000 mm 0,0 UV-I 122 W/m 7,0 C 10,6 C 14,5 km/h (3 Bft) 95,83 %
14.10.2018 08:28 12,1 C 12,8 C 10,6 C 72 % 1016,5 hPa 0,0 l/m 8,0 km/h (2 Bft) O 90 2 min 0,000 mm 0,0 UV-I 125 W/m 7,2 C 11,1 C 11,3 km/h (2 Bft) 97,87 %
14.10.2018 08:30 12,1 C 12,8 C 10,6 C 72 % 1016,6 hPa 0,0 l/m 8,7 km/h (2 Bft) O-NO 67 2 min 0,000 mm 0,0 UV-I 129 W/m 7,2 C 10,6 C 14,5 km/h (3 Bft) 96,23 %
14.10.2018 08:32 12,2 C 12,8 C 10,6 C 72 % 1016,6 hPa 0,0 l/m 10,5 km/h (2 Bft) O 98 2 min 0,000 mm 0,0 UV-I 135 W/m 7,3 C 9,8 C 16,1 km/h (3 Bft) 97,73 %
14.10.2018 08:34 12,3 C 12,8 C 10,6 C 72 % 1016,6 hPa 0,0 l/m 9,3 km/h (2 Bft) O 82 2 min 0,000 mm 0,0 UV-I 139 W/m 7,4 C 10,5 C 12,9 km/h (3 Bft) 97,56 %
14.10.2018 08:36 12,3 C 12,8 C 10,6 C 72 % 1016,5 hPa 0,0 l/m 9,5 km/h (2 Bft) O-NO 67 2 min 0,000 mm 0,0 UV-I 143 W/m 7,4 C 10,4 C 12,9 km/h (3 Bft) 96,23 %
14.10.2018 08:38 12,4 C 12,8 C 10,6 C 72 % 1016,5 hPa 0,0 l/m 9,3 km/h (2 Bft) O-NO 69 2 min 0,000 mm 0,0 UV-I 147 W/m 7,5 C 10,6 C 16,1 km/h (3 Bft) 98,00 %
14.10.2018 08:40 12,6 C 12,8 C 11,1 C 71 % 1016,5 hPa 0,0 l/m 9,4 km/h (2 Bft) O 83 2 min 0,000 mm 0,0 UV-I 152 W/m 7,5 C 10,8 C 14,5 km/h (3 Bft) 97,37 %
14.10.2018 08:42 12,7 C 12,8 C 11,1 C 71 % 1016,5 hPa 0,0 l/m 9,5 km/h (2 Bft) O-NO 69 2 min 0,000 mm 0,0 UV-I 157 W/m 7,6 C 10,8 C 14,5 km/h (3 Bft) 98,00 %
14.10.2018 08:44 12,8 C 12,8 C 11,1 C 70 % 1016,6 hPa 0,0 l/m 8,5 km/h (2 Bft) O-NO 75 2 min 0,000 mm 0,0 UV-I 161 W/m 7,5 C 11,5 C 16,1 km/h (3 Bft) 100,00 %
14.10.2018 08:46 12,9 C 12,8 C 11,7 C 70 % 1016,6 hPa 0,0 l/m 11,0 km/h (2 Bft) O 94 2 min 0,000 mm 0,0 UV-I 166 W/m 7,6 C 10,3 C 17,7 km/h (3 Bft) 100,00 %
14.10.2018 08:48 13,0 C 12,8 C 11,7 C 69 % 1016,6 hPa 0,0 l/m 9,9 km/h (2 Bft) O-NO 67 2 min 0,000 mm 0,0 UV-I 171 W/m 7,4 C 11,0 C 14,5 km/h (3 Bft) 100,00 %
14.10.2018 08:50 13,1 C 12,8 C 11,7 C 69 % 1016,6 hPa 0,0 l/m 8,0 km/h (2 Bft) O-NO 72 2 min 0,000 mm 0,0 UV-I 176 W/m 7,5 C 12,1 C 14,5 km/h (3 Bft) 98,44 %
14.10.2018 08:52 13,1 C 12,8 C 12,2 C 69 % 1016,6 hPa 0,0 l/m 9,4 km/h (2 Bft) O-NO 64 2 min 0,000 mm 0,0 UV-I 181 W/m 7,5 C 11,3 C 14,5 km/h (3 Bft) 100,00 %
14.10.2018 08:54 13,2 C 12,8 C 12,2 C 69 % 1016,6 hPa 0,0 l/m 9,7 km/h (2 Bft) O-NO 66 2 min 0,000 mm 0,0 UV-I 185 W/m 7,6 C 11,3 C 12,9 km/h (3 Bft) 100,00 %
14.10.2018 08:56 13,3 C 12,8 C 12,2 C 69 % 1016,6 hPa 0,0 l/m 11,2 km/h (2 Bft) O-NO 61 2 min 0,000 mm 0,0 UV-I 191 W/m 7,7 C 10,7 C 16,1 km/h (3 Bft) 97,73 %
14.10.2018 08:58 13,4 C 12,8 C 12,2 C 68 % 1016,6 hPa 0,0 l/m 10,7 km/h (2 Bft) O-NO 65 2 min 0,000 mm 0,0 UV-I 195 W/m 7,6 C 11,0 C 17,7 km/h (3 Bft) 98,21 %
14.10.2018 09:00 13,5 C 12,8 C 12,2 C 68 % 1016,5 hPa 0,0 l/m 12,4 km/h (3 Bft) O-NO 63 2 min 0,102 mm 0,0 UV-I 201 W/m 7,7 C 10,4 C 16,1 km/h (3 Bft) 97,37 %
14.10.2018 09:02 13,6 C 12,8 C 12,8 C 68 % 1016,6 hPa 0,0 l/m 11,2 km/h (2 Bft) O 92 2 min 0,000 mm 0,0 UV-I 206 W/m 7,8 C 11,0 C 14,5 km/h (3 Bft) 98,21 %
14.10.2018 09:04 13,7 C 12,8 C 12,8 C 67 % 1016,5 hPa 0,0 l/m 16,4 km/h (3 Bft) O-NO 76 2 min 0,000 mm 0,0 UV-I 211 W/m 7,7 C 9,1 C 20,9 km/h (4 Bft) 100,00 %
14.10.2018 09:06 13,8 C 12,8 C 12,8 C 67 % 1016,6 hPa 0,0 l/m 13,0 km/h (3 Bft) O-NO 74 2 min 0,000 mm 0,0 UV-I 215 W/m 7,8 C 10,5 C 16,1 km/h (3 Bft) 97,56 %
14.10.2018 09:08 13,9 C 12,8 C 12,8 C 67 % 1016,6 hPa 0,0 l/m 12,8 km/h (3 Bft) O-NO 67 2 min 0,000 mm 0,0 UV-I 220 W/m 7,9 C 10,7 C 16,1 km/h (3 Bft) 100,00 %
14.10.2018 09:10 13,9 C 12,8 C 13,3 C 66 % 1016,6 hPa 0,0 l/m 12,7 km/h (3 Bft) O 87 2 min 0,000 mm 0,0 UV-I 226 W/m 7,7 C 10,7 C 19,3 km/h (3 Bft) 97,73 %
14.10.2018 09:12 14,1 C 12,8 C 13,3 C 66 % 1016,6 hPa 0,0 l/m 12,6 km/h (3 Bft) O 82 2 min 0,000 mm 0,0 UV-I 230 W/m 7,8 C 11,0 C 17,7 km/h (3 Bft) 97,56 %
14.10.2018 09:14 14,2 C 12,8 C 13,3 C 66 % 1016,5 hPa 0,0 l/m 12,7 km/h (3 Bft) O-NO 75 2 min 0,000 mm 0,0 UV-I 235 W/m 7,9 C 11,1 C 17,7 km/h (3 Bft) 98,21 %
14.10.2018 09:16 14,3 C 12,8 C 13,3 C 65 % 1016,6 hPa 0,0 l/m 11,4 km/h (2 Bft) O-NO 71 2 min 0,000 mm 0,0 UV-I 238 W/m 7,8 C 11,7 C 17,7 km/h (3 Bft) 94,74 %
14.10.2018 09:18 14,3 C 12,8 C 13,3 C 66 % 1016,6 hPa 0,0 l/m 7,6 km/h (2 Bft) O-NO 67 2 min 0,000 mm 0,0 UV-I 244 W/m 8,0 C 13,6 C 12,9 km/h (3 Bft) 98,21 %
14.10.2018 09:20 14,4 C 12,8 C 13,3 C 65 % 1016,6 hPa 0,0 l/m 12,1 km/h (2 Bft) O-NO 76 2 min 0,000 mm 0,5 UV-I 248 W/m 7,9 C 11,5 C 16,1 km/h (3 Bft) 95,74 %
14.10.2018 09:22 14,5 C 12,8 C 13,3 C 64 % 1016,5 hPa 0,0 l/m 9,4 km/h (2 Bft) O-NO 69 2 min 0,000 mm 0,5 UV-I 254 W/m 7,8 C 12,9 C 14,5 km/h (3 Bft) 100,00 %
14.10.2018 09:24 14,6 C 12,8 C 13,3 C 64 % 1016,5 hPa 0,0 l/m 11,3 km/h (2 Bft) NO 51 2 min 0,000 mm 0,5 UV-I 258 W/m 7,9 C 12,1 C 16,1 km/h (3 Bft) 96,61 %
14.10.2018 09:26 14,7 C 12,8 C 13,9 C 64 % 1016,5 hPa 0,0 l/m 11,3 km/h (2 Bft) O-NO 59 2 min 0,000 mm 0,5 UV-I 262 W/m 8,0 C 12,2 C 17,7 km/h (3 Bft) 97,44 %
14.10.2018 09:28 14,8 C 12,8 C 13,9 C 64 % 1016,4 hPa 0,0 l/m 9,5 km/h (2 Bft) O 91 2 min 0,000 mm 0,5 UV-I 266 W/m 8,1 C 13,1 C 14,5 km/h (3 Bft) 93,88 %
14.10.2018 09:30 14,8 C 12,8 C 13,9 C 65 % 1016,4 hPa 0,0 l/m 12,4 km/h (3 Bft) O 93 2 min 0,000 mm 0,5 UV-I 272 W/m 8,3 C 11,9 C 19,3 km/h (3 Bft) 94,87 %
14.10.2018 09:32 14,9 C 12,8 C 13,9 C 64 % 1016,4 hPa 0,0 l/m 14,1 km/h (3 Bft) O-NO 65 2 min 0,000 mm 0,5 UV-I 276 W/m 8,2 C 11,4 C 17,7 km/h (3 Bft) 96,43 %
14.10.2018 09:34 15,0 C 12,8 C 13,9 C 64 % 1016,3 hPa 0,0 l/m 13,6 km/h (3 Bft) O 87 2 min 0,000 mm 0,6 UV-I 280 W/m 8,2 C 11,7 C 19,3 km/h (3 Bft) 96,00 %
14.10.2018 09:36 15,1 C 12,8 C 13,9 C 63 % 1016,4 hPa 0,0 l/m 13,9 km/h (3 Bft) O 85 2 min 0,000 mm 0,6 UV-I 286 W/m 8,1 C 11,7 C 19,3 km/h (3 Bft) 94,74 %
14.10.2018 09:38 15,2 C 12,8 C 13,9 C 63 % 1016,4 hPa 0,0 l/m 13,7 km/h (3 Bft) O-NO 71 2 min 0,000 mm 0,6 UV-I 290 W/m 8,2 C 11,9 C 19,3 km/h (3 Bft) 91,49 %
14.10.2018 09:40 15,2 C 12,8 C 14,4 C 63 % 1016,4 hPa 0,0 l/m 16,4 km/h (3 Bft) O 83 2 min 0,000 mm 0,6 UV-I 293 W/m 8,2 C 11,0 C 20,9 km/h (4 Bft) 93,62 %
14.10.2018 09:42 15,3 C 12,8 C 14,4 C 62 % 1016,4 hPa 0,0 l/m 14,2 km/h (3 Bft) O 99 2 min 0,000 mm 0,6 UV-I 299 W/m 8,1 C 11,8 C 20,9 km/h (4 Bft) 96,00 %
14.10.2018 09:44 15,3 C 12,8 C 14,4 C 63 % 1016,4 hPa 0,0 l/m 13,1 km/h (3 Bft) O 85 2 min 0,000 mm 0,6 UV-I 303 W/m 8,3 C 12,2 C 17,7 km/h (3 Bft) 91,49 %
14.10.2018 09:46 15,4 C 12,8 C 14,4 C 62 % 1016,4 hPa 0,0 l/m 13,8 km/h (3 Bft) O 92 2 min 0,000 mm 0,7 UV-I 307 W/m 8,2 C 12,1 C 19,3 km/h (3 Bft) 92,00 %
14.10.2018 09:48 15,5 C 12,8 C 14,4 C 61 % 1016,4 hPa 0,0 l/m 16,4 km/h (3 Bft) O-NO 73 2 min 0,000 mm 0,7 UV-I 313 W/m 8,0 C 11,4 C 24,1 km/h (4 Bft) 94,00 %
14.10.2018 09:50 15,6 C 12,8 C 14,4 C 61 % 1016,4 hPa 0,0 l/m 16,5 km/h (3 Bft) O-NO 70 2 min 0,000 mm 0,7 UV-I 316 W/m 8,1 C 11,5 C 25,7 km/h (4 Bft) 93,62 %
14.10.2018 09:52 15,7 C 12,8 C 14,4 C 62 % 1016,4 hPa 0,0 l/m 13,5 km/h (3 Bft) O-NO 74 2 min 0,000 mm 0,7 UV-I 320 W/m 8,4 C 12,5 C 16,1 km/h (3 Bft) 93,62 %
14.10.2018 09:54 15,7 C 12,8 C 14,4 C 61 % 1016,4 hPa 0,0 l/m 13,1 km/h (3 Bft) O-NO 61 2 min 0,000 mm 0,7 UV-I 323 W/m 8,2 C 12,7 C 19,3 km/h (3 Bft) 90,62 %
14.10.2018 09:56 15,8 C 12,8 C 15,0 C 60 % 1016,4 hPa 0,0 l/m 16,5 km/h (3 Bft) NO 53 2 min 0,000 mm 0,7 UV-I 329 W/m 8,1 C 11,7 C 22,5 km/h (4 Bft) 96,23 %
14.10.2018 09:58 15,9 C 12,8 C 15,0 C 61 % 1016,3 hPa 0,0 l/m 13,8 km/h (3 Bft) O-NO 76 2 min 0,000 mm 0,8 UV-I 332 W/m 8,4 C 12,7 C 22,5 km/h (4 Bft) 95,12 %
14.10.2018 10:00 15,9 C 12,8 C 15,0 C 60 % 1016,3 hPa 0,0 l/m 18,7 km/h (3 Bft) O 86 2 min 0,203 mm 0,8 UV-I 337 W/m 8,1 C 11,2 C 25,7 km/h (4 Bft) 92,45 %
14.10.2018 10:02 16,0 C 12,8 C 15,0 C 60 % 1016,3 hPa 0,0 l/m 16,2 km/h (3 Bft) O-NO 75 2 min 0,000 mm 0,8 UV-I 340 W/m 8,2 C 12,0 C 22,5 km/h (4 Bft) 98,00 %
14.10.2018 10:04 16,1 C 12,8 C 15,0 C 60 % 1016,3 hPa 0,0 l/m 16,4 km/h (3 Bft) O 86 2 min 0,000 mm 0,8 UV-I 344 W/m 8,3 C 12,1 C 20,9 km/h (4 Bft) 97,44 %
14.10.2018 10:06 16,2 C 12,8 C 15,0 C 60 % 1016,3 hPa 0,0 l/m 18,3 km/h (3 Bft) O 88 2 min 0,000 mm 0,8 UV-I 347 W/m 8,4 C 11,7 C 22,5 km/h (4 Bft) 98,00 %
14.10.2018 10:08 16,2 C 12,8 C 15,0 C 60 % 1016,3 hPa 0,0 l/m 14,3 km/h (3 Bft) O-NO 77 2 min 0,000 mm 0,8 UV-I 351 W/m 8,4 C 12,9 C 17,7 km/h (3 Bft) 94,34 %
14.10.2018 10:10 16,3 C 12,8 C 15,6 C 60 % 1016,3 hPa 0,0 l/m 15,7 km/h (3 Bft) O-NO 66 2 min 0,000 mm 0,9 UV-I 354 W/m 8,5 C 12,6 C 20,9 km/h (4 Bft) 97,56 %
14.10.2018 10:12 16,4 C 12,8 C 15,6 C 59 % 1016,3 hPa 0,0 l/m 15,2 km/h (3 Bft) O 80 2 min 0,000 mm 0,9 UV-I 358 W/m 8,4 C 12,8 C 22,5 km/h (4 Bft) 94,00 %
14.10.2018 10:14 16,5 C 12,8 C 15,6 C 58 % 1016,3 hPa 0,0 l/m 16,7 km/h (3 Bft) O-NO 63 2 min 0,000 mm 0,9 UV-I 362 W/m 8,2 C 12,5 C 20,9 km/h (4 Bft) 98,00 %
14.10.2018 10:16 16,6 C 12,8 C 16,1 C 58 % 1016,3 hPa 0,0 l/m 16,6 km/h (3 Bft) O 83 2 min 0,000 mm 0,9 UV-I 366 W/m 8,3 C 12,7 C 24,1 km/h (4 Bft) 97,87 %
14.10.2018 10:18 16,6 C 12,8 C 16,1 C 58 % 1016,3 hPa 0,0 l/m 14,6 km/h (3 Bft) O-SO 104 2 min 0,000 mm 0,9 UV-I 370 W/m 8,3 C 13,3 C 20,9 km/h (4 Bft) 97,87 %
14.10.2018 10:20 16,7 C 12,8 C 16,7 C 57 % 1016,3 hPa 0,0 l/m 18,3 km/h (3 Bft) O-NO 64 2 min 0,000 mm 1,0 UV-I 375 W/m 8,1 C 12,4 C 24,1 km/h (4 Bft) 97,87 %
14.10.2018 10:22 16,7 C 12,8 C 17,2 C 57 % 1016,3 hPa 0,0 l/m 18,3 km/h (3 Bft) O-NO 71 2 min 0,000 mm 1,0 UV-I 379 W/m 8,1 C 12,4 C 22,5 km/h (4 Bft) 94,74 %
14.10.2018 10:24 16,8 C 12,8 C 17,8 C 57 % 1016,3 hPa 0,0 l/m 17,6 km/h (3 Bft) O 96 2 min 0,000 mm 1,0 UV-I 381 W/m 8,2 C 12,7 C 25,7 km/h (4 Bft) 98,00 %
14.10.2018 10:26 16,8 C 12,8 C 18,3 C 58 % 1016,3 hPa 0,0 l/m 15,2 km/h (3 Bft) O 80 2 min 0,000 mm 1,0 UV-I 385 W/m 8,5 C 13,3 C 22,5 km/h (4 Bft) 95,12 %
14.10.2018 10:28 17,1 C 12,8 C 19,4 C 58 % 1016,3 hPa 0,0 l/m 10,7 km/h (2 Bft) O-NO 68 2 min 0,000 mm 1,0 UV-I 388 W/m 8,8 C 15,2 C 24,1 km/h (4 Bft) 96,61 %
14.10.2018 10:30 17,2 C 12,8 C 20,0 C 56 % 1016,3 hPa 0,0 l/m 16,9 km/h (3 Bft) O 90 2 min 0,000 mm 1,1 UV-I 392 W/m 8,3 C 13,3 C 22,5 km/h (4 Bft) 97,37 %
14.10.2018 10:32 17,2 C 12,8 C 20,6 C 56 % 1016,2 hPa 0,0 l/m 17,9 km/h (3 Bft) O-NO 71 2 min 0,000 mm 1,1 UV-I 396 W/m 8,3 C 13,1 C 20,9 km/h (4 Bft) 93,62 %
14.10.2018 10:34 17,2 C 12,8 C 21,7 C 56 % 1016,2 hPa 0,0 l/m 17,2 km/h (3 Bft) O 85 2 min 0,000 mm 1,1 UV-I 400 W/m 8,3 C 13,3 C 24,1 km/h (4 Bft) 98,00 %
14.10.2018 10:36 17,3 C 12,8 C 22,2 C 55 % 1016,2 hPa 0,0 l/m 17,7 km/h (3 Bft) O-NO 64 2 min 0,000 mm 1,1 UV-I 403 W/m 8,2 C 13,3 C 22,5 km/h (4 Bft) 97,37 %
14.10.2018 10:38 17,4 C 12,8 C 22,8 C 56 % 1016,2 hPa 0,0 l/m 16,2 km/h (3 Bft) O 89 2 min 0,000 mm 1,1 UV-I 406 W/m 8,5 C 13,8 C 24,1 km/h (4 Bft) 98,21 %
14.10.2018 10:40 17,6 C 12,8 C 23,9 C 56 % 1016,2 hPa 0,0 l/m 15,5 km/h (3 Bft) O-NO 77 2 min 0,000 mm 1,1 UV-I 410 W/m 8,7 C 14,2 C 20,9 km/h (4 Bft) 95,45 %
14.10.2018 10:42 17,7 C 12,8 C 24,4 C 55 % 1016,1 hPa 0,0 l/m 16,1 km/h (3 Bft) O 92 2 min 0,000 mm 1,2 UV-I 413 W/m 8,5 C 14,2 C 20,9 km/h (4 Bft) 98,11 %
14.10.2018 10:44 17,7 C 12,8 C 24,4 C 55 % 1016,2 hPa 0,0 l/m 17,4 km/h (3 Bft) O-NO 66 2 min 0,000 mm 1,2 UV-I 417 W/m 8,5 C 13,8 C 25,7 km/h (4 Bft) 98,00 %
14.10.2018 10:46 17,8 C 12,8 C 24,4 C 55 % 1016,1 hPa 0,0 l/m 18,2 km/h (3 Bft) O 92 2 min 0,000 mm 1,2 UV-I 419 W/m 8,6 C 13,8 C 24,1 km/h (4 Bft) 94,87 %
14.10.2018 10:48 17,9 C 12,8 C 25,0 C 54 % 1016,2 hPa 0,0 l/m 15,5 km/h (3 Bft) O 89 2 min 0,000 mm 1,2 UV-I 423 W/m 8,5 C 14,6 C 19,3 km/h (3 Bft) 98,18 %
14.10.2018 10:50 18,0 C 12,8 C 25,0 C 54 % 1016,1 hPa 0,0 l/m 17,6 km/h (3 Bft) O 94 2 min 0,000 mm 1,2 UV-I 426 W/m 8,6 C 14,2 C 24,1 km/h (4 Bft) 97,22 %
14.10.2018 10:52 18,1 C 12,8 C 25,0 C 54 % 1016,1 hPa 0,0 l/m 17,8 km/h (3 Bft) NO 47 2 min 0,000 mm 1,2 UV-I 428 W/m 8,6 C 14,2 C 20,9 km/h (4 Bft) 97,87 %
14.10.2018 10:54 18,2 C 12,8 C 25,6 C 53 % 1016,1 hPa 0,0 l/m 15,0 km/h (3 Bft) O-NO 67 2 min 0,000 mm 1,3 UV-I 431 W/m 8,5 C 15,1 C 19,3 km/h (3 Bft) 94,34 %
14.10.2018 10:56 18,3 C 12,8 C 26,1 C 53 % 1016,1 hPa 0,0 l/m 16,0 km/h (3 Bft) O 90 2 min 0,000 mm 1,3 UV-I 434 W/m 8,6 C 14,9 C 22,5 km/h (4 Bft) 97,56 %
14.10.2018 10:58 18,4 C 12,8 C 26,1 C 53 % 1016,1 hPa 0,0 l/m 14,6 km/h (3 Bft) O 86 2 min 0,000 mm 1,3 UV-I 437 W/m 8,6 C 15,4 C 22,5 km/h (4 Bft) 98,21 %
14.10.2018 11:00 18,5 C 12,8 C 26,1 C 53 % 1016,1 hPa 0,0 l/m 16,7 km/h (3 Bft) O 91 2 min 0,305 mm 1,3 UV-I 440 W/m 8,7 C 15,0 C 22,5 km/h (4 Bft) 100,00 %
14.10.2018 11:02 18,6 C 12,8 C 26,1 C 52 % 1015,9 hPa 0,0 l/m 18,2 km/h (3 Bft) O-NO 69 2 min 0,000 mm 1,3 UV-I 444 W/m 8,5 C 14,8 C 25,7 km/h (4 Bft) 93,62 %
14.10.2018 11:04 18,7 C 12,8 C 26,1 C 52 % 1016,0 hPa 0,0 l/m 16,6 km/h (3 Bft) O-NO 73 2 min 0,000 mm 1,3 UV-I 446 W/m 8,6 C 15,3 C 22,5 km/h (4 Bft) 95,74 %
14.10.2018 11:06 18,7 C 12,8 C 26,1 C 52 % 1016,0 hPa 0,0 l/m 19,2 km/h (3 Bft) O-SO 103 2 min 0,000 mm 1,4 UV-I 448 W/m 8,6 C 14,7 C 24,1 km/h (4 Bft) 96,00 %
14.10.2018 11:08 18,8 C 12,8 C 26,1 C 51 % 1015,9 hPa 0,0 l/m 19,5 km/h (3 Bft) O 82 2 min 0,000 mm 1,4 UV-I 450 W/m 8,4 C 14,8 C 25,7 km/h (4 Bft) 96,00 %
14.10.2018 11:10 18,8 C 12,8 C 25,6 C 51 % 1015,8 hPa 0,0 l/m 17,5 km/h (3 Bft) O 81 2 min 0,000 mm 1,4 UV-I 453 W/m 8,4 C 15,2 C 24,1 km/h (4 Bft) 92,68 %
14.10.2018 11:12 18,9 C 12,8 C 26,1 C 51 % 1015,8 hPa 0,0 l/m 16,3 km/h (3 Bft) O 94 2 min 0,000 mm 1,4 UV-I 457 W/m 8,5 C 15,6 C 22,5 km/h (4 Bft) 90,57 %
14.10.2018 11:14 19,0 C 12,8 C 26,7 C 51 % 1015,8 hPa 0,0 l/m 16,1 km/h (3 Bft) O 91 2 min 0,000 mm 1,4 UV-I 460 W/m 8,6 C 15,8 C 20,9 km/h (4 Bft) 92,11 %
14.10.2018 11:16 19,1 C 12,8 C 26,7 C 51 % 1015,8 hPa 0,0 l/m 17,6 km/h (3 Bft) O 84 2 min 0,000 mm 1,4 UV-I 462 W/m 8,7 C 15,5 C 22,5 km/h (4 Bft) 92,00 %
14.10.2018 11:18 19,2 C 12,8 C 27,2 C 52 % 1015,8 hPa 0,0 l/m 15,4 km/h (3 Bft) O-SO 114 2 min 0,000 mm 1,5 UV-I 463 W/m 9,1 C 16,2 C 19,3 km/h (3 Bft) 94,00 %
14.10.2018 11:20 19,3 C 12,8 C 27,2 C 50 % 1015,8 hPa 0,0 l/m 20,1 km/h (4 Bft) O 89 2 min 0,000 mm 1,5 UV-I 467 W/m 8,6 C 15,3 C 29,0 km/h (5 Bft) 91,49 %
14.10.2018 11:22 19,4 C 12,8 C 27,2 C 50 % 1015,7 hPa 0,0 l/m 19,1 km/h (3 Bft) O-SO 103 2 min 0,000 mm 1,5 UV-I 469 W/m 8,7 C 15,6 C 24,1 km/h (4 Bft) 93,33 %
14.10.2018 11:24 19,4 C 12,8 C 27,2 C 49 % 1015,7 hPa 0,0 l/m 19,6 km/h (3 Bft) O-SO 107 2 min 0,000 mm 1,5 UV-I 472 W/m 8,4 C 15,5 C 25,7 km/h (4 Bft) 93,18 %
14.10.2018 11:26 19,5 C 12,8 C 27,8 C 49 % 1015,7 hPa 0,0 l/m 17,3 km/h (3 Bft) O-NO 74 2 min 0,000 mm 1,5 UV-I 475 W/m 8,5 C 16,1 C 24,1 km/h (4 Bft) 96,00 %
14.10.2018 11:28 19,6 C 12,8 C 27,8 C 50 % 1015,7 hPa 0,0 l/m 18,6 km/h (3 Bft) O 96 2 min 0,000 mm 1,6 UV-I 476 W/m 8,9 C 16,0 C 24,1 km/h (4 Bft) 97,56 %
14.10.2018 11:30 19,7 C 12,8 C 27,8 C 49 % 1015,6 hPa 0,0 l/m 20,1 km/h (4 Bft) O 98 2 min 0,000 mm 1,6 UV-I 478 W/m 8,7 C 15,8 C 25,7 km/h (4 Bft) 96,00 %
14.10.2018 11:32 19,7 C 12,8 C 27,8 C 49 % 1015,6 hPa 0,0 l/m 16,8 km/h (3 Bft) O 100 2 min 0,000 mm 1,6 UV-I 480 W/m 8,7 C 16,5 C 22,5 km/h (4 Bft) 97,87 %
14.10.2018 11:34 19,8 C 12,8 C 27,8 C 50 % 1015,7 hPa 0,0 l/m 17,1 km/h (3 Bft) O 97 2 min 0,000 mm 1,6 UV-I 483 W/m 9,1 C 16,5 C 24,1 km/h (4 Bft) 97,73 %
14.10.2018 11:36 19,9 C 12,8 C 28,3 C 49 % 1015,6 hPa 0,0 l/m 16,0 km/h (3 Bft) O 97 2 min 0,000 mm 1,6 UV-I 485 W/m 8,9 C 16,9 C 22,5 km/h (4 Bft) 97,87 %
14.10.2018 11:38 20,1 C 12,8 C 28,9 C 50 % 1015,6 hPa 0,0 l/m 15,1 km/h (3 Bft) O 85 2 min 0,000 mm 1,7 UV-I 487 W/m 9,3 C 17,3 C 19,3 km/h (3 Bft) 98,11 %
14.10.2018 11:40 20,2 C 12,8 C 28,9 C 49 % 1015,5 hPa 0,0 l/m 15,0 km/h (3 Bft) O-NO 64 2 min 0,000 mm 1,7 UV-I 490 W/m 9,1 C 17,5 C 19,3 km/h (3 Bft) 97,56 %
14.10.2018 11:42 20,3 C 12,8 C 28,9 C 48 % 1015,5 hPa 0,0 l/m 15,9 km/h (3 Bft) O-NO 69 2 min 0,000 mm 1,7 UV-I 491 W/m 8,9 C 17,4 C 22,5 km/h (4 Bft) 100,00 %
14.10.2018 11:44 20,4 C 12,8 C 29,4 C 48 % 1015,5 hPa 0,0 l/m 13,0 km/h (3 Bft) O 97 2 min 0,000 mm 1,7 UV-I 493 W/m 9,0 C 18,2 C 19,3 km/h (3 Bft) 100,00 %
14.10.2018 11:46 20,5 C 12,8 C 29,4 C 48 % 1015,6 hPa 0,0 l/m 11,6 km/h (2 Bft) O 98 2 min 0,000 mm 1,7 UV-I 494 W/m 9,1 C 18,7 C 16,1 km/h (3 Bft) 100,00 %
14.10.2018 11:48 20,6 C 12,8 C 29,4 C 47 % 1015,6 hPa 0,0 l/m 13,5 km/h (3 Bft) O-NO 74 2 min 0,000 mm 1,7 UV-I 495 W/m 8,9 C 18,3 C 17,7 km/h (3 Bft) 97,37 %
14.10.2018 11:50 20,7 C 12,8 C 29,4 C 48 % 1015,5 hPa 0,0 l/m 14,1 km/h (3 Bft) O 94 2 min 0,000 mm 1,8 UV-I 497 W/m 9,3 C 18,3 C 19,3 km/h (3 Bft) 100,00 %
14.10.2018 11:52 20,7 C 12,8 C 28,9 C 48 % 1015,5 hPa 0,0 l/m 16,8 km/h (3 Bft) O 98 2 min 0,000 mm 1,8 UV-I 497 W/m 9,3 C 17,7 C 19,3 km/h (3 Bft) 100,00 %
14.10.2018 11:54 20,8 C 12,8 C 29,4 C 48 % 1015,5 hPa 0,0 l/m 14,6 km/h (3 Bft) O 82 2 min 0,000 mm 1,8 UV-I 500 W/m 9,4 C 18,3 C 20,9 km/h (4 Bft) 100,00 %
14.10.2018 11:56 20,9 C 12,8 C 30,0 C 47 % 1015,5 hPa 0,0 l/m 13,7 km/h (3 Bft) O-SO 106 2 min 0,000 mm 1,8 UV-I 501 W/m 9,2 C 18,6 C 17,7 km/h (3 Bft) 96,23 %
14.10.2018 11:58 21,1 C 12,8 C 30,0 C 48 % 1015,5 hPa 0,0 l/m 12,4 km/h (3 Bft) O-SO 105 2 min 0,000 mm 1,8 UV-I 502 W/m 9,7 C 19,2 C 19,3 km/h (3 Bft) 100,00 %
14.10.2018 12:00 21,2 C 12,8 C 30,0 C 47 % 1015,5 hPa 0,0 l/m 14,8 km/h (3 Bft) O-NO 75 2 min 0,381 mm 1,8 UV-I 503 W/m 9,4 C 18,7 C 22,5 km/h (4 Bft) 97,22 %
14.10.2018 12:02 21,2 C 12,8 C 29,4 C 46 % 1015,5 hPa 0,0 l/m 16,7 km/h (3 Bft) O-SO 120 2 min 0,000 mm 1,8 UV-I 505 W/m 9,1 C 18,4 C 25,7 km/h (4 Bft) 100,00 %
14.10.2018 12:04 21,2 C 12,8 C 29,4 C 46 % 1015,5 hPa 0,0 l/m 15,8 km/h (3 Bft) O-SO 104 2 min 0,000 mm 1,8 UV-I 505 W/m 9,1 C 18,5 C 24,1 km/h (4 Bft) 100,00 %
14.10.2018 12:06 21,2 C 12,8 C 29,4 C 46 % 1015,5 hPa 0,0 l/m 17,6 km/h (3 Bft) O-SO 114 2 min 0,000 mm 1,8 UV-I 506 W/m 9,1 C 18,2 C 25,7 km/h (4 Bft) 97,44 %
14.10.2018 12:09 21,2 C 12,8 C 29,4 C 47 % 1015,5 hPa 0,0 l/m 14,1 km/h (3 Bft) O 97 3 min 0,000 mm 1,8 UV-I 508 W/m 9,4 C 18,9 C 22,5 km/h (4 Bft) 100,00 %
14.10.2018 12:10 21,2 C 12,8 C 29,4 C 47 % 1015,5 hPa 0,0 l/m 13,3 km/h (3 Bft) O 100 1 min 0,000 mm 1,9 UV-I 509 W/m 9,4 C 19,1 C 17,7 km/h (3 Bft) 100,00 %
14.10.2018 12:12 21,3 C 12,8 C 28,9 C 45 % 1015,4 hPa 0,0 l/m 19,1 km/h (3 Bft) O 101 2 min 0,000 mm 1,8 UV-I 507 W/m 8,9 C 18,0 C 25,7 km/h (4 Bft) 100,00 %
14.10.2018 12:14 21,3 C 12,8 C 28,3 C 45 % 1015,5 hPa 0,0 l/m 18,1 km/h (3 Bft) O 83 2 min 0,000 mm 1,9 UV-I 508 W/m 8,9 C 18,2 C 27,4 km/h (4 Bft) 97,87 %
14.10.2018 12:16 21,3 C 12,8 C 28,9 C 46 % 1015,4 hPa 0,0 l/m 14,4 km/h (3 Bft) O-NO 74 2 min 0,000 mm 1,9 UV-I 510 W/m 9,2 C 19,0 C 20,9 km/h (4 Bft) 100,00 %
14.10.2018 12:18 21,3 C 12,8 C 28,9 C 46 % 1015,4 hPa 0,0 l/m 19,0 km/h (3 Bft) O-NO 76 2 min 0,000 mm 1,9 UV-I 510 W/m 9,2 C 18,1 C 22,5 km/h (4 Bft) 96,77 %
14.10.2018 12:20 21,4 C 12,8 C 28,9 C 45 % 1015,5 hPa 0,0 l/m 19,9 km/h (4 Bft) O-NO 78 2 min 0,000 mm 1,9 UV-I 510 W/m 9,0 C 18,0 C 25,7 km/h (4 Bft) 100,00 %
14.10.2018 12:22 21,4 C 12,8 C 28,3 C 45 % 1015,5 hPa 0,0 l/m 20,5 km/h (4 Bft) O 93 2 min 0,000 mm 1,9 UV-I 512 W/m 9,0 C 17,9 C 27,4 km/h (4 Bft) 94,74 %
14.10.2018 12:24 21,4 C 12,8 C 28,9 C 46 % 1015,4 hPa 0,0 l/m 14,3 km/h (3 Bft) O-NO 59 2 min 0,000 mm 1,9 UV-I 512 W/m 9,3 C 19,1 C 20,9 km/h (4 Bft) 98,00 %
14.10.2018 12:26 21,4 C 12,8 C 28,9 C 46 % 1015,4 hPa 0,0 l/m 17,1 km/h (3 Bft) O-NO 58 2 min 0,000 mm 1,9 UV-I 512 W/m 9,3 C 18,5 C 24,1 km/h (4 Bft) 100,00 %
14.10.2018 12:28 21,4 C 12,8 C 28,9 C 46 % 1015,4 hPa 0,0 l/m 19,0 km/h (3 Bft) O-SO 115 2 min 0,000 mm 1,9 UV-I 514 W/m 9,3 C 18,2 C 25,7 km/h (4 Bft) 100,00 %
14.10.2018 12:30 21,5 C 12,8 C 28,9 C 45 % 1015,3 hPa 0,0 l/m 16,8 km/h (3 Bft) O 101 2 min 0,000 mm 1,9 UV-I 513 W/m 9,1 C 18,7 C 24,1 km/h (4 Bft) 100,00 %
14.10.2018 12:32 21,6 C 12,8 C 28,9 C 46 % 1015,4 hPa 0,0 l/m 15,7 km/h (3 Bft) O-NO 64 2 min 0,000 mm 1,9 UV-I 513 W/m 9,5 C 19,0 C 20,9 km/h (4 Bft) 98,00 %
14.10.2018 12:34 21,7 C 12,8 C 28,9 C 45 % 1015,3 hPa 0,0 l/m 18,5 km/h (3 Bft) O 91 2 min 0,000 mm 1,9 UV-I 513 W/m 9,2 C 18,7 C 27,4 km/h (4 Bft) 95,56 %
14.10.2018 12:36 21,7 C 12,8 C 28,9 C 45 % 1015,2 hPa 0,0 l/m 20,5 km/h (4 Bft) O-NO 68 2 min 0,000 mm 1,9 UV-I 513 W/m 9,2 C 18,3 C 25,7 km/h (4 Bft) 98,00 %
14.10.2018 12:38 21,8 C 12,8 C 28,3 C 45 % 1015,3 hPa 0,0 l/m 20,1 km/h (4 Bft) O-SO 104 2 min 0,000 mm 1,9 UV-I 513 W/m 9,3 C 18,5 C 25,7 km/h (4 Bft) 97,56 %
14.10.2018 12:40 21,8 C 12,8 C 28,9 C 45 % 1015,2 hPa 0,0 l/m 18,1 km/h (3 Bft) O-SO 113 2 min 0,000 mm 1,9 UV-I 513 W/m 9,3 C 18,8 C 25,7 km/h (4 Bft) 96,43 %
14.10.2018 12:42 21,9 C 12,8 C 28,9 C 44 % 1015,2 hPa 0,0 l/m 19,2 km/h (3 Bft) O 84 2 min 0,000 mm 1,9 UV-I 513 W/m 9,1 C 18,8 C 24,1 km/h (4 Bft) 100,00 %
14.10.2018 12:44 22,0 C 12,8 C 29,4 C 45 % 1015,2 hPa 0,0 l/m 16,9 km/h (3 Bft) O 92 2 min 0,000 mm 1,9 UV-I 513 W/m 9,5 C 19,3 C 22,5 km/h (4 Bft) 92,00 %
14.10.2018 12:46 22,1 C 12,8 C 30,0 C 44 % 1015,2 hPa 0,0 l/m 15,9 km/h (3 Bft) O-SO 109 2 min 0,000 mm 1,9 UV-I 513 W/m 9,3 C 19,6 C 22,5 km/h (4 Bft) 100,00 %
14.10.2018 12:48 22,3 C 12,8 C 30,0 C 44 % 1015,2 hPa 0,0 l/m 16,4 km/h (3 Bft) O 82 2 min 0,000 mm 1,9 UV-I 513 W/m 9,5 C 19,8 C 22,5 km/h (4 Bft) 96,43 %
14.10.2018 12:50 22,3 C 12,8 C 29,4 C 43 % 1015,2 hPa 0,0 l/m 17,9 km/h (3 Bft) NO 49 2 min 0,000 mm 1,9 UV-I 513 W/m 9,1 C 19,5 C 27,4 km/h (4 Bft) 98,11 %
14.10.2018 12:52 22,3 C 12,8 C 29,4 C 43 % 1015,2 hPa 0,0 l/m 17,1 km/h (3 Bft) O 90 2 min 0,000 mm 1,9 UV-I 512 W/m 9,1 C 19,6 C 25,7 km/h (4 Bft) 97,37 %
14.10.2018 12:54 22,4 C 12,8 C 28,9 C 43 % 1015,2 hPa 0,0 l/m 21,6 km/h (4 Bft) O-NO 74 2 min 0,000 mm 1,9 UV-I 512 W/m 9,2 C 19,1 C 30,6 km/h (5 Bft) 96,23 %
14.10.2018 12:56 22,4 C 12,8 C 28,3 C 43 % 1015,1 hPa 0,0 l/m 20,6 km/h (4 Bft) O-NO 78 2 min 0,000 mm 1,9 UV-I 513 W/m 9,2 C 19,2 C 27,4 km/h (4 Bft) 95,12 %
14.10.2018 12:58 22,4 C 12,8 C 28,9 C 43 % 1015,0 hPa 0,0 l/m 23,7 km/h (4 Bft) O 82 2 min 0,000 mm 1,9 UV-I 512 W/m 9,2 C 18,8 C 33,8 km/h (5 Bft) 95,74 %
14.10.2018 13:00 22,4 C 12,8 C 28,3 C 42 % 1015,0 hPa 0,0 l/m 24,1 km/h (4 Bft) O 86 2 min 0,000 mm 1,9 UV-I 512 W/m 8,9 C 18,7 C 32,2 km/h (5 Bft) 98,00 %
14.10.2018 13:02 22,5 C 12,8 C 27,8 C 42 % 1015,1 hPa 0,0 l/m 21,2 km/h (4 Bft) O 88 2 min 0,457 mm 1,9 UV-I 513 W/m 8,9 C 19,3 C 33,8 km/h (5 Bft) 95,12 %
14.10.2018 13:04 22,6 C 12,8 C 27,2 C 42 % 1015,0 hPa 0,0 l/m 17,6 km/h (3 Bft) O 91 2 min 0,000 mm 1,9 UV-I 513 W/m 9,0 C 19,9 C 27,4 km/h (4 Bft) 98,00 %
14.10.2018 13:06 22,6 C 12,8 C 27,2 C 42 % 1015,1 hPa 0,0 l/m 16,6 km/h (3 Bft) O 101 2 min 0,000 mm 1,9 UV-I 511 W/m 9,0 C 20,1 C 24,1 km/h (4 Bft) 98,00 %
14.10.2018 13:08 22,7 C 12,8 C 27,2 C 42 % 1015,0 hPa 0,0 l/m 18,6 km/h (3 Bft) O-SO 108 2 min 0,000 mm 1,9 UV-I 510 W/m 9,1 C 19,9 C 29,0 km/h (5 Bft) 98,08 %
14.10.2018 13:10 22,8 C 12,8 C 26,7 C 42 % 1015,0 hPa 0,0 l/m 22,1 km/h (4 Bft) O 101 2 min 0,000 mm 1,9 UV-I 508 W/m 9,2 C 19,5 C 27,4 km/h (4 Bft) 94,74 %
14.10.2018 13:12 22,9 C 12,8 C 26,7 C 41 % 1014,9 hPa 0,0 l/m 23,4 km/h (4 Bft) O-SO 105 2 min 0,000 mm 1,9 UV-I 508 W/m 8,9 C 19,5 C 32,2 km/h (5 Bft) 96,00 %
14.10.2018 13:14 22,9 C 12,8 C 26,1 C 40 % 1014,9 hPa 0,0 l/m 22,7 km/h (4 Bft) O-SO 115 2 min 0,000 mm 1,9 UV-I 509 W/m 8,6 C 19,6 C 32,2 km/h (5 Bft) 97,92 %
14.10.2018 13:16 23,1 C 12,8 C 25,6 C 39 % 1014,8 hPa 0,0 l/m 25,1 km/h (4 Bft) O 99 2 min 0,000 mm 1,9 UV-I 508 W/m 8,4 C 19,6 C 37,0 km/h (5 Bft) 97,96 %
14.10.2018 13:18 23,0 C 12,8 C 25,0 C 39 % 1014,8 hPa 0,0 l/m 24,0 km/h (4 Bft) O-SO 104 2 min 0,000 mm 1,9 UV-I 506 W/m 8,3 C 19,6 C 35,4 km/h (5 Bft) 97,22 %
14.10.2018 13:20 23,0 C 12,8 C 25,0 C 40 % 1014,9 hPa 0,0 l/m 23,2 km/h (4 Bft) O-NO 75 2 min 0,000 mm 1,9 UV-I 505 W/m 8,7 C 19,7 C 30,6 km/h (5 Bft) 98,21 %
14.10.2018 13:22 23,1 C 12,8 C 25,6 C 40 % 1014,8 hPa 0,0 l/m 21,0 km/h (4 Bft) O-NO 71 2 min 0,000 mm 1,9 UV-I 504 W/m 8,8 C 20,1 C 30,6 km/h (5 Bft) 92,68 %
14.10.2018 13:24 23,1 C 12,8 C 25,6 C 40 % 1014,8 hPa 0,0 l/m 23,5 km/h (4 Bft) O 90 2 min 0,000 mm 1,9 UV-I 503 W/m 8,8 C 19,8 C 32,2 km/h (5 Bft) 98,11 %
14.10.2018 13:26 23,2 C 12,8 C 25,6 C 39 % 1014,7 hPa 0,0 l/m 21,4 km/h (4 Bft) O-NO 69 2 min 0,000 mm 1,8 UV-I 503 W/m 8,5 C 20,2 C 32,2 km/h (5 Bft) 97,87 %
14.10.2018 13:28 23,2 C 12,8 C 26,1 C 40 % 1014,7 hPa 0,0 l/m 20,2 km/h (4 Bft) O-SO 105 2 min 0,000 mm 1,8 UV-I 501 W/m 8,8 C 20,3 C 27,4 km/h (4 Bft) 93,62 %
14.10.2018 13:30 23,3 C 12,8 C 26,1 C 40 % 1014,7 hPa 0,0 l/m 20,0 km/h (4 Bft) O 82 2 min 0,000 mm 1,8 UV-I 501 W/m 8,9 C 20,5 C 32,2 km/h (5 Bft) 100,00 %
14.10.2018 13:32 23,3 C 12,8 C 25,6 C 39 % 1014,7 hPa 0,0 l/m 24,7 km/h (4 Bft) O 92 2 min 0,000 mm 1,8 UV-I 499 W/m 8,6 C 19,9 C 35,4 km/h (5 Bft) 100,00 %
14.10.2018 13:34 23,3 C 12,8 C 25,6 C 39 % 1014,6 hPa 0,0 l/m 22,5 km/h (4 Bft) O-NO 75 2 min 0,000 mm 1,8 UV-I 498 W/m 8,6 C 20,1 C 30,6 km/h (5 Bft) 98,00 %
14.10.2018 13:36 23,4 C 12,8 C 25,6 C 40 % 1014,6 hPa 0,0 l/m 20,7 km/h (4 Bft) O-NO 73 2 min 0,000 mm 1,8 UV-I 496 W/m 9,0 C 20,5 C 29,0 km/h (5 Bft) 100,00 %
14.10.2018 13:38 23,4 C 12,8 C 25,6 C 39 % 1014,6 hPa 0,0 l/m 22,9 km/h (4 Bft) O 86 2 min 0,000 mm 1,8 UV-I 493 W/m 8,6 C 20,2 C 30,6 km/h (5 Bft) 100,00 %
14.10.2018 13:40 23,5 C 12,8 C 25,0 C 39 % 1014,6 hPa 0,0 l/m 21,6 km/h (4 Bft) O 89 2 min 0,000 mm 1,8 UV-I 492 W/m 8,7 C 20,5 C 30,6 km/h (5 Bft) 100,00 %
14.10.2018 13:42 23,5 C 12,8 C 24,4 C 39 % 1014,6 hPa 0,0 l/m 22,1 km/h (4 Bft) O 92 2 min 0,000 mm 1,8 UV-I 492 W/m 8,7 C 20,5 C 29,0 km/h (5 Bft) 100,00 %
14.10.2018 13:44 23,6 C 12,8 C 24,4 C 39 % 1014,5 hPa 0,0 l/m 19,0 km/h (3 Bft) O 89 2 min 0,000 mm 1,8 UV-I 490 W/m 8,8 C 21,0 C 22,5 km/h (4 Bft) 100,00 %
14.10.2018 13:46 23,7 C 12,8 C 24,4 C 39 % 1014,5 hPa 0,0 l/m 21,6 km/h (4 Bft) O 90 2 min 0,000 mm 1,8 UV-I 490 W/m 8,9 C 20,8 C 30,6 km/h (5 Bft) 97,87 %
14.10.2018 13:48 23,7 C 12,8 C 24,4 C 38 % 1014,5 hPa 0,0 l/m 18,4 km/h (3 Bft) O-NO 76 2 min 0,000 mm 1,8 UV-I 488 W/m 8,5 C 21,2 C 29,0 km/h (5 Bft) 100,00 %
14.10.2018 13:50 23,8 C 12,8 C 23,9 C 38 % 1014,4 hPa 0,0 l/m 21,1 km/h (4 Bft) O-NO 72 2 min 0,000 mm 1,7 UV-I 486 W/m 8,6 C 21,0 C 29,0 km/h (5 Bft) 100,00 %
14.10.2018 13:52 23,9 C 12,8 C 23,9 C 38 % 1014,4 hPa 0,0 l/m 16,3 km/h (3 Bft) O-NO 60 2 min 0,000 mm 1,7 UV-I 484 W/m 8,7 C 21,8 C 25,7 km/h (4 Bft) 98,08 %
14.10.2018 13:54 23,9 C 12,8 C 23,3 C 37 % 1014,4 hPa 0,0 l/m 18,7 km/h (3 Bft) O 80 2 min 0,000 mm 1,7 UV-I 483 W/m 8,3 C 21,4 C 25,7 km/h (4 Bft) 100,00 %
14.10.2018 13:56 23,9 C 12,8 C 23,3 C 38 % 1014,3 hPa 0,0 l/m 18,4 km/h (3 Bft) O-NO 59 2 min 0,000 mm 1,7 UV-I 482 W/m 8,7 C 21,5 C 27,4 km/h (4 Bft) 100,00 %
14.10.2018 13:58 23,9 C 12,8 C 23,3 C 37 % 1014,2 hPa 0,0 l/m 17,7 km/h (3 Bft) O 84 2 min 0,000 mm 1,7 UV-I 479 W/m 8,3 C 21,6 C 24,1 km/h (4 Bft) 98,00 %
14.10.2018 14:00 24,1 C 12,8 C 23,9 C 38 % 1014,2 hPa 0,0 l/m 16,0 km/h (3 Bft) O 88 2 min 0,483 mm 1,7 UV-I 477 W/m 8,9 C 22,1 C 20,9 km/h (4 Bft) 100,00 %
14.10.2018 14:02 24,2 C 12,8 C 23,9 C 37 % 1014,2 hPa 0,0 l/m 18,4 km/h (3 Bft) O 80 2 min 0,000 mm 1,7 UV-I 475 W/m 8,6 C 21,8 C 25,7 km/h (4 Bft) 100,00 %
14.10.2018 14:04 24,3 C 12,8 C 23,9 C 37 % 1014,2 hPa 0,0 l/m 20,0 km/h (4 Bft) O-NO 66 2 min 0,000 mm 1,7 UV-I 475 W/m 8,7 C 21,8 C 29,0 km/h (5 Bft) 98,00 %
14.10.2018 14:06 24,3 C 12,8 C 23,9 C 37 % 1014,2 hPa 0,0 l/m 22,0 km/h (4 Bft) O-NO 59 2 min 0,000 mm 1,6 UV-I 473 W/m 8,7 C 21,5 C 30,6 km/h (5 Bft) 96,23 %
14.10.2018 14:08 24,3 C 12,8 C 23,9 C 37 % 1014,1 hPa 0,0 l/m 23,4 km/h (4 Bft) O-NO 65 2 min 0,000 mm 1,6 UV-I 470 W/m 8,7 C 21,4 C 30,6 km/h (5 Bft) 97,56 %
14.10.2018 14:10 24,4 C 12,8 C 23,9 C 37 % 1014,0 hPa 0,0 l/m 20,6 km/h (4 Bft) O-SO 102 2 min 0,000 mm 1,6 UV-I 467 W/m 8,8 C 21,8 C 29,0 km/h (5 Bft) 98,11 %
14.10.2018 14:12 24,4 C 12,8 C 23,3 C 36 % 1014,0 hPa 0,0 l/m 21,3 km/h (4 Bft) O-SO 123 2 min 0,000 mm 1,6 UV-I 465 W/m 8,4 C 21,7 C 29,0 km/h (5 Bft) 94,74 %
14.10.2018 14:14 24,5 C 12,8 C 23,3 C 36 % 1014,0 hPa 0,0 l/m 18,8 km/h (3 Bft) O-NO 60 2 min 0,000 mm 1,6 UV-I 462 W/m 8,4 C 22,2 C 25,7 km/h (4 Bft) 98,00 %
14.10.2018 14:16 24,6 C 12,8 C 23,3 C 35 % 1014,0 hPa 0,0 l/m 20,9 km/h (4 Bft) O 99 2 min 0,000 mm 1,6 UV-I 461 W/m 8,1 C 22,0 C 29,0 km/h (5 Bft) 98,11 %
14.10.2018 14:18 24,7 C 12,8 C 23,3 C 35 % 1014,0 hPa 0,0 l/m 18,8 km/h (3 Bft) O 99 2 min 0,000 mm 1,6 UV-I 459 W/m 8,2 C 22,4 C 24,1 km/h (4 Bft) 94,74 %
14.10.2018 14:20 24,7 C 12,8 C 23,3 C 35 % 1013,9 hPa 0,0 l/m 18,3 km/h (3 Bft) O-NO 67 2 min 0,000 mm 1,6 UV-I 457 W/m 8,2 C 22,5 C 24,1 km/h (4 Bft) 98,21 %
14.10.2018 14:22 24,8 C 12,8 C 23,3 C 35 % 1013,9 hPa 0,0 l/m 14,9 km/h (3 Bft) O-NO 64 2 min 0,000 mm 1,5 UV-I 453 W/m 8,3 C 23,1 C 22,5 km/h (4 Bft) 95,12 %
14.10.2018 14:24 24,8 C 12,8 C 23,3 C 34 % 1013,9 hPa 0,0 l/m 16,4 km/h (3 Bft) O-NO 78 2 min 0,000 mm 1,5 UV-I 448 W/m 7,9 C 22,9 C 25,7 km/h (4 Bft) 98,04 %
14.10.2018 14:26 24,9 C 12,8 C 23,3 C 34 % 1013,9 hPa 0,0 l/m 21,3 km/h (4 Bft) O-NO 65 2 min 0,000 mm 1,5 UV-I 446 W/m 7,9 C 22,4 C 33,8 km/h (5 Bft) 97,44 %
14.10.2018 14:28 24,9 C 12,8 C 23,3 C 34 % 1013,9 hPa 0,0 l/m 17,8 km/h (3 Bft) O 93 2 min 0,000 mm 1,5 UV-I 443 W/m 7,9 C 22,8 C 24,1 km/h (4 Bft) 97,87 %
14.10.2018 14:30 24,9 C 12,8 C 23,3 C 33 % 1013,9 hPa 0,0 l/m 12,7 km/h (3 Bft) O-SO 116 2 min 0,000 mm 1,5 UV-I 430 W/m 7,5 C 23,6 C 19,3 km/h (3 Bft) 100,00 %
14.10.2018 14:32 25,0 C 12,8 C 23,3 C 33 % 1013,9 hPa 0,0 l/m 14,0 km/h (3 Bft) O-SO 105 2 min 0,000 mm 1,5 UV-I 414 W/m 7,6 C 23,5 C 22,5 km/h (4 Bft) 100,00 %
14.10.2018 14:34 25,2 C 12,8 C 23,3 C 33 % 1013,9 hPa 0,0 l/m 19,3 km/h (3 Bft) SO 138 2 min 0,000 mm 1,4 UV-I 428 W/m 7,8 C 23,0 C 27,4 km/h (4 Bft) 97,73 %
14.10.2018 14:36 25,2 C 12,8 C 23,3 C 31 % 1013,9 hPa 0,0 l/m 19,2 km/h (3 Bft) SO 132 2 min 0,000 mm 1,4 UV-I 431 W/m 6,9 C 23,0 C 33,8 km/h (5 Bft) 97,73 %
14.10.2018 14:38 25,2 C 12,8 C 23,3 C 31 % 1013,9 hPa 0,0 l/m 19,3 km/h (3 Bft) SO 134 2 min 0,000 mm 1,4 UV-I 429 W/m 6,9 C 23,0 C 30,6 km/h (5 Bft) 100,00 %
14.10.2018 14:40 25,3 C 12,8 C 23,3 C 31 % 1013,9 hPa 0,0 l/m 15,6 km/h (3 Bft) O-SO 121 2 min 0,000 mm 1,4 UV-I 416 W/m 6,9 C 23,6 C 22,5 km/h (4 Bft) 100,00 %
14.10.2018 14:42 25,3 C 12,8 C 23,3 C 30 % 1013,8 hPa 0,0 l/m 15,8 km/h (3 Bft) SO 139 2 min 0,000 mm 1,4 UV-I 420 W/m 6,5 C 23,6 C 22,5 km/h (4 Bft) 100,00 %
14.10.2018 14:44 25,3 C 12,8 C 23,3 C 31 % 1013,8 hPa 0,0 l/m 11,9 km/h (2 Bft) O-SO 111 2 min 0,000 mm 1,3 UV-I 421 W/m 6,9 C 24,1 C 20,9 km/h (4 Bft) 100,00 %
14.10.2018 14:46 25,4 C 12,8 C 23,3 C 30 % 1013,8 hPa 0,0 l/m 17,4 km/h (3 Bft) O 86 2 min 0,000 mm 1,3 UV-I 418 W/m 6,6 C 23,5 C 25,7 km/h (4 Bft) 94,92 %
14.10.2018 14:48 25,4 C 12,8 C 23,3 C 31 % 1013,8 hPa 0,0 l/m 18,7 km/h (3 Bft) O-SO 123 2 min 0,000 mm 1,3 UV-I 416 W/m 7,0 C 23,3 C 29,0 km/h (5 Bft) 100,00 %
14.10.2018 14:50 25,4 C 12,8 C 23,3 C 31 % 1013,8 hPa 0,0 l/m 14,3 km/h (3 Bft) O-SO 103 2 min 0,000 mm 1,3 UV-I 413 W/m 7,0 C 23,9 C 27,4 km/h (4 Bft) 98,21 %
14.10.2018 14:52 25,4 C 12,8 C 23,3 C 31 % 1013,7 hPa 0,0 l/m 16,1 km/h (3 Bft) S-SO 164 2 min 0,000 mm 1,3 UV-I 410 W/m 7,0 C 23,6 C 24,1 km/h (4 Bft) 100,00 %
14.10.2018 14:54 25,4 C 12,8 C 23,3 C 30 % 1013,8 hPa 0,0 l/m 21,1 km/h (4 Bft) SO 125 2 min 0,000 mm 1,3 UV-I 406 W/m 6,6 C 23,1 C 32,2 km/h (5 Bft) 97,14 %
14.10.2018 14:56 25,4 C 12,8 C 23,3 C 31 % 1013,6 hPa 0,0 l/m 17,5 km/h (3 Bft) SO 125 2 min 0,000 mm 1,3 UV-I 402 W/m 7,0 C 23,5 C 22,5 km/h (4 Bft) 97,87 %
14.10.2018 14:58 25,4 C 12,8 C 23,3 C 30 % 1013,8 hPa 0,0 l/m 18,8 km/h (3 Bft) S 188 2 min 0,000 mm 1,2 UV-I 399 W/m 6,6 C 23,3 C 24,1 km/h (4 Bft) 97,56 %
14.10.2018 15:00 25,3 C 12,8 C 23,3 C 31 % 1013,7 hPa 0,0 l/m 18,0 km/h (3 Bft) O-SO 119 2 min 0,457 mm 1,2 UV-I 396 W/m 6,9 C 23,3 C 27,4 km/h (4 Bft) 95,74 %
14.10.2018 15:02 25,4 C 12,8 C 23,3 C 31 % 1013,7 hPa 0,0 l/m 13,8 km/h (3 Bft) S 180 2 min 0,000 mm 1,2 UV-I 393 W/m 7,0 C 24,0 C 20,9 km/h (4 Bft) 95,74 %
14.10.2018 15:04 25,4 C 12,8 C 23,3 C 30 % 1013,6 hPa 0,0 l/m 18,0 km/h (3 Bft) S-SO 161 2 min 0,000 mm 1,2 UV-I 389 W/m 6,6 C 23,4 C 30,6 km/h (5 Bft) 93,75 %
14.10.2018 15:06 25,4 C 12,8 C 23,3 C 31 % 1013,6 hPa 0,0 l/m 11,2 km/h (2 Bft) SO 132 2 min 0,000 mm 1,2 UV-I 385 W/m 7,0 C 24,4 C 17,7 km/h (3 Bft) 95,74 %
14.10.2018 15:09 25,4 C 12,8 C 23,3 C 31 % 1013,6 hPa 0,0 l/m 17,1 km/h (3 Bft) SO 141 3 min 0,000 mm 1,1 UV-I 380 W/m 7,0 C 23,5 C 27,4 km/h (4 Bft) 92,86 %
14.10.2018 15:10 25,4 C 12,8 C 23,3 C 30 % 1013,6 hPa 0,0 l/m 18,8 km/h (3 Bft) SO 131 1 min 0,000 mm 1,1 UV-I 376 W/m 6,6 C 23,3 C 25,7 km/h (4 Bft) 96,30 %
14.10.2018 15:12 25,3 C 12,8 C 23,3 C 31 % 1013,6 hPa 0,0 l/m 17,9 km/h (3 Bft) SO 144 2 min 0,000 mm 1,1 UV-I 374 W/m 6,9 C 23,3 C 27,4 km/h (4 Bft) 93,62 %
14.10.2018 15:14 25,3 C 12,8 C 23,3 C 30 % 1013,6 hPa 0,0 l/m 14,4 km/h (3 Bft) SO 134 2 min 0,000 mm 1,1 UV-I 370 W/m 6,5 C 23,8 C 24,1 km/h (4 Bft) 96,00 %
14.10.2018 15:16 25,3 C 12,8 C 23,3 C 30 % 1013,6 hPa 0,0 l/m 14,9 km/h (3 Bft) O-SO 117 2 min 0,000 mm 1,1 UV-I 366 W/m 6,5 C 23,7 C 22,5 km/h (4 Bft) 88,57 %
14.10.2018 15:18 25,3 C 12,8 C 23,3 C 30 % 1013,6 hPa 0,0 l/m 17,3 km/h (3 Bft) SO 133 2 min 0,000 mm 1,0 UV-I 362 W/m 6,5 C 23,4 C 25,7 km/h (4 Bft) 95,74 %
14.10.2018 15:20 25,3 C 12,8 C 23,3 C 31 % 1013,6 hPa 0,0 l/m 13,2 km/h (3 Bft) SO 131 2 min 0,000 mm 1,0 UV-I 358 W/m 6,9 C 23,9 C 19,3 km/h (3 Bft) 96,00 %
14.10.2018 15:22 25,3 C 12,8 C 22,8 C 31 % 1013,6 hPa 0,0 l/m 12,0 km/h (2 Bft) S 178 2 min 0,000 mm 1,0 UV-I 354 W/m 6,9 C 24,1 C 19,3 km/h (3 Bft) 97,87 %
14.10.2018 15:24 25,3 C 12,8 C 22,8 C 31 % 1013,6 hPa 0,0 l/m 14,2 km/h (3 Bft) S-SO 149 2 min 0,000 mm 1,0 UV-I 350 W/m 6,9 C 23,8 C 22,5 km/h (4 Bft) 95,74 %
14.10.2018 15:26 25,3 C 12,8 C 22,8 C 31 % 1013,6 hPa 0,0 l/m 14,9 km/h (3 Bft) SO 125 2 min 0,000 mm 1,0 UV-I 347 W/m 6,9 C 23,7 C 25,7 km/h (4 Bft) 95,74 %
14.10.2018 15:28 25,3 C 12,8 C 22,8 C 31 % 1013,6 hPa 0,0 l/m 19,1 km/h (3 Bft) O-SO 114 2 min 0,000 mm 0,9 UV-I 341 W/m 6,9 C 23,2 C 30,6 km/h (5 Bft) 97,87 %
14.10.2018 15:30 25,3 C 12,8 C 22,8 C 31 % 1013,6 hPa 0,0 l/m 18,2 km/h (3 Bft) SO 131 2 min 0,000 mm 0,9 UV-I 338 W/m 6,9 C 23,3 C 24,1 km/h (4 Bft) 98,00 %
14.10.2018 15:32 25,2 C 12,8 C 22,8 C 31 % 1013,6 hPa 0,0 l/m 16,2 km/h (3 Bft) SO 128 2 min 0,000 mm 0,9 UV-I 334 W/m 6,9 C 23,4 C 24,1 km/h (4 Bft) 96,00 %
14.10.2018 15:34 25,1 C 12,8 C 22,8 C 30 % 1013,6 hPa 0,0 l/m 18,5 km/h (3 Bft) O-SO 119 2 min 0,000 mm 0,9 UV-I 331 W/m 6,3 C 23,0 C 24,1 km/h (4 Bft) 95,74 %
14.10.2018 15:36 25,1 C 12,8 C 22,8 C 30 % 1013,6 hPa 0,0 l/m 16,7 km/h (3 Bft) SO 140 2 min 0,000 mm 0,9 UV-I 326 W/m 6,3 C 23,2 C 24,1 km/h (4 Bft) 95,74 %
14.10.2018 15:38 25,1 C 12,8 C 22,8 C 31 % 1013,6 hPa 0,0 l/m 14,6 km/h (3 Bft) SO 143 2 min 0,000 mm 0,9 UV-I 323 W/m 6,8 C 23,5 C 24,1 km/h (4 Bft) 93,62 %
14.10.2018 15:40 25,1 C 12,8 C 22,8 C 31 % 1013,6 hPa 0,0 l/m 12,6 km/h (3 Bft) S-SO 156 2 min 0,000 mm 0,8 UV-I 319 W/m 6,8 C 23,8 C 25,7 km/h (4 Bft) 94,44 %
14.10.2018 15:42 25,0 C 12,8 C 22,8 C 31 % 1013,7 hPa 0,0 l/m 14,9 km/h (3 Bft) SO 133 2 min 0,000 mm 0,8 UV-I 315 W/m 6,7 C 23,3 C 24,1 km/h (4 Bft) 94,00 %
14.10.2018 15:44 25,0 C 12,8 C 22,8 C 31 % 1013,6 hPa 0,0 l/m 13,8 km/h (3 Bft) SO 146 2 min 0,000 mm 0,8 UV-I 310 W/m 6,7 C 23,5 C 25,7 km/h (4 Bft) 95,83 %
14.10.2018 15:46 25,0 C 12,8 C 22,8 C 31 % 1013,7 hPa 0,0 l/m 12,2 km/h (2 Bft) S-SO 154 2 min 0,000 mm 0,8 UV-I 306 W/m 6,7 C 23,8 C 17,7 km/h (3 Bft) 98,00 %
14.10.2018 15:48 24,9 C 12,8 C 22,2 C 31 % 1013,7 hPa 0,0 l/m 14,1 km/h (3 Bft) S-SO 155 2 min 0,000 mm 0,8 UV-I 301 W/m 6,6 C 23,3 C 22,5 km/h (4 Bft) 95,74 %
14.10.2018 15:50 24,9 C 12,8 C 22,2 C 31 % 1013,7 hPa 0,0 l/m 18,4 km/h (3 Bft) S-SO 151 2 min 0,000 mm 0,8 UV-I 296 W/m 6,6 C 22,7 C 29,0 km/h (5 Bft) 94,00 %
14.10.2018 15:52 24,9 C 12,8 C 22,2 C 31 % 1013,7 hPa 0,0 l/m 15,5 km/h (3 Bft) S-SO 166 2 min 0,000 mm 0,7 UV-I 292 W/m 6,6 C 23,1 C 20,9 km/h (4 Bft) 92,11 %
14.10.2018 15:54 24,9 C 12,8 C 22,2 C 31 % 1013,7 hPa 0,0 l/m 13,1 km/h (3 Bft) S 182 2 min 0,000 mm 0,7 UV-I 288 W/m 6,6 C 23,5 C 19,3 km/h (3 Bft) 95,74 %
14.10.2018 15:56 24,8 C 12,8 C 22,2 C 31 % 1013,8 hPa 0,0 l/m 14,6 km/h (3 Bft) SO 142 2 min 0,000 mm 0,7 UV-I 285 W/m 6,5 C 23,1 C 20,9 km/h (4 Bft) 93,62 %
14.10.2018 15:58 24,8 C 12,8 C 22,2 C 32 % 1013,8 hPa 0,0 l/m 11,1 km/h (2 Bft) SO 131 2 min 0,000 mm 0,7 UV-I 279 W/m 7,0 C 23,7 C 17,7 km/h (3 Bft) 93,62 %
14.10.2018 16:00 24,8 C 12,8 C 22,2 C 32 % 1013,7 hPa 0,0 l/m 8,6 km/h (2 Bft) SO 124 2 min 0,000 mm 0,7 UV-I 275 W/m 7,0 C 24,2 C 14,5 km/h (3 Bft) 95,74 %
14.10.2018 16:02 24,9 C 12,8 C 21,7 C 32 % 1013,7 hPa 0,0 l/m 13,2 km/h (3 Bft) O 93 2 min 0,381 mm 0,6 UV-I 270 W/m 7,1 C 23,5 C 20,9 km/h (4 Bft) 94,00 %
14.10.2018 16:04 24,9 C 12,8 C 22,2 C 31 % 1013,8 hPa 0,0 l/m 13,9 km/h (3 Bft) O 97 2 min 0,000 mm 0,6 UV-I 265 W/m 6,6 C 23,4 C 22,5 km/h (4 Bft) 95,12 %
14.10.2018 16:06 24,9 C 12,8 C 22,2 C 31 % 1013,8 hPa 0,0 l/m 10,8 km/h (2 Bft) O 101 2 min 0,000 mm 0,6 UV-I 261 W/m 6,6 C 23,9 C 20,9 km/h (4 Bft) 97,87 %
14.10.2018 16:08 24,9 C 12,8 C 21,7 C 31 % 1013,8 hPa 0,0 l/m 12,2 km/h (2 Bft) O-SO 114 2 min 0,000 mm 0,6 UV-I 256 W/m 6,6 C 23,6 C 19,3 km/h (3 Bft) 95,74 %
14.10.2018 16:10 24,8 C 12,8 C 21,7 C 31 % 1013,7 hPa 0,0 l/m 15,5 km/h (3 Bft) O-SO 111 2 min 0,000 mm 0,6 UV-I 250 W/m 6,5 C 23,0 C 25,7 km/h (4 Bft) 97,87 %
14.10.2018 16:12 24,8 C 12,8 C 21,7 C 31 % 1013,7 hPa 0,0 l/m 14,8 km/h (3 Bft) O-SO 103 2 min 0,000 mm 0,5 UV-I 246 W/m 6,5 C 23,1 C 20,9 km/h (4 Bft) 100,00 %
14.10.2018 16:14 24,7 C 12,8 C 21,7 C 31 % 1013,8 hPa 0,0 l/m 13,2 km/h (3 Bft) O-SO 102 2 min 0,000 mm 0,5 UV-I 242 W/m 6,4 C 23,2 C 22,5 km/h (4 Bft) 100,00 %
14.10.2018 16:16 24,7 C 12,8 C 21,1 C 31 % 1013,8 hPa 0,0 l/m 11,4 km/h (2 Bft) SO 132 2 min 0,000 mm 0,5 UV-I 237 W/m 6,4 C 23,6 C 20,9 km/h (4 Bft) 100,00 %
14.10.2018 16:18 24,6 C 12,8 C 21,7 C 31 % 1013,8 hPa 0,0 l/m 16,5 km/h (3 Bft) O 96 2 min 0,000 mm 0,5 UV-I 232 W/m 6,3 C 22,6 C 24,1 km/h (4 Bft) 100,00 %
14.10.2018 16:20 24,6 C 12,8 C 21,7 C 31 % 1013,7 hPa 0,0 l/m 11,7 km/h (2 Bft) SO 126 2 min 0,000 mm 0,5 UV-I 228 W/m 6,3 C 23,4 C 22,5 km/h (4 Bft) 97,92 %
14.10.2018 16:22 24,5 C 12,8 C 21,1 C 31 % 1013,7 hPa 0,0 l/m 13,7 km/h (3 Bft) O-SO 107 2 min 0,000 mm 0,5 UV-I 223 W/m 6,3 C 22,9 C 22,5 km/h (4 Bft) 100,00 %
14.10.2018 16:24 24,4 C 12,8 C 21,1 C 31 % 1013,8 hPa 0,0 l/m 12,7 km/h (3 Bft) O-SO 112 2 min 0,000 mm 0,5 UV-I 219 W/m 6,2 C 23,0 C 17,7 km/h (3 Bft) 100,00 %
14.10.2018 16:26 24,4 C 12,8 C 21,1 C 31 % 1013,7 hPa 0,0 l/m 14,2 km/h (3 Bft) O-SO 107 2 min 0,000 mm 0,0 UV-I 213 W/m 6,2 C 22,7 C 24,1 km/h (4 Bft) 100,00 %
14.10.2018 16:28 24,4 C 12,8 C 21,1 C 32 % 1013,7 hPa 0,0 l/m 16,1 km/h (3 Bft) SO 129 2 min 0,000 mm 0,0 UV-I 209 W/m 6,6 C 22,4 C 20,9 km/h (4 Bft) 95,74 %
14.10.2018 16:30 24,3 C 12,8 C 21,1 C 32 % 1013,7 hPa 0,0 l/m 11,1 km/h (2 Bft) SO 130 2 min 0,000 mm 0,0 UV-I 203 W/m 6,5 C 23,2 C 19,3 km/h (3 Bft) 97,87 %
14.10.2018 16:32 24,3 C 12,8 C 21,1 C 32 % 1013,8 hPa 0,0 l/m 11,7 km/h (2 Bft) O-SO 117 2 min 0,000 mm 0,0 UV-I 199 W/m 6,5 C 23,0 C 20,9 km/h (4 Bft) 95,74 %
14.10.2018 16:34 24,3 C 12,8 C 21,1 C 32 % 1013,7 hPa 0,0 l/m 9,5 km/h (2 Bft) SO 134 2 min 0,000 mm 0,0 UV-I 195 W/m 6,5 C 23,5 C 17,7 km/h (3 Bft) 100,00 %
14.10.2018 16:36 24,2 C 12,8 C 21,1 C 32 % 1013,7 hPa 0,0 l/m 12,7 km/h (3 Bft) O-SO 113 2 min 0,000 mm 0,0 UV-I 189 W/m 6,5 C 22,7 C 20,9 km/h (4 Bft) 95,74 %
14.10.2018 16:38 24,2 C 12,8 C 21,1 C 32 % 1013,7 hPa 0,0 l/m 12,3 km/h (3 Bft) S-SO 148 2 min 0,000 mm 0,0 UV-I 184 W/m 6,5 C 22,8 C 27,4 km/h (4 Bft) 97,87 %
14.10.2018 16:40 24,2 C 12,8 C 20,6 C 32 % 1013,8 hPa 0,0 l/m 12,0 km/h (2 Bft) O-SO 107 2 min 0,000 mm 0,0 UV-I 180 W/m 6,5 C 22,9 C 17,7 km/h (3 Bft) 97,87 %
14.10.2018 16:42 24,1 C 12,8 C 20,6 C 32 % 1013,7 hPa 0,0 l/m 14,1 km/h (3 Bft) O-SO 116 2 min 0,000 mm 0,0 UV-I 175 W/m 6,4 C 22,4 C 24,1 km/h (4 Bft) 97,87 %
14.10.2018 16:44 23,9 C 12,8 C 21,1 C 32 % 1013,7 hPa 0,0 l/m 18,4 km/h (3 Bft) O 93 2 min 0,000 mm 0,0 UV-I 172 W/m 6,2 C 21,5 C 27,4 km/h (4 Bft) 100,00 %
14.10.2018 16:46 23,9 C 12,8 C 20,6 C 31 % 1013,7 hPa 0,0 l/m 18,5 km/h (3 Bft) SO 144 2 min 0,000 mm 0,0 UV-I 167 W/m 5,7 C 21,4 C 27,4 km/h (4 Bft) 100,00 %
14.10.2018 16:48 23,8 C 12,8 C 20,6 C 32 % 1013,7 hPa 0,0 l/m 15,9 km/h (3 Bft) O-SO 113 2 min 0,000 mm 0,0 UV-I 163 W/m 6,1 C 21,7 C 24,1 km/h (4 Bft) 97,87 %
14.10.2018 16:50 23,8 C 12,8 C 20,6 C 32 % 1013,7 hPa 0,0 l/m 11,6 km/h (2 Bft) O-SO 102 2 min 0,000 mm 0,0 UV-I 157 W/m 6,1 C 22,5 C 17,7 km/h (3 Bft) 97,87 %
14.10.2018 16:52 23,7 C 12,8 C 20,6 C 33 % 1013,8 hPa 0,0 l/m 11,3 km/h (2 Bft) O-SO 108 2 min 0,000 mm 0,0 UV-I 154 W/m 6,5 C 22,4 C 17,7 km/h (3 Bft) 97,14 %
14.10.2018 16:54 23,6 C 12,8 C 20,6 C 33 % 1013,7 hPa 0,0 l/m 8,1 km/h (2 Bft) SO 128 2 min 0,000 mm 0,0 UV-I 152 W/m 6,4 C 23,1 C 14,5 km/h (3 Bft) 97,92 %
14.10.2018 16:56 23,5 C 12,8 C 20,6 C 33 % 1013,7 hPa 0,0 l/m 10,9 km/h (2 Bft) S-SO 148 2 min 0,000 mm 0,0 UV-I 147 W/m 6,3 C 22,3 C 16,1 km/h (3 Bft) 97,87 %
14.10.2018 16:58 23,4 C 12,8 C 20,6 C 33 % 1013,7 hPa 0,0 l/m 15,9 km/h (3 Bft) O 100 2 min 0,000 mm 0,0 UV-I 142 W/m 6,2 C 21,2 C 24,1 km/h (4 Bft) 96,00 %
14.10.2018 17:00 23,4 C 12,8 C 20,0 C 33 % 1013,7 hPa 0,0 l/m 15,5 km/h (3 Bft) SO 125 2 min 0,000 mm 0,0 UV-I 138 W/m 6,2 C 21,3 C 24,1 km/h (4 Bft) 97,87 %
14.10.2018 17:02 23,3 C 12,8 C 20,0 C 33 % 1013,7 hPa 0,0 l/m 11,4 km/h (2 Bft) O-SO 119 2 min 0,279 mm 0,0 UV-I 134 W/m 6,1 C 22,0 C 20,9 km/h (4 Bft) 98,00 %
14.10.2018 17:04 23,3 C 12,8 C 20,0 C 34 % 1013,7 hPa 0,0 l/m 11,9 km/h (2 Bft) O-SO 108 2 min 0,000 mm 0,0 UV-I 130 W/m 6,6 C 21,9 C 17,7 km/h (3 Bft) 96,00 %
14.10.2018 17:06 23,2 C 12,8 C 20,0 C 33 % 1013,7 hPa 0,0 l/m 12,2 km/h (2 Bft) O-SO 117 2 min 0,000 mm 0,0 UV-I 126 W/m 6,0 C 21,7 C 17,7 km/h (3 Bft) 95,74 %
14.10.2018 17:08 23,2 C 12,8 C 20,0 C 33 % 1013,7 hPa 0,0 l/m 13,3 km/h (3 Bft) SO 131 2 min 0,000 mm 0,0 UV-I 123 W/m 6,0 C 21,4 C 22,5 km/h (4 Bft) 97,14 %
14.10.2018 17:10 23,1 C 12,8 C 20,0 C 34 % 1013,8 hPa 0,0 l/m 9,7 km/h (2 Bft) SO 128 2 min 0,000 mm 0,0 UV-I 120 W/m 6,4 C 22,1 C 16,1 km/h (3 Bft) 96,23 %
14.10.2018 17:12 23,1 C 12,8 C 20,0 C 34 % 1013,7 hPa 0,0 l/m 14,7 km/h (3 Bft) O-SO 109 2 min 0,000 mm 0,0 UV-I 116 W/m 6,4 C 21,1 C 22,5 km/h (4 Bft) 95,74 %
14.10.2018 17:14 23,1 C 12,8 C 20,0 C 34 % 1013,7 hPa 0,0 l/m 10,4 km/h (2 Bft) O 98 2 min 0,000 mm 0,0 UV-I 103 W/m 6,4 C 22,0 C 19,3 km/h (3 Bft) 91,49 %
14.10.2018 17:16 22,9 C 12,8 C 20,0 C 34 % 1013,6 hPa 0,0 l/m 13,8 km/h (3 Bft) SO 137 0 min 0,000 mm 0,0 UV-I 76 W/m 6,2 C 21,0 C 22,5 km/h (4 Bft) 93,62 %
14.10.2018 17:18 22,9 C 12,8 C 19,4 C 34 % 1013,7 hPa 0,0 l/m 12,5 km/h (3 Bft) O-SO 102 0 min 0,000 mm 0,0 UV-I 81 W/m 6,2 C 21,3 C 19,3 km/h (3 Bft) 95,74 %
14.10.2018 17:20 22,8 C 12,8 C 19,4 C 34 % 1013,7 hPa 0,0 l/m 11,9 km/h (2 Bft) O-SO 114 0 min 0,000 mm 0,0 UV-I 80 W/m 6,1 C 21,3 C 16,1 km/h (3 Bft) 92,00 %
14.10.2018 17:22 22,7 C 12,8 C 19,4 C 34 % 1013,7 hPa 0,0 l/m 13,0 km/h (3 Bft) O 89 2 min 0,000 mm 0,0 UV-I 93 W/m 6,0 C 20,9 C 20,9 km/h (4 Bft) 93,62 %
14.10.2018 17:24 22,6 C 12,8 C 19,4 C 35 % 1013,7 hPa 0,0 l/m 12,3 km/h (3 Bft) O-SO 115 2 min 0,000 mm 0,0 UV-I 87 W/m 6,4 C 21,0 C 19,3 km/h (3 Bft) 95,74 %
14.10.2018 17:26 22,6 C 12,8 C 19,4 C 35 % 1013,8 hPa 0,0 l/m 13,4 km/h (3 Bft) O-SO 103 2 min 0,000 mm 0,0 UV-I 81 W/m 6,4 C 20,7 C 20,9 km/h (4 Bft) 97,87 %
14.10.2018 17:28 22,6 C 12,8 C 19,4 C 34 % 1013,7 hPa 0,0 l/m 12,6 km/h (3 Bft) O-SO 109 2 min 0,000 mm 0,0 UV-I 80 W/m 5,9 C 20,9 C 19,3 km/h (3 Bft) 95,74 %
14.10.2018 17:30 22,6 C 12,8 C 18,9 C 35 % 1013,7 hPa 0,0 l/m 11,4 km/h (2 Bft) SO 131 2 min 0,000 mm 0,0 UV-I 78 W/m 6,4 C 21,2 C 20,9 km/h (4 Bft) 95,74 %
14.10.2018 17:32 22,5 C 12,8 C 19,4 C 35 % 1013,7 hPa 0,0 l/m 13,8 km/h (3 Bft) O-SO 115 2 min 0,000 mm 0,0 UV-I 76 W/m 6,3 C 20,5 C 22,5 km/h (4 Bft) 97,22 %
14.10.2018 17:34 22,5 C 12,8 C 18,9 C 35 % 1013,7 hPa 0,0 l/m 13,1 km/h (3 Bft) SO 125 2 min 0,000 mm 0,0 UV-I 72 W/m 6,3 C 20,7 C 22,5 km/h (4 Bft) 98,00 %
14.10.2018 17:36 22,4 C 12,8 C 18,9 C 35 % 1013,7 hPa 0,0 l/m 12,9 km/h (3 Bft) SO 133 2 min 0,000 mm 0,0 UV-I 69 W/m 6,2 C 20,6 C 24,1 km/h (4 Bft) 100,00 %
14.10.2018 17:38 22,3 C 12,8 C 18,9 C 35 % 1013,6 hPa 0,0 l/m 17,9 km/h (3 Bft) O-SO 103 2 min 0,000 mm 0,0 UV-I 65 W/m 6,1 C 19,5 C 27,4 km/h (4 Bft) 95,74 %
14.10.2018 17:40 22,3 C 12,8 C 18,9 C 36 % 1013,7 hPa 0,0 l/m 16,6 km/h (3 Bft) SO 132 2 min 0,000 mm 0,0 UV-I 62 W/m 6,5 C 19,7 C 25,7 km/h (4 Bft) 95,74 %
14.10.2018 17:42 22,3 C 12,8 C 19,4 C 36 % 1013,6 hPa 0,0 l/m 16,5 km/h (3 Bft) O-SO 108 2 min 0,000 mm 0,0 UV-I 59 W/m 6,5 C 19,8 C 24,1 km/h (4 Bft) 100,00 %
14.10.2018 17:44 22,3 C 12,8 C 19,4 C 36 % 1013,7 hPa 0,0 l/m 17,8 km/h (3 Bft) O-SO 114 2 min 0,000 mm 0,0 UV-I 52 W/m 6,5 C 19,5 C 29,0 km/h (5 Bft) 96,00 %
14.10.2018 17:46 22,2 C 12,8 C 19,4 C 36 % 1013,7 hPa 0,0 l/m 15,6 km/h (3 Bft) SO 138 2 min 0,000 mm 0,0 UV-I 48 W/m 6,4 C 19,8 C 24,1 km/h (4 Bft) 100,00 %
14.10.2018 17:48 22,2 C 12,8 C 18,9 C 36 % 1013,7 hPa 0,0 l/m 12,5 km/h (3 Bft) O 95 2 min 0,000 mm 0,0 UV-I 46 W/m 6,4 C 20,4 C 24,1 km/h (4 Bft) 97,87 %
14.10.2018 17:50 22,1 C 12,8 C 18,9 C 36 % 1013,7 hPa 0,0 l/m 10,9 km/h (2 Bft) SO 134 2 min 0,000 mm 0,0 UV-I 43 W/m 6,3 C 20,7 C 20,9 km/h (4 Bft) 100,00 %
14.10.2018 17:52 21,9 C 12,8 C 18,9 C 37 % 1013,7 hPa 0,0 l/m 9,5 km/h (2 Bft) SO 124 2 min 0,000 mm 0,0 UV-I 42 W/m 6,5 C 20,9 C 14,5 km/h (3 Bft) 100,00 %
14.10.2018 17:54 21,9 C 12,8 C 18,9 C 36 % 1013,8 hPa 0,0 l/m 12,4 km/h (3 Bft) SO 128 2 min 0,000 mm 0,0 UV-I 40 W/m 6,1 C 20,1 C 20,9 km/h (4 Bft) 100,00 %
14.10.2018 17:56 21,8 C 12,8 C 18,9 C 36 % 1013,8 hPa 0,0 l/m 15,3 km/h (3 Bft) O-SO 115 2 min 0,000 mm 0,0 UV-I 37 W/m 6,1 C 19,4 C 24,1 km/h (4 Bft) 100,00 %
14.10.2018 17:58 21,7 C 12,8 C 18,9 C 37 % 1013,7 hPa 0,0 l/m 12,2 km/h (2 Bft) O-SO 102 2 min 0,000 mm 0,0 UV-I 33 W/m 6,4 C 19,9 C 19,3 km/h (3 Bft) 100,00 %
14.10.2018 18:00 21,6 C 12,8 C 18,3 C 37 % 1013,8 hPa 0,0 l/m 9,8 km/h (2 Bft) SO 132 2 min 0,178 mm 0,0 UV-I 30 W/m 6,3 C 20,5 C 14,5 km/h (3 Bft) 100,00 %
14.10.2018 18:02 21,5 C 12,8 C 18,3 C 37 % 1013,8 hPa 0,0 l/m 8,5 km/h (2 Bft) O-SO 121 2 min 0,000 mm 0,0 UV-I 27 W/m 6,2 C 20,8 C 17,7 km/h (3 Bft) 100,00 %
14.10.2018 18:04 21,4 C 12,8 C 17,8 C 38 % 1013,7 hPa 0,0 l/m 14,5 km/h (3 Bft) O-SO 109 2 min 0,000 mm 0,0 UV-I 25 W/m 6,5 C 19,1 C 22,5 km/h (4 Bft) 100,00 %
14.10.2018 18:06 21,4 C 12,8 C 17,8 C 38 % 1013,7 hPa 0,0 l/m 13,3 km/h (3 Bft) NO 56 2 min 0,000 mm 0,0 UV-I 22 W/m 6,5 C 19,3 C 17,7 km/h (3 Bft) 97,87 %
14.10.2018 18:08 21,4 C 12,8 C 17,8 C 38 % 1013,7 hPa 0,0 l/m 11,9 km/h (2 Bft) O-SO 121 0 min 0,000 mm 0,0 UV-I 19 W/m 6,5 C 19,7 C 17,7 km/h (3 Bft) 100,00 %
14.10.2018 18:10 21,4 C 12,8 C 17,8 C 38 % 1013,7 hPa 0,0 l/m 17,3 km/h (3 Bft) O-SO 114 0 min 0,000 mm 0,0 UV-I 16 W/m 6,5 C 18,5 C 25,7 km/h (4 Bft) 100,00 %
14.10.2018 18:12 21,3 C 12,8 C 18,3 C 38 % 1013,8 hPa 0,0 l/m 12,8 km/h (3 Bft) O-SO 111 0 min 0,000 mm 0,0 UV-I 13 W/m 6,4 C 19,3 C 17,7 km/h (3 Bft) 100,00 %
14.10.2018 18:14 21,3 C 12,8 C 17,8 C 38 % 1013,8 hPa 0,0 l/m 11,3 km/h (2 Bft) O 89 0 min 0,000 mm 0,0 UV-I 12 W/m 6,4 C 19,7 C 17,7 km/h (3 Bft) 100,00 %
14.10.2018 18:16 21,2 C 12,8 C 17,8 C 38 % 1013,8 hPa 0,0 l/m 11,5 km/h (2 Bft) O 90 0 min 0,000 mm 0,0 UV-I 11 W/m 6,3 C 19,5 C 16,1 km/h (3 Bft) 100,00 %
14.10.2018 18:18 21,1 C 12,8 C 17,8 C 39 % 1013,8 hPa 0,0 l/m 12,7 km/h (3 Bft) O-SO 113 0 min 0,000 mm 0,0 UV-I 10 W/m 6,6 C 19,1 C 20,9 km/h (4 Bft) 100,00 %
14.10.2018 18:20 21,1 C 12,8 C 17,8 C 39 % 1013,8 hPa 0,0 l/m 11,4 km/h (2 Bft) O 98 0 min 0,000 mm 0,0 UV-I 9 W/m 6,6 C 19,5 C 16,1 km/h (3 Bft) 100,00 %
14.10.2018 18:22 21,0 C 12,8 C 17,2 C 39 % 1013,9 hPa 0,0 l/m 11,6 km/h (2 Bft) O-SO 111 0 min 0,000 mm 0,0 UV-I 8 W/m 6,5 C 19,3 C 17,7 km/h (3 Bft) 97,87 %
14.10.2018 18:24 20,9 C 12,8 C 17,2 C 39 % 1013,9 hPa 0,0 l/m 12,7 km/h (3 Bft) O-SO 114 0 min 0,000 mm 0,0 UV-I 7 W/m 6,4 C 18,9 C 17,7 km/h (3 Bft) 97,87 %
14.10.2018 18:26 20,8 C 12,8 C 17,2 C 40 % 1013,9 hPa 0,0 l/m 11,2 km/h (2 Bft) O 100 0 min 0,000 mm 0,0 UV-I 7 W/m 6,7 C 19,2 C 17,7 km/h (3 Bft) 100,00 %
14.10.2018 18:28 20,6 C 12,8 C 17,2 C 40 % 1013,9 hPa 0,0 l/m 10,5 km/h (2 Bft) O 97 0 min 0,000 mm 0,0 UV-I 5 W/m 6,5 C 19,1 C 17,7 km/h (3 Bft) 100,00 %
14.10.2018 18:30 20,6 C 12,8 C 16,7 C 41 % 1013,9 hPa 0,0 l/m 12,0 km/h (2 Bft) O 94 0 min 0,000 mm 0,0 UV-I 5 W/m 6,9 C 18,7 C 19,3 km/h (3 Bft) 100,00 %
14.10.2018 18:32 20,4 C 12,8 C 16,7 C 42 % 1013,9 hPa 0,0 l/m 10,6 km/h (2 Bft) O 97 0 min 0,000 mm 0,0 UV-I 5 W/m 7,1 C 18,9 C 14,5 km/h (3 Bft) 97,87 %
14.10.2018 18:34 20,2 C 12,8 C 16,7 C 42 % 1013,9 hPa 0,0 l/m 9,5 km/h (2 Bft) O 86 0 min 0,000 mm 0,0 UV-I 2 W/m 6,9 C 19,0 C 14,5 km/h (3 Bft) 100,00 %
14.10.2018 18:36 20,1 C 12,8 C 16,1 C 42 % 1013,9 hPa 0,0 l/m 8,9 km/h (2 Bft) O-SO 109 0 min 0,000 mm 0,0 UV-I 0 W/m 6,8 C 19,1 C 12,9 km/h (3 Bft) 100,00 %
14.10.2018 18:38 20,1 C 12,8 C 16,1 C 43 % 1013,9 hPa 0,0 l/m 11,7 km/h (2 Bft) O 101 0 min 0,000 mm 0,0 UV-I 0 W/m 7,1 C 18,2 C 16,1 km/h (3 Bft) 100,00 %
14.10.2018 18:40 20,0 C 12,8 C 16,1 C 43 % 1014,0 hPa 0,0 l/m 9,1 km/h (2 Bft) O 96 0 min 0,000 mm 0,0 UV-I 0 W/m 7,0 C 18,9 C 12,9 km/h (3 Bft) 97,87 %
14.10.2018 18:42 19,9 C 12,8 C 15,6 C 43 % 1013,9 hPa 0,0 l/m 11,2 km/h (2 Bft) O 94 0 min 0,000 mm 0,0 UV-I 0 W/m 6,9 C 18,2 C 12,9 km/h (3 Bft) 97,87 %
14.10.2018 18:44 19,8 C 12,8 C 15,6 C 44 % 1014,0 hPa 0,0 l/m 8,5 km/h (2 Bft) O 92 0 min 0,000 mm 0,0 UV-I 0 W/m 7,2 C 18,9 C 12,9 km/h (3 Bft) 96,00 %
14.10.2018 18:46 19,7 C 12,8 C 15,6 C 44 % 1014,0 hPa 0,0 l/m 10,9 km/h (2 Bft) O-SO 115 0 min 0,000 mm 0,0 UV-I 0 W/m 7,1 C 18,0 C 16,1 km/h (3 Bft) 97,87 %
14.10.2018 18:48 19,6 C 12,8 C 15,6 C 44 % 1014,1 hPa 0,0 l/m 9,7 km/h (2 Bft) O-SO 105 0 min 0,000 mm 0,0 UV-I 0 W/m 7,0 C 18,3 C 12,9 km/h (3 Bft) 95,74 %
14.10.2018 18:50 19,5 C 12,8 C 15,6 C 45 % 1014,1 hPa 0,0 l/m 7,6 km/h (2 Bft) O 93 0 min 0,000 mm 0,0 UV-I 0 W/m 7,2 C 19,0 C 12,9 km/h (3 Bft) 93,62 %
14.10.2018 18:52 19,4 C 12,8 C 15,0 C 45 % 1014,1 hPa 0,0 l/m 9,9 km/h (2 Bft) O 98 0 min 0,000 mm 0,0 UV-I 0 W/m 7,2 C 18,0 C 14,5 km/h (3 Bft) 93,75 %
14.10.2018 18:54 19,3 C 12,8 C 15,0 C 46 % 1014,1 hPa 0,0 l/m 9,2 km/h (2 Bft) O 100 0 min 0,000 mm 0,0 UV-I 0 W/m 7,4 C 18,2 C 12,9 km/h (3 Bft) 94,74 %
14.10.2018 18:56 19,3 C 12,8 C 15,0 C 46 % 1014,1 hPa 0,0 l/m 9,8 km/h (2 Bft) O 96 0 min 0,000 mm 0,0 UV-I 0 W/m 7,4 C 17,9 C 14,5 km/h (3 Bft) 92,86 %
14.10.2018 18:58 19,3 C 12,8 C 15,0 C 46 % 1014,1 hPa 0,0 l/m 10,6 km/h (2 Bft) O 93 0 min 0,000 mm 0,0 UV-I 0 W/m 7,4 C 17,7 C 14,5 km/h (3 Bft) 91,49 %
14.10.2018 19:00 19,3 C 12,8 C 15,0 C 46 % 1014,1 hPa 0,0 l/m 9,5 km/h (2 Bft) O 96 0 min 0,000 mm 0,0 UV-I 0 W/m 7,4 C 18,0 C 14,5 km/h (3 Bft) 97,87 %
14.10.2018 19:02 19,2 C 12,8 C 15,0 C 46 % 1014,1 hPa 0,0 l/m 11,3 km/h (2 Bft) O-SO 107 0 min 0,102 mm 0,0 UV-I 0 W/m 7,3 C 17,3 C 14,5 km/h (3 Bft) 95,74 %
14.10.2018 19:04 19,1 C 12,8 C 15,0 C 46 % 1014,1 hPa 0,0 l/m 12,9 km/h (3 Bft) O 82 0 min 0,000 mm 0,0 UV-I 0 W/m 7,2 C 16,7 C 19,3 km/h (3 Bft) 95,74 %
14.10.2018 19:06 19,2 C 12,8 C 15,6 C 46 % 1014,1 hPa 0,0 l/m 13,3 km/h (3 Bft) O 98 0 min 0,000 mm 0,0 UV-I 0 W/m 7,3 C 16,7 C 19,3 km/h (3 Bft) 97,87 %
14.10.2018 19:08 19,1 C 12,8 C 15,6 C 46 % 1014,1 hPa 0,0 l/m 10,6 km/h (2 Bft) O-SO 117 0 min 0,000 mm 0,0 UV-I 0 W/m 7,2 C 17,4 C 16,1 km/h (3 Bft) 97,87 %
14.10.2018 19:10 19,1 C 12,8 C 15,6 C 46 % 1014,1 hPa 0,0 l/m 10,2 km/h (2 Bft) O-SO 104 0 min 0,000 mm 0,0 UV-I 0 W/m 7,2 C 17,6 C 17,7 km/h (3 Bft) 97,87 %
14.10.2018 19:12 19,0 C 12,8 C 15,6 C 46 % 1014,1 hPa 0,0 l/m 12,0 km/h (2 Bft) O-SO 112 0 min 0,000 mm 0,0 UV-I 0 W/m 7,1 C 16,9 C 17,7 km/h (3 Bft) 97,37 %
14.10.2018 19:14 19,1 C 12,8 C 15,6 C 46 % 1014,1 hPa 0,0 l/m 9,8 km/h (2 Bft) O 88 0 min 0,000 mm 0,0 UV-I 0 W/m 7,2 C 17,7 C 17,7 km/h (3 Bft) 96,00 %
14.10.2018 19:16 19,0 C 12,8 C 15,6 C 46 % 1014,1 hPa 0,0 l/m 12,8 km/h (3 Bft) O-SO 121 0 min 0,000 mm 0,0 UV-I 0 W/m 7,1 C 16,6 C 17,7 km/h (3 Bft) 93,62 %
14.10.2018 19:18 18,9 C 12,8 C 15,6 C 47 % 1014,1 hPa 0,0 l/m 10,2 km/h (2 Bft) SO 124 0 min 0,000 mm 0,0 UV-I 0 W/m 7,3 C 17,4 C 14,5 km/h (3 Bft) 95,74 %
14.10.2018 19:20 18,9 C 12,8 C 15,6 C 47 % 1014,2 hPa 0,0 l/m 13,4 km/h (3 Bft) O-SO 106 0 min 0,000 mm 0,0 UV-I 0 W/m 7,3 C 16,3 C 20,9 km/h (4 Bft) 95,74 %
14.10.2018 19:22 18,8 C 12,8 C 15,6 C 47 % 1014,2 hPa 0,0 l/m 13,0 km/h (3 Bft) O 98 0 min 0,000 mm 0,0 UV-I 0 W/m 7,2 C 16,3 C 17,7 km/h (3 Bft) 95,74 %
14.10.2018 19:24 18,8 C 12,8 C 15,6 C 47 % 1014,2 hPa 0,0 l/m 12,5 km/h (3 Bft) O 97 0 min 0,000 mm 0,0 UV-I 0 W/m 7,2 C 16,5 C 17,7 km/h (3 Bft) 97,87 %
14.10.2018 19:26 18,7 C 12,8 C 15,0 C 47 % 1014,1 hPa 0,0 l/m 12,5 km/h (3 Bft) O 92 0 min 0,000 mm 0,0 UV-I 0 W/m 7,2 C 16,4 C 19,3 km/h (3 Bft) 95,74 %
14.10.2018 19:28 18,6 C 12,8 C 15,0 C 48 % 1014,2 hPa 0,0 l/m 11,8 km/h (2 Bft) O 88 0 min 0,000 mm 0,0 UV-I 0 W/m 7,4 C 16,5 C 19,3 km/h (3 Bft) 95,83 %
14.10.2018 19:30 18,6 C 12,8 C 15,0 C 47 % 1014,2 hPa 0,0 l/m 12,2 km/h (2 Bft) SO 133 0 min 0,000 mm 0,0 UV-I 0 W/m 7,1 C 16,4 C 17,7 km/h (3 Bft) 97,87 %
14.10.2018 19:32 18,7 C 12,8 C 15,6 C 47 % 1014,2 hPa 0,0 l/m 12,9 km/h (3 Bft) O-SO 109 0 min 0,000 mm 0,0 UV-I 0 W/m 7,2 C 16,3 C 20,9 km/h (4 Bft) 97,87 %
14.10.2018 19:34 18,6 C 12,8 C 15,6 C 47 % 1014,2 hPa 0,0 l/m 14,4 km/h (3 Bft) O-SO 103 0 min 0,000 mm 0,0 UV-I 0 W/m 7,1 C 15,7 C 17,7 km/h (3 Bft) 97,56 %
14.10.2018 19:36 18,6 C 12,8 C 15,6 C 47 % 1014,2 hPa 0,0 l/m 14,4 km/h (3 Bft) O-SO 105 0 min 0,000 mm 0,0 UV-I 0 W/m 7,1 C 15,7 C 20,9 km/h (4 Bft) 98,00 %
14.10.2018 19:38 18,6 C 12,8 C 15,6 C 48 % 1014,3 hPa 0,0 l/m 12,0 km/h (2 Bft) S-SO 150 0 min 0,000 mm 0,0 UV-I 0 W/m 7,4 C 16,4 C 16,1 km/h (3 Bft) 95,74 %
14.10.2018 19:40 18,6 C 12,8 C 15,6 C 47 % 1014,3 hPa 0,0 l/m 12,0 km/h (2 Bft) O-SO 109 0 min 0,000 mm 0,0 UV-I 0 W/m 7,1 C 16,4 C 20,9 km/h (4 Bft) 95,74 %
14.10.2018 19:42 18,5 C 12,8 C 15,6 C 48 % 1014,3 hPa 0,0 l/m 11,3 km/h (2 Bft) SO 132 0 min 0,000 mm 0,0 UV-I 0 W/m 7,3 C 16,5 C 17,7 km/h (3 Bft) 94,00 %
14.10.2018 19:44 18,4 C 12,8 C 15,6 C 48 % 1014,2 hPa 0,0 l/m 11,5 km/h (2 Bft) O-SO 119 0 min 0,000 mm 0,0 UV-I 0 W/m 7,2 C 16,4 C 16,1 km/h (3 Bft) 94,29 %
14.10.2018 19:46 18,5 C 12,8 C 15,6 C 47 % 1014,3 hPa 0,0 l/m 11,9 km/h (2 Bft) O-SO 107 0 min 0,000 mm 0,0 UV-I 0 W/m 7,0 C 16,3 C 17,7 km/h (3 Bft) 96,00 %
14.10.2018 19:48 18,5 C 12,8 C 15,6 C 47 % 1014,2 hPa 0,0 l/m 9,7 km/h (2 Bft) O-SO 103 0 min 0,000 mm 0,0 UV-I 0 W/m 7,0 C 17,1 C 16,1 km/h (3 Bft) 97,87 %
14.10.2018 19:50 18,6 C 12,8 C 15,6 C 47 % 1014,2 hPa 0,0 l/m 11,1 km/h (2 Bft) SO 132 0 min 0,000 mm 0,0 UV-I 0 W/m 7,1 C 16,7 C 16,1 km/h (3 Bft) 96,00 %
14.10.2018 19:52 18,6 C 12,8 C 15,6 C 47 % 1014,3 hPa 0,0 l/m 9,6 km/h (2 Bft) O-SO 103 0 min 0,000 mm 0,0 UV-I 0 W/m 7,1 C 17,2 C 14,5 km/h (3 Bft) 93,62 %
14.10.2018 19:54 18,5 C 12,8 C 15,0 C 47 % 1014,2 hPa 0,0 l/m 7,9 km/h (2 Bft) O 90 0 min 0,000 mm 0,0 UV-I 0 W/m 7,0 C 17,8 C 14,5 km/h (3 Bft) 97,87 %
14.10.2018 19:56 18,5 C 12,8 C 15,0 C 47 % 1014,2 hPa 0,0 l/m 10,9 km/h (2 Bft) O 96 0 min 0,000 mm 0,0 UV-I 0 W/m 7,0 C 16,7 C 17,7 km/h (3 Bft) 93,62 %
14.10.2018 19:58 18,5 C 12,8 C 15,0 C 47 % 1014,2 hPa 0,0 l/m 10,7 km/h (2 Bft) O 87 0 min 0,000 mm 0,0 UV-I 0 W/m 7,0 C 16,7 C 16,1 km/h (3 Bft) 95,74 %
14.10.2018 20:00 18,4 C 12,8 C 15,0 C 48 % 1014,3 hPa 0,0 l/m 9,3 km/h (2 Bft) O-SO 119 0 min 0,000 mm 0,0 UV-I 0 W/m 7,2 C 17,1 C 14,5 km/h (3 Bft) 96,00 %
14.10.2018 20:02 18,4 C 12,8 C 15,0 C 47 % 1014,3 hPa 0,0 l/m 11,5 km/h (2 Bft) O-SO 115 0 min 0,101 mm 0,0 UV-I 0 W/m 6,9 C 16,4 C 19,3 km/h (3 Bft) 97,87 %
14.10.2018 20:04 18,3 C 12,8 C 15,0 C 48 % 1014,3 hPa 0,0 l/m 11,4 km/h (2 Bft) O 101 0 min 0,000 mm 0,0 UV-I 0 W/m 7,1 C 16,3 C 22,5 km/h (4 Bft) 97,92 %
14.10.2018 20:06 18,3 C 12,8 C 15,0 C 47 % 1014,3 hPa 0,0 l/m 13,6 km/h (3 Bft) SO 125 0 min 0,000 mm 0,0 UV-I 0 W/m 6,8 C 15,6 C 19,3 km/h (3 Bft) 97,96 %
14.10.2018 20:08 18,4 C 12,8 C 15,6 C 47 % 1014,3 hPa 0,0 l/m 11,1 km/h (2 Bft) O 90 0 min 0,000 mm 0,0 UV-I 0 W/m 6,9 C 16,5 C 19,3 km/h (3 Bft) 97,44 %
14.10.2018 20:10 18,4 C 12,8 C 15,6 C 47 % 1014,3 hPa 0,0 l/m 11,0 km/h (2 Bft) O 101 0 min 0,000 mm 0,0 UV-I 0 W/m 6,9 C 16,5 C 17,7 km/h (3 Bft) 93,62 %
14.10.2018 20:12 18,3 C 12,8 C 15,6 C 48 % 1014,4 hPa 0,0 l/m 12,9 km/h (3 Bft) O 92 0 min 0,000 mm 0,0 UV-I 0 W/m 7,1 C 15,8 C 20,9 km/h (4 Bft) 93,62 %
14.10.2018 20:14 18,3 C 12,8 C 15,6 C 48 % 1014,4 hPa 0,0 l/m 10,7 km/h (2 Bft) O 92 0 min 0,000 mm 0,0 UV-I 0 W/m 7,1 C 16,5 C 19,3 km/h (3 Bft) 95,74 %
14.10.2018 20:16 18,2 C 12,8 C 15,6 C 48 % 1014,4 hPa 0,0 l/m 12,6 km/h (3 Bft) O-SO 106 0 min 0,000 mm 0,0 UV-I 0 W/m 7,0 C 15,8 C 17,7 km/h (3 Bft) 93,62 %
14.10.2018 20:18 18,2 C 12,8 C 15,6 C 48 % 1014,4 hPa 0,0 l/m 14,3 km/h (3 Bft) SO 128 0 min 0,000 mm 0,0 UV-I 0 W/m 7,0 C 15,3 C 19,3 km/h (3 Bft) 96,00 %
14.10.2018 20:20 18,2 C 12,8 C 15,6 C 48 % 1014,5 hPa 0,0 l/m 14,6 km/h (3 Bft) O-SO 108 0 min 0,000 mm 0,0 UV-I 0 W/m 7,0 C 15,2 C 20,9 km/h (4 Bft) 100,00 %
14.10.2018 20:22 18,2 C 12,8 C 15,6 C 47 % 1014,4 hPa 0,0 l/m 15,4 km/h (3 Bft) O 88 0 min 0,000 mm 0,0 UV-I 0 W/m 6,7 C 15,0 C 22,5 km/h (4 Bft) 91,94 %
14.10.2018 20:24 18,3 C 12,8 C 15,6 C 47 % 1014,4 hPa 0,0 l/m 15,6 km/h (3 Bft) O 87 0 min 0,000 mm 0,0 UV-I 0 W/m 6,8 C 15,0 C 22,5 km/h (4 Bft) 91,49 %
14.10.2018 20:26 18,2 C 12,8 C 15,6 C 47 % 1014,4 hPa 0,0 l/m 13,4 km/h (3 Bft) O-NO 76 0 min 0,000 mm 0,0 UV-I 0 W/m 6,7 C 15,5 C 17,7 km/h (3 Bft) 91,49 %
14.10.2018 20:28 18,2 C 12,8 C 15,6 C 48 % 1014,5 hPa 0,0 l/m 13,3 km/h (3 Bft) O 84 0 min 0,000 mm 0,0 UV-I 0 W/m 7,0 C 15,6 C 19,3 km/h (3 Bft) 95,74 %
14.10.2018 20:30 18,1 C 12,8 C 15,6 C 47 % 1014,5 hPa 0,0 l/m 12,1 km/h (2 Bft) O 90 0 min 0,000 mm 0,0 UV-I 0 W/m 6,6 C 15,8 C 19,3 km/h (3 Bft) 98,11 %
14.10.2018 20:32 18,1 C 12,8 C 15,6 C 47 % 1014,5 hPa 0,0 l/m 15,0 km/h (3 Bft) O 90 0 min 0,000 mm 0,0 UV-I 0 W/m 6,6 C 14,9 C 20,9 km/h (4 Bft) 97,87 %
14.10.2018 20:34 18,1 C 12,8 C 15,6 C 47 % 1014,5 hPa 0,0 l/m 14,2 km/h (3 Bft) O 98 0 min 0,000 mm 0,0 UV-I 0 W/m 6,6 C 15,2 C 20,9 km/h (4 Bft) 100,00 %
14.10.2018 20:36 18,2 C 12,8 C 15,6 C 46 % 1014,5 hPa 0,0 l/m 17,6 km/h (3 Bft) O 100 0 min 0,000 mm 0,0 UV-I 0 W/m 6,4 C 14,4 C 24,1 km/h (4 Bft) 100,00 %
14.10.2018 20:39 18,2 C 12,8 C 15,6 C 47 % 1014,5 hPa 0,0 l/m 16,6 km/h (3 Bft) O-SO 105 0 min 0,000 mm 0,0 UV-I 0 W/m 6,7 C 14,7 C 24,1 km/h (4 Bft) 97,18 %
14.10.2018 20:40 18,2 C 12,8 C 15,6 C 46 % 1014,5 hPa 0,0 l/m 15,7 km/h (3 Bft) O-SO 103 0 min 0,000 mm 0,0 UV-I 0 W/m 6,4 C 14,9 C 19,3 km/h (3 Bft) 100,00 %
14.10.2018 20:42 18,2 C 12,8 C 15,6 C 46 % 1014,4 hPa 0,0 l/m 15,3 km/h (3 Bft) O-SO 118 0 min 0,000 mm 0,0 UV-I 0 W/m 6,4 C 15,0 C 19,3 km/h (3 Bft) 100,00 %
14.10.2018 20:44 18,2 C 12,8 C 15,6 C 46 % 1014,5 hPa 0,0 l/m 13,1 km/h (3 Bft) O-SO 103 0 min 0,000 mm 0,0 UV-I 0 W/m 6,4 C 15,6 C 19,3 km/h (3 Bft) 100,00 %
14.10.2018 20:46 18,2 C 12,8 C 15,6 C 46 % 1014,5 hPa 0,0 l/m 13,0 km/h (3 Bft) O-SO 109 0 min 0,000 mm 0,0 UV-I 0 W/m 6,4 C 15,6 C 16,1 km/h (3 Bft) 100,00 %
14.10.2018 20:48 18,1 C 12,8 C 15,0 C 46 % 1014,5 hPa 0,0 l/m 11,1 km/h (2 Bft) O-SO 106 0 min 0,000 mm 0,0 UV-I 0 W/m 6,3 C 16,1 C 17,7 km/h (3 Bft) 97,87 %
14.10.2018 20:50 18,1 C 12,8 C 15,0 C 47 % 1014,5 hPa 0,0 l/m 12,9 km/h (3 Bft) O 95 0 min 0,000 mm 0,0 UV-I 0 W/m 6,6 C 15,6 C 19,3 km/h (3 Bft) 97,56 %
14.10.2018 20:52 18,0 C 12,8 C 15,0 C 47 % 1014,5 hPa 0,0 l/m 12,0 km/h (2 Bft) O-NO 77 0 min 0,000 mm 0,0 UV-I 0 W/m 6,5 C 15,7 C 16,1 km/h (3 Bft) 93,62 %
14.10.2018 20:54 17,8 C 12,8 C 15,0 C 47 % 1014,6 hPa 0,0 l/m 12,3 km/h (3 Bft) O-SO 103 0 min 0,000 mm 0,0 UV-I 0 W/m 6,3 C 15,4 C 17,7 km/h (3 Bft) 97,87 %
14.10.2018 20:56 17,7 C 12,8 C 14,4 C 47 % 1014,6 hPa 0,0 l/m 10,6 km/h (2 Bft) O 82 0 min 0,000 mm 0,0 UV-I 0 W/m 6,2 C 15,9 C 16,1 km/h (3 Bft) 98,00 %
14.10.2018 20:58 17,6 C 12,8 C 15,0 C 48 % 1014,6 hPa 0,0 l/m 11,5 km/h (2 Bft) O 85 0 min 0,000 mm 0,0 UV-I 0 W/m 6,5 C 15,4 C 16,1 km/h (3 Bft) 95,74 %
14.10.2018 21:00 17,4 C 12,8 C 14,4 C 48 % 1014,6 hPa 0,0 l/m 10,5 km/h (2 Bft) O-NO 72 0 min 0,102 mm 0,0 UV-I 0 W/m 6,3 C 15,6 C 16,1 km/h (3 Bft) 93,62 %
14.10.2018 21:02 17,3 C 12,8 C 14,4 C 48 % 1014,6 hPa 0,0 l/m 10,2 km/h (2 Bft) O-NO 67 0 min 0,000 mm 0,0 UV-I 0 W/m 6,2 C 15,6 C 14,5 km/h (3 Bft) 100,00 %
14.10.2018 21:04 17,3 C 12,8 C 14,4 C 48 % 1014,6 hPa 0,0 l/m 8,2 km/h (2 Bft) O-NO 76 0 min 0,000 mm 0,0 UV-I 0 W/m 6,2 C 16,4 C 12,9 km/h (3 Bft) 97,83 %
14.10.2018 21:06 17,1 C 12,8 C 14,4 C 49 % 1014,6 hPa 0,0 l/m 9,1 km/h (2 Bft) O-SO 107 0 min 0,000 mm 0,0 UV-I 0 W/m 6,3 C 15,8 C 12,9 km/h (3 Bft) 97,37 %
14.10.2018 21:08 16,9 C 12,8 C 14,4 C 49 % 1014,6 hPa 0,0 l/m 11,3 km/h (2 Bft) O-NO 75 0 min 0,000 mm 0,0 UV-I 0 W/m 6,1 C 14,7 C 14,5 km/h (3 Bft) 97,87 %
14.10.2018 21:10 16,9 C 12,8 C 13,9 C 49 % 1014,7 hPa 0,0 l/m 11,3 km/h (2 Bft) O-SO 104 0 min 0,000 mm 0,0 UV-I 0 W/m 6,1 C 14,7 C 16,1 km/h (3 Bft) 97,87 %
14.10.2018 21:12 16,8 C 12,8 C 13,9 C 50 % 1014,7 hPa 0,0 l/m 7,7 km/h (2 Bft) O 81 0 min 0,000 mm 0,0 UV-I 0 W/m 6,3 C 16,1 C 12,9 km/h (3 Bft) 97,87 %
14.10.2018 21:14 16,7 C 12,8 C 13,9 C 50 % 1014,7 hPa 0,0 l/m 9,7 km/h (2 Bft) O 84 0 min 0,000 mm 0,0 UV-I 0 W/m 6,2 C 15,1 C 12,9 km/h (3 Bft) 97,87 %
14.10.2018 21:16 16,7 C 12,8 C 13,9 C 49 % 1014,7 hPa 0,0 l/m 9,6 km/h (2 Bft) O-NO 72 0 min 0,000 mm 0,0 UV-I 0 W/m 5,9 C 15,2 C 14,5 km/h (3 Bft) 97,92 %
14.10.2018 21:19 16,6 C 12,8 C 13,9 C 50 % 1014,6 hPa 0,0 l/m 9,7 km/h (2 Bft) O 80 0 min 0,000 mm 0,0 UV-I 0 W/m 6,1 C 15,0 C 12,9 km/h (3 Bft) 97,56 %
14.10.2018 21:20 16,6 C 12,8 C 13,9 C 50 % 1014,6 hPa 0,0 l/m 9,0 km/h (2 Bft) O-NO 76 0 min 0,000 mm 0,0 UV-I 0 W/m 6,1 C 15,3 C 12,9 km/h (3 Bft) 97,24 %
14.10.2018 21:22 16,5 C 12,8 C 13,9 C 50 % 1014,6 hPa 0,0 l/m 9,9 km/h (2 Bft) O-NO 63 0 min 0,000 mm 0,0 UV-I 0 W/m 6,0 C 14,8 C 14,5 km/h (3 Bft) 98,39 %
14.10.2018 21:24 16,4 C 12,8 C 13,9 C 50 % 1014,6 hPa 0,0 l/m 9,2 km/h (2 Bft) NO 53 0 min 0,000 mm 0,0 UV-I 0 W/m 6,0 C 15,0 C 12,9 km/h (3 Bft) 100,00 %
14.10.2018 21:26 16,2 C 12,8 C 13,3 C 51 % 1014,5 hPa 0,0 l/m 8,4 km/h (2 Bft) O-SO 120 0 min 0,000 mm 0,0 UV-I 0 W/m 6,1 C 15,2 C 12,9 km/h (3 Bft) 97,87 %
14.10.2018 21:29 16,1 C 12,8 C 13,3 C 51 % 1014,6 hPa 0,0 l/m 10,9 km/h (2 Bft) O 90 0 min 0,000 mm 0,0 UV-I 0 W/m 6,0 C 14,0 C 16,1 km/h (3 Bft) 100,00 %
14.10.2018 21:30 16,2 C 12,8 C 13,3 C 51 % 1014,6 hPa 0,0 l/m 10,4 km/h (2 Bft) O 92 0 min 0,000 mm 0,0 UV-I 0 W/m 6,1 C 14,3 C 14,5 km/h (3 Bft) 100,00 %
14.10.2018 21:32 16,3 C 12,8 C 13,3 C 51 % 1014,6 hPa 0,0 l/m 9,8 km/h (2 Bft) O-NO 58 0 min 0,000 mm 0,0 UV-I 0 W/m 6,1 C 14,6 C 12,9 km/h (3 Bft) 100,00 %
14.10.2018 21:34 16,3 C 12,8 C 13,3 C 50 % 1014,5 hPa 0,0 l/m 9,6 km/h (2 Bft) O-NO 69 0 min 0,000 mm 0,0 UV-I 0 W/m 5,9 C 14,7 C 12,9 km/h (3 Bft) 98,00 %
14.10.2018 21:36 16,3 C 12,8 C 13,3 C 50 % 1014,5 hPa 0,0 l/m 9,4 km/h (2 Bft) NO 53 0 min 0,000 mm 0,0 UV-I 0 W/m 5,9 C 14,8 C 12,9 km/h (3 Bft) 95,74 %
14.10.2018 21:38 16,2 C 12,8 C 13,3 C 51 % 1014,5 hPa 0,0 l/m 5,5 km/h (1 Bft) O 100 0 min 0,000 mm 0,0 UV-I 0 W/m 6,1 C 16,2 C 9,7 km/h (2 Bft) 97,37 %
14.10.2018 21:40 16,1 C 12,8 C 12,8 C 51 % 1014,5 hPa 0,0 l/m 4,6 km/h (1 Bft) O-NO 66 0 min 0,000 mm 0,0 UV-I 0 W/m 6,0 C 16,1 C 6,4 km/h (2 Bft) 95,74 %
14.10.2018 21:42 15,8 C 12,8 C 12,2 C 52 % 1014,5 hPa 0,0 l/m 5,2 km/h (1 Bft) O 101 0 min 0,000 mm 0,0 UV-I 0 W/m 6,0 C 15,8 C 8,0 km/h (2 Bft) 93,62 %
14.10.2018 21:44 15,7 C 12,8 C 12,2 C 52 % 1014,5 hPa 0,0 l/m 5,2 km/h (1 Bft) O-NO 63 0 min 0,000 mm 0,0 UV-I 0 W/m 5,9 C 15,7 C 9,7 km/h (2 Bft) 97,87 %
14.10.2018 21:46 15,7 C 12,8 C 12,2 C 53 % 1014,5 hPa 0,0 l/m 6,3 km/h (2 Bft) O-NO 65 0 min 0,000 mm 0,0 UV-I 0 W/m 6,1 C 15,7 C 8,0 km/h (2 Bft) 95,74 %
14.10.2018 21:48 15,5 C 12,8 C 11,7 C 53 % 1014,5 hPa 0,0 l/m 8,0 km/h (2 Bft) NO 51 0 min 0,000 mm 0,0 UV-I 0 W/m 6,0 C 14,6 C 14,5 km/h (3 Bft) 97,87 %
14.10.2018 21:50 15,7 C 12,8 C 12,2 C 53 % 1014,5 hPa 0,0 l/m 9,6 km/h (2 Bft) O-NO 64 0 min 0,000 mm 0,0 UV-I 0 W/m 6,1 C 14,1 C 16,1 km/h (3 Bft) 91,49 %
14.10.2018 21:52 16,0 C 12,8 C 12,8 C 53 % 1014,5 hPa 0,0 l/m 11,4 km/h (2 Bft) O 85 0 min 0,000 mm 0,0 UV-I 0 W/m 6,4 C 13,7 C 17,7 km/h (3 Bft) 97,87 %
14.10.2018 21:54 16,3 C 12,8 C 13,3 C 52 % 1014,6 hPa 0,0 l/m 9,0 km/h (2 Bft) O-SO 119 0 min 0,000 mm 0,0 UV-I 0 W/m 6,4 C 15,0 C 16,1 km/h (3 Bft) 97,92 %
14.10.2018 21:56 16,5 C 12,8 C 13,3 C 51 % 1014,5 hPa 0,0 l/m 9,2 km/h (2 Bft) O-SO 110 0 min 0,000 mm 0,0 UV-I 0 W/m 6,3 C 15,1 C 17,7 km/h (3 Bft) 97,87 %
14.10.2018 21:58 16,6 C 12,8 C 13,3 C 51 % 1014,5 hPa 0,0 l/m 9,2 km/h (2 Bft) NO 40 0 min 0,000 mm 0,0 UV-I 0 W/m 6,4 C 15,2 C 16,1 km/h (3 Bft) 97,87 %
14.10.2018 22:00 16,7 C 12,8 C 13,9 C 50 % 1014,5 hPa 0,0 l/m 15,3 km/h (3 Bft) SO 141 0 min 0,000 mm 0,0 UV-I 0 W/m 6,2 C 13,2 C 20,9 km/h (4 Bft) 97,87 %
14.10.2018 22:02 16,7 C 12,8 C 13,9 C 51 % 1014,5 hPa 0,0 l/m 11,9 km/h (2 Bft) O 79 0 min 0,076 mm 0,0 UV-I 0 W/m 6,5 C 14,3 C 19,3 km/h (3 Bft) 97,87 %
14.10.2018 22:04 16,7 C 12,8 C 13,9 C 50 % 1014,5 hPa 0,0 l/m 12,0 km/h (2 Bft) O-SO 115 0 min 0,000 mm 0,0 UV-I 0 W/m 6,2 C 14,2 C 22,5 km/h (4 Bft) 100,00 %
14.10.2018 22:06 16,7 C 12,8 C 13,9 C 51 % 1014,5 hPa 0,0 l/m 7,8 km/h (2 Bft) O-SO 107 0 min 0,000 mm 0,0 UV-I 0 W/m 6,5 C 16,0 C 14,5 km/h (3 Bft) 100,00 %
14.10.2018 22:08 16,7 C 12,8 C 13,9 C 50 % 1014,5 hPa 0,0 l/m 11,1 km/h (2 Bft) O 98 0 min 0,000 mm 0,0 UV-I 0 W/m 6,2 C 14,6 C 19,3 km/h (3 Bft) 97,87 %
14.10.2018 22:10 16,8 C 12,8 C 13,9 C 50 % 1014,5 hPa 0,0 l/m 16,2 km/h (3 Bft) O 99 0 min 0,000 mm 0,0 UV-I 0 W/m 6,3 C 13,0 C 22,5 km/h (4 Bft) 100,00 %
14.10.2018 22:12 16,8 C 12,8 C 13,9 C 50 % 1014,4 hPa 0,0 l/m 15,1 km/h (3 Bft) O-SO 103 0 min 0,000 mm 0,0 UV-I 0 W/m 6,3 C 13,3 C 22,5 km/h (4 Bft) 97,87 %
14.10.2018 22:14 16,8 C 12,8 C 13,9 C 50 % 1014,6 hPa 0,0 l/m 13,1 km/h (3 Bft) O-SO 120 0 min 0,000 mm 0,0 UV-I 0 W/m 6,3 C 14,0 C 19,3 km/h (3 Bft) 100,00 %
14.10.2018 22:16 16,8 C 12,8 C 13,9 C 49 % 1014,5 hPa 0,0 l/m 15,5 km/h (3 Bft) S-SO 153 0 min 0,000 mm 0,0 UV-I 0 W/m 6,0 C 13,2 C 22,5 km/h (4 Bft) 100,00 %
14.10.2018 22:18 16,8 C 12,8 C 13,9 C 50 % 1014,5 hPa 0,0 l/m 14,9 km/h (3 Bft) O 92 0 min 0,000 mm 0,0 UV-I 0 W/m 6,3 C 13,4 C 20,9 km/h (4 Bft) 100,00 %
14.10.2018 22:20 16,8 C 12,8 C 14,4 C 49 % 1014,5 hPa 0,0 l/m 16,1 km/h (3 Bft) O-SO 112 0 min 0,000 mm 0,0 UV-I 0 W/m 6,0 C 13,1 C 25,7 km/h (4 Bft) 93,86 %
14.10.2018 22:22 16,8 C 12,8 C 13,9 C 49 % 1014,5 hPa 0,0 l/m 12,2 km/h (2 Bft) O-SO 120 0 min 0,000 mm 0,0 UV-I 0 W/m 6,0 C 14,3 C 17,7 km/h (3 Bft) 100,00 %
14.10.2018 22:24 16,7 C 12,8 C 13,9 C 49 % 1014,5 hPa 0,0 l/m 13,9 km/h (3 Bft) O 86 0 min 0,000 mm 0,0 UV-I 0 W/m 5,9 C 13,6 C 19,3 km/h (3 Bft) 100,00 %
14.10.2018 22:26 16,7 C 12,8 C 13,9 C 50 % 1014,6 hPa 0,0 l/m 16,5 km/h (3 Bft) O-SO 113 0 min 0,000 mm 0,0 UV-I 0 W/m 6,2 C 12,8 C 24,1 km/h (4 Bft) 100,00 %
14.10.2018 22:29 16,6 C 12,8 C 13,9 C 50 % 1014,6 hPa 0,0 l/m 15,4 km/h (3 Bft) SO 131 0 min 0,000 mm 0,0 UV-I 0 W/m 6,1 C 13,0 C 22,5 km/h (4 Bft) 100,00 %
14.10.2018 22:30 16,6 C 12,8 C 13,9 C 50 % 1014,6 hPa 0,0 l/m 14,5 km/h (3 Bft) O-SO 118 0 min 0,000 mm 0,0 UV-I 0 W/m 6,1 C 13,3 C 17,7 km/h (3 Bft) 100,00 %
14.10.2018 22:32 16,6 C 12,8 C 13,9 C 50 % 1014,6 hPa 0,0 l/m 13,3 km/h (3 Bft) O-SO 116 0 min 0,000 mm 0,0 UV-I 0 W/m 6,1 C 13,7 C 19,3 km/h (3 Bft) 100,00 %
14.10.2018 22:34 16,6 C 12,8 C 13,3 C 50 % 1014,6 hPa 0,0 l/m 12,3 km/h (3 Bft) SO 126 0 min 0,000 mm 0,0 UV-I 0 W/m 6,1 C 14,0 C 17,7 km/h (3 Bft) 97,87 %
14.10.2018 22:36 16,4 C 12,8 C 13,3 C 50 % 1014,6 hPa 0,0 l/m 11,4 km/h (2 Bft) O-SO 110 0 min 0,000 mm 0,0 UV-I 0 W/m 6,0 C 14,1 C 14,5 km/h (3 Bft) 100,00 %
14.10.2018 22:38 16,3 C 12,8 C 13,3 C 50 % 1014,6 hPa 0,0 l/m 8,4 km/h (2 Bft) O-SO 105 0 min 0,000 mm 0,0 UV-I 0 W/m 5,9 C 15,3 C 12,9 km/h (3 Bft) 100,00 %
14.10.2018 22:40 16,2 C 12,8 C 12,8 C 51 % 1014,7 hPa 0,0 l/m 6,4 km/h (2 Bft) O 100 0 min 0,000 mm 0,0 UV-I 0 W/m 6,1 C 16,2 C 11,3 km/h (2 Bft) 100,00 %
14.10.2018 22:42 16,1 C 12,8 C 12,2 C 51 % 1014,7 hPa 0,0 l/m 2,9 km/h (1 Bft) O-SO 105 0 min 0,000 mm 0,0 UV-I 0 W/m 6,0 C 16,1 C 4,8 km/h (1 Bft) 98,11 %
14.10.2018 22:44 15,7 C 12,8 C 11,7 C 53 % 1014,7 hPa 0,0 l/m 3,0 km/h (1 Bft) O-SO 105 0 min 0,000 mm 0,0 UV-I 0 W/m 6,1 C 15,7 C 4,8 km/h (1 Bft) 100,00 %
14.10.2018 22:46 15,3 C 12,8 C 11,1 C 54 % 1014,7 hPa 0,0 l/m 4,1 km/h (1 Bft) N-NO 28 0 min 0,000 mm 0,0 UV-I 0 W/m 6,0 C 15,3 C 6,4 km/h (2 Bft) 100,00 %
14.10.2018 22:48 14,8 C 12,8 C 10,6 C 55 % 1014,7 hPa 0,0 l/m 4,9 km/h (1 Bft) NO 40 0 min 0,000 mm 0,0 UV-I 0 W/m 5,8 C 14,8 C 6,4 km/h (2 Bft) 98,11 %
14.10.2018 22:50 14,6 C 12,8 C 10,0 C 56 % 1014,7 hPa 0,0 l/m 4,8 km/h (1 Bft) NO 45 0 min 0,000 mm 0,0 UV-I 0 W/m 5,9 C 14,6 C 6,4 km/h (2 Bft) 95,61 %
14.10.2018 22:56 14,5 C 12,8 C 9,4 C 57 % 1014,7 hPa 0,0 l/m 7,1 km/h (2 Bft) NO 43 0 min 0,000 mm 0,0 UV-I 0 W/m 6,1 C 14,1 C 9,7 km/h (2 Bft) 100,00 %
14.10.2018 22:58 14,6 C 12,8 C 9,4 C 57 % 1014,8 hPa 0,0 l/m 7,5 km/h (2 Bft) O-NO 70 0 min 0,000 mm 0,0 UV-I 0 W/m 6,2 C 14,0 C 9,7 km/h (2 Bft) 94,34 %
14.10.2018 23:00 14,7 C 12,8 C 9,4 C 56 % 1014,8 hPa 0,0 l/m 7,0 km/h (2 Bft) O-NO 67 0 min 0,076 mm 0,0 UV-I 0 W/m 6,0 C 14,4 C 9,7 km/h (2 Bft) 95,83 %
14.10.2018 23:02 14,8 C 12,8 C 9,4 C 56 % 1014,8 hPa 0,0 l/m 7,2 km/h (2 Bft) O 83 0 min 0,000 mm 0,0 UV-I 0 W/m 6,1 C 14,3 C 11,3 km/h (2 Bft) 96,55 %
14.10.2018 23:04 14,7 C 12,8 C 10,0 C 56 % 1014,8 hPa 0,0 l/m 7,8 km/h (2 Bft) O-NO 73 0 min 0,000 mm 0,0 UV-I 0 W/m 6,0 C 13,9 C 11,3 km/h (2 Bft) 94,34 %
14.10.2018 23:06 14,7 C 12,8 C 10,6 C 56 % 1014,8 hPa 0,0 l/m 10,1 km/h (2 Bft) O 99 0 min 0,000 mm 0,0 UV-I 0 W/m 6,0 C 12,7 C 12,9 km/h (3 Bft) 96,00 %
14.10.2018 23:09 14,7 C 12,8 C 11,1 C 56 % 1014,8 hPa 0,0 l/m 10,5 km/h (2 Bft) O-NO 66 0 min 0,000 mm 0,0 UV-I 0 W/m 6,0 C 12,6 C 16,1 km/h (3 Bft) 93,15 %
14.10.2018 23:10 14,8 C 12,8 C 11,1 C 56 % 1014,8 hPa 0,0 l/m 11,4 km/h (2 Bft) O 88 0 min 0,000 mm 0,0 UV-I 0 W/m 6,1 C 12,3 C 16,1 km/h (3 Bft) 100,00 %
14.10.2018 23:12 14,8 C 12,8 C 11,1 C 56 % 1014,8 hPa 0,0 l/m 10,4 km/h (2 Bft) O 94 0 min 0,000 mm 0,0 UV-I 0 W/m 6,1 C 12,7 C 16,1 km/h (3 Bft) 94,74 %
14.10.2018 23:14 14,9 C 12,8 C 11,7 C 56 % 1014,8 hPa 0,0 l/m 8,1 km/h (2 Bft) O-NO 78 0 min 0,000 mm 0,0 UV-I 0 W/m 6,2 C 13,9 C 12,9 km/h (3 Bft) 94,64 %
14.10.2018 23:16 14,9 C 12,8 C 11,7 C 56 % 1014,8 hPa 0,0 l/m 11,2 km/h (2 Bft) O 95 0 min 0,000 mm 0,0 UV-I 0 W/m 6,2 C 12,5 C 14,5 km/h (3 Bft) 95,45 %
14.10.2018 23:18 15,1 C 12,8 C 11,7 C 55 % 1014,9 hPa 0,0 l/m 9,6 km/h (2 Bft) O-NO 63 0 min 0,000 mm 0,0 UV-I 0 W/m 6,1 C 13,4 C 16,1 km/h (3 Bft) 92,45 %
14.10.2018 23:20 15,2 C 12,8 C 11,7 C 55 % 1014,8 hPa 0,0 l/m 14,3 km/h (3 Bft) O-NO 76 0 min 0,000 mm 0,0 UV-I 0 W/m 6,2 C 11,7 C 19,3 km/h (3 Bft) 94,74 %
14.10.2018 23:22 15,2 C 12,8 C 11,7 C 54 % 1014,9 hPa 0,0 l/m 11,9 km/h (2 Bft) O 96 0 min 0,000 mm 0,0 UV-I 0 W/m 6,0 C 12,5 C 16,1 km/h (3 Bft) 93,62 %
14.10.2018 23:24 15,1 C 12,8 C 11,7 C 55 % 1014,9 hPa 0,0 l/m 11,5 km/h (2 Bft) O-SO 104 0 min 0,000 mm 0,0 UV-I 0 W/m 6,1 C 12,6 C 14,5 km/h (3 Bft) 100,00 %
14.10.2018 23:26 15,0 C 12,8 C 12,2 C 55 % 1014,8 hPa 0,0 l/m 11,1 km/h (2 Bft) O 87 0 min 0,000 mm 0,0 UV-I 0 W/m 6,0 C 12,6 C 14,5 km/h (3 Bft) 97,56 %
14.10.2018 23:28 14,9 C 12,8 C 12,2 C 55 % 1014,8 hPa 0,0 l/m 14,3 km/h (3 Bft) O 88 0 min 0,000 mm 0,0 UV-I 0 W/m 5,9 C 11,3 C 19,3 km/h (3 Bft) 97,62 %
14.10.2018 23:30 15,0 C 12,8 C 12,2 C 55 % 1014,8 hPa 0,0 l/m 14,1 km/h (3 Bft) O 97 0 min 0,000 mm 0,0 UV-I 0 W/m 6,0 C 11,5 C 20,9 km/h (4 Bft) 98,18 %
14.10.2018 23:32 15,1 C 12,8 C 12,2 C 55 % 1014,7 hPa 0,0 l/m 14,0 km/h (3 Bft) O 101 0 min 0,000 mm 0,0 UV-I 0 W/m 6,1 C 11,6 C 20,9 km/h (4 Bft) 98,04 %
14.10.2018 23:34 15,2 C 12,8 C 12,8 C 55 % 1014,7 hPa 0,0 l/m 15,7 km/h (3 Bft) O 101 0 min 0,000 mm 0,0 UV-I 0 W/m 6,2 C 11,2 C 22,5 km/h (4 Bft) 97,14 %
14.10.2018 23:36 15,2 C 12,8 C 12,8 C 54 % 1014,7 hPa 0,0 l/m 16,3 km/h (3 Bft) O-SO 102 0 min 0,000 mm 0,0 UV-I 0 W/m 6,0 C 11,0 C 20,9 km/h (4 Bft) 98,21 %
14.10.2018 23:38 15,3 C 12,8 C 12,8 C 54 % 1014,7 hPa 0,0 l/m 14,2 km/h (3 Bft) O-SO 109 0 min 0,000 mm 0,0 UV-I 0 W/m 6,0 C 11,8 C 20,9 km/h (4 Bft) 96,00 %
14.10.2018 23:40 15,3 C 12,8 C 12,8 C 54 % 1014,7 hPa 0,0 l/m 14,8 km/h (3 Bft) O-SO 103 0 min 0,000 mm 0,0 UV-I 0 W/m 6,0 C 11,6 C 19,3 km/h (3 Bft) 97,37 %
14.10.2018 23:42 15,3 C 12,8 C 12,8 C 54 % 1014,7 hPa 0,0 l/m 14,1 km/h (3 Bft) O 91 0 min 0,000 mm 0,0 UV-I 0 W/m 6,0 C 11,9 C 20,9 km/h (4 Bft) 98,11 %
14.10.2018 23:44 15,3 C 12,8 C 12,2 C 54 % 1014,7 hPa 0,0 l/m 12,5 km/h (3 Bft) O 89 0 min 0,000 mm 0,0 UV-I 0 W/m 6,0 C 12,4 C 17,7 km/h (3 Bft) 97,37 %
14.10.2018 23:46 15,2 C 12,8 C 12,2 C 54 % 1014,6 hPa 0,0 l/m 11,2 km/h (2 Bft) O 99 0 min 0,000 mm 0,0 UV-I 0 W/m 6,0 C 12,8 C 17,7 km/h (3 Bft) 98,00 %
14.10.2018 23:48 15,0 C 12,8 C 12,2 C 55 % 1014,6 hPa 0,0 l/m 11,8 km/h (2 Bft) O 88 0 min 0,000 mm 0,0 UV-I 0 W/m 6,0 C 12,4 C 14,5 km/h (3 Bft) 96,23 %
14.10.2018 23:50 14,9 C 12,8 C 12,2 C 55 % 1014,7 hPa 0,0 l/m 12,8 km/h (3 Bft) O-NO 76 0 min 0,000 mm 0,0 UV-I 0 W/m 5,9 C 11,8 C 20,9 km/h (4 Bft) 97,87 %
14.10.2018 23:52 14,9 C 12,8 C 12,2 C 55 % 1014,7 hPa 0,0 l/m 17,7 km/h (3 Bft) O 95 0 min 0,000 mm 0,0 UV-I 0 W/m 5,9 C 10,2 C 24,1 km/h (4 Bft) 97,56 %
14.10.2018 23:54 14,9 C 12,8 C 12,2 C 55 % 1014,7 hPa 0,0 l/m 16,4 km/h (3 Bft) O-NO 77 0 min 0,000 mm 0,0 UV-I 0 W/m 5,9 C 10,6 C 22,5 km/h (4 Bft) 98,11 %
14.10.2018 23:56 14,9 C 12,8 C 12,2 C 55 % 1014,6 hPa 0,0 l/m 15,8 km/h (3 Bft) O 92 0 min 0,000 mm 0,0 UV-I 0 W/m 5,9 C 10,8 C 20,9 km/h (4 Bft) 97,37 %
14.10.2018 23:58 14,8 C 12,8 C 12,2 C 55 % 1014,6 hPa 0,0 l/m 17,2 km/h (3 Bft) O 89 0 min 0,000 mm 0,0 UV-I 0 W/m 5,8 C 10,3 C 22,5 km/h (4 Bft) 98,11 %
_ Min-Zeit 07:10 00:00 07:14 14:42 14:56 - 22:42 - - - - - - 16:46 01:48 22:42 01:52
Minimum _ 10,8 C 12,8 C 6,7 C 30 % 1013,6 hPa - 2,9 km/h (1 Bft) - - - - - - 5,7 C 8,4 C 4,8 km/h (1 Bft) 84,21 %
_ Max-Zeit 14:52 00:00 11:56 07:10 00:26 00:00 13:16 - - 08:25 14:00 12:10 12:28 11:58 15:06 13:16 00:00
Maximum _ 25,5 C 12,8 C 30,0 C 73 % 1018,3 hPa 0,0 l/m 25,1 km/h
O (4 Bft)
- - 3 min 0,483 mm 1,9 UV-I 514 W/m 9,7 C 24,4 C 37,0 km/h
O (5 Bft)
100,00 %
Durchschnitt _ 17,0 C 12,8 C 15,5 C 54 % 1015,6 hPa #0,0 l/m 12,0 km/h (2 Bft) O - #10:16 h #4,013 mm 1,3 UV-I 293 W/m 7,0 C 15,0 C 17,6 km/h (3 Bft) 97,35 %